[[{"header":{"parameterUnit":"m.s-1","parameterCategory":1,"la1":30.6,"la2":28.766,"lo1":-90.7593,"lo2":-88.6598,"dy":0.0162,"dx":0.0183,"nx":116,"ny":114,"refTime":"2023-10-15T18:00:00:Z","depth":0,"parameterNumber":2,"parameterNumberName":"U-component_of_WINDS"},"data":[0.0,0.0,0.0,0.0,0.0,0.0,0.0,0.0,0.0,0.0,0.0,0.0,0.0,0.0,0.0,0.0,0.0,0.0,0.0,0.0,0.0,0.0,0.0,0.0,0.0,0.0,0.0,0.0,0.0,0.0,0.0,0.0,0.0,0.0,0.0,0.0,0.0,0.0,0.0,0.0,0.0,0.0,0.0,0.0,0.0,0.0,0.0,0.0,0.0,0.0,0.0,0.0,0.0,0.0,0.0,0.0,0.0,0.0,0.0,0.0,0.0,0.0,0.0,0.0,0.0,0.0,0.0,0.0,0.0,0.0,0.0,0.0,0.0,0.0,0.0,0.0,0.0,0.0,0.0,0.0,0.0,0.0,0.0,0.0,0.0,0.0,0.0,0.0,0.0,0.0,0.0,0.0,0.0,0.0,0.0,0.0,0.0,0.0,0.0,0.0,0.0,0.0,0.0,0.0,0.0,0.0,0.0,0.0,0.0,0.0,0.0,0.0,0.0,0.0,0.0,0.0,0.0,0.0,0.0,0.0,0.0,0.0,0.0,0.0,0.0,0.0,0.0,0.0,0.0,0.0,0.0,0.0,0.0,0.0,0.0,0.0,0.0,0.0,0.0,0.0,0.0,0.0,0.0,0.0,0.0,0.0,0.0,0.0,0.0,0.0,0.0,0.0,0.0,0.0,0.0,0.0,0.0,0.0,0.0,0.0,0.0,0.0,0.0,0.0,0.0,0.0,0.0,0.0,0.0,0.0,0.0,0.0,0.0,0.0,0.0,0.0,0.0,0.0,0.0,0.0,0.0,0.0,0.0,0.0,0.0,0.0,0.0,0.0,0.0,0.0,0.0,0.0,0.0,0.0,0.0,0.0,0.0,0.0,0.0,0.0,0.0,0.0,0.0,0.0,0.0,0.0,0.0,0.0,0.0,0.0,0.0,0.0,0.0,0.0,0.0,0.0,0.0,0.0,0.0,0.0,0.0,0.0,0.0,0.0,0.0,0.0,0.0,0.0,0.0,0.0,0.0,0.0,0.0,0.0,0.0,0.0,0.0,0.0,0.0,0.0,0.0,0.0,0.0,0.0,0.0,0.0,0.0,0.0,0.0,0.0,0.0,0.0,0.0,0.0,0.0,0.0,0.0,0.0,0.0,0.0,0.0,0.0,0.0,0.0,0.0,0.0,0.0,0.0,0.0,0.0,0.0,0.0,0.0,0.0,0.0,0.0,0.0,0.0,0.0,0.0,0.0,0.0,0.0,0.0,0.0,0.0,0.0,0.0,0.0,0.0,0.0,0.0,0.0,0.0,0.0,0.0,0.0,0.0,0.0,0.0,0.0,0.0,0.0,0.0,0.0,0.0,0.0,0.0,0.0,0.0,0.0,0.0,0.0,0.0,0.0,0.0,0.0,0.0,0.0,0.0,0.0,0.0,0.0,0.0,0.0,0.0,0.0,0.0,0.0,0.0,0.0,0.0,0.0,0.0,0.0,0.0,0.0,0.0,0.0,0.0,0.0,0.0,0.0,0.0,0.0,0.0,0.0,0.0,0.0,0.0,0.0,0.0,0.0,0.0,0.0,0.0,0.0,0.0,0.0,0.0,0.0,0.0,0.0,0.0,0.0,0.0,0.0,0.0,0.0,0.0,0.0,0.0,0.0,0.0,0.0,0.0,0.0,0.0,0.0,0.0,0.0,0.0,0.0,0.0,0.0,0.0,0.0,0.0,0.0,0.0,0.0,0.0,0.0,0.0,0.0,0.0,0.0,0.0,0.0,0.0,0.0,0.0,0.0,0.0,0.0,0.0,0.0,0.0,0.0,0.0,0.0,0.0,0.0,0.0,0.0,0.0,0.0,0.0,0.0,0.0,0.0,0.0,0.0,0.0,0.0,0.0,0.0,0.0,0.0,0.0,0.0,0.0,0.0,0.0,0.0,0.0,0.0,0.0,0.0,0.0,0.0,0.0,0.0,0.0,0.0,0.0,0.0,0.0,0.0,0.0,0.0,0.0,0.0,0.0,0.0,0.0,0.0,0.0,0.0,0.0,0.0,0.0,0.0,0.0,0.0,0.0,0.0,0.0,0.0,0.0,0.0,0.0,0.0,0.0,0.0,0.0,0.0,0.0,0.0,0.0,0.0,0.0,0.0,0.0,0.0,0.0,0.0,0.0,0.0,0.0,0.0,0.0,0.0,0.0,0.0,0.0,0.0,0.0,0.0,0.0,0.0,0.0,0.0,0.0,0.0,0.0,0.0,0.0,0.0,0.0,0.0,0.0,0.0,0.0,0.0,0.0,0.0,0.0,0.0,0.0,0.0,0.0,0.0,0.0,0.0,0.0,0.0,0.0,0.0,0.0,0.0,0.0,0.0,0.0,0.0,0.0,0.0,0.0,0.0,0.0,0.0,0.0,0.0,0.0,0.0,0.0,0.0,0.0,0.0,0.0,0.0,0.0,0.0,0.0,0.0,0.0,0.0,0.0,0.0,0.0,0.0,0.0,0.0,0.0,0.0,0.0,0.0,0.0,0.0,0.0,0.0,0.0,0.0,0.0,0.0,0.0,0.0,0.0,0.0,0.0,0.0,0.0,0.0,0.0,0.0,0.0,0.0,0.0,0.0,0.0,0.0,0.0,0.0,0.0,0.0,0.0,0.0,0.0,0.0,0.0,0.0,0.0,0.0,0.0,0.0,0.0,0.0,0.0,0.0,0.0,0.0,0.0,0.0,0.0,0.0,0.0,0.0,0.0,0.0,0.0,0.0,0.0,0.0,0.0,0.0,0.0,0.0,0.0,0.0,0.0,0.0,0.0,0.0,0.0,0.0,0.0,0.0,0.0,0.0,0.0,0.0,0.0,0.0,0.0,0.0,0.0,0.0,0.0,0.0,0.0,0.0,0.0,0.0,0.0,0.0,0.0,0.0,0.0,0.0,0.0,0.0,0.0,0.0,0.0,0.0,0.0,0.0,0.0,0.0,0.0,0.0,0.0,0.0,0.0,0.0,0.0,0.0,0.0,0.0,0.0,0.0,0.0,0.0,0.0,0.0,0.0,0.0,0.0,0.0,0.0,0.0,0.0,0.0,0.0,0.0,0.0,0.0,0.0,0.0,0.0,0.0,0.0,0.0,0.0,0.0,0.0,0.0,0.0,0.0,0.0,0.0,0.0,0.0,0.0,0.0,0.0,0.0,0.0,0.0,0.0,0.0,0.0,0.0,0.0,0.0,0.0,0.0,0.0,0.0,0.0,0.0,0.0,0.0,0.0,0.0,0.0,0.0,0.0,0.0,0.0,0.0,0.0,0.0,0.0,0.0,0.0,0.0,0.0,0.0,0.0,0.0,0.0,0.0,0.0,0.0,0.0,0.0,0.0,0.0,0.0,0.0,0.0,0.0,0.0,0.0,0.0,0.0,0.0,0.0,0.0,0.0,0.0,0.0,0.0,0.0,0.0,0.0,0.0,0.0,0.0,0.0,0.0,0.0,0.0,0.0,0.0,0.0,0.0,0.0,0.0,0.0,0.0,0.0,0.0,0.0,0.0,0.0,0.0,0.0,0.0,0.0,0.0,0.0,0.0,0.0,0.0,0.0,0.0,0.0,0.0,0.0,0.0,0.0,0.0,0.0,0.0,0.0,0.0,0.0,0.0,0.0,0.0,0.0,0.0,0.0,0.0,0.0,0.0,0.0,0.0,0.0,0.0,0.0,0.0,0.0,0.0,0.0,0.0,0.0,0.0,0.0,0.0,0.0,0.0,0.0,0.0,0.0,0.0,0.0,0.0,0.0,0.0,0.0,0.0,0.0,0.0,0.0,0.0,0.0,0.0,0.0,0.0,0.0,0.0,0.0,0.0,0.0,0.0,0.0,0.0,0.0,0.0,0.0,0.0,0.0,0.0,0.0,0.0,0.0,0.0,0.0,0.0,0.0,0.0,0.0,0.0,0.0,0.0,0.0,0.0,0.0,0.0,0.0,0.0,0.0,0.0,0.0,0.0,0.0,0.0,0.0,0.0,0.0,0.0,0.0,0.0,0.0,0.0,0.0,0.0,0.0,0.0,0.0,0.0,0.0,0.0,0.0,0.0,0.0,0.0,0.0,0.0,0.0,0.0,0.0,0.0,0.0,0.0,0.0,0.0,0.0,0.0,0.0,0.0,0.0,0.0,0.0,0.0,0.0,0.0,0.0,0.0,0.0,0.0,0.0,0.0,0.0,0.0,0.0,0.0,0.0,0.0,0.0,0.0,0.0,0.0,0.0,0.0,0.0,0.0,0.0,0.0,0.0,0.0,0.0,0.0,0.0,0.0,0.0,0.0,0.0,0.0,0.0,0.0,0.0,0.0,0.0,0.0,0.0,0.0,0.0,0.0,0.0,0.0,0.0,0.0,0.0,0.0,0.0,0.0,0.0,0.0,0.0,0.0,0.0,0.0,0.0,0.0,0.0,0.0,0.0,0.0,0.0,0.0,0.0,0.0,0.0,0.0,0.0,0.0,0.0,0.0,0.0,0.0,0.0,0.0,0.0,0.0,0.0,0.0,0.0,0.0,0.0,0.0,0.0,0.0,0.0,0.0,0.0,0.0,0.0,0.0,0.0,0.0,0.0,0.0,0.0,0.0,0.0,0.0,0.0,0.0,0.0,0.0,0.0,0.0,0.0,0.0,0.0,0.0,0.0,0.0,0.0,0.0,0.0,0.0,0.0,0.0,0.0,0.0,0.0,0.0,0.0,0.0,0.0,0.0,0.0,0.0,0.0,0.0,0.0,0.0,0.0,0.0,0.0,0.0,0.0,0.0,0.0,0.0,0.0,0.0,0.0,0.0,0.0,0.0,0.0,0.0,0.0,0.0,0.0,0.0,0.0,0.0,0.0,0.0,0.0,0.0,0.0,0.0,0.0,0.0,0.0,0.0,0.0,0.0,0.0,0.0,0.0,0.0,0.0,0.0,0.0,0.0,0.0,0.0,0.0,0.0,0.0,0.0,0.0,0.0,0.0,0.0,0.0,0.0,0.0,0.0,0.0,0.0,0.0,0.0,0.0,0.0,0.0,0.0,0.0,0.0,0.0,0.0,0.0,0.0,0.0,0.0,0.0,0.0,0.0,0.0,0.0,0.0,0.0,0.0,0.0,0.0,0.0,0.0,0.0,0.0,0.0,0.0,0.0,0.0,0.0,0.0,0.0,0.0,0.0,0.0,0.0,0.0,0.0,0.0,0.0,0.0,0.0,0.0,0.0,0.0,0.0,0.0,0.0,0.0,0.0,0.0,0.0,0.0,0.0,0.0,0.0,0.0,0.0,0.0,0.0,0.0,0.0,0.0,0.0,0.0,0.0,0.0,0.0,0.0,0.0,0.0,0.0,0.0,0.0,0.0,0.0,0.0,0.0,0.0,0.0,0.0,0.0,0.0,0.0,0.0,0.0,0.0,0.0,0.0,0.0,0.0,0.0,0.0,0.0,0.0,0.0,0.0,0.0,0.0,0.0,0.0,0.0,0.0,0.0,0.0,0.0,0.0,0.0,0.0,0.0,0.0,0.0,0.0,0.0,0.0,0.0,0.0,0.0,0.0,0.0,0.0,0.0,0.0,0.0,0.0,0.0,0.0,0.0,0.0,0.0,0.0,0.0,0.0,0.0,0.0,0.0,0.0,0.0,0.0,0.0,0.0,0.0,0.0,0.0,0.0,0.0,0.0,0.0,0.0,0.0,0.0,0.0,0.0,0.0,0.0,0.0,0.0,0.0,0.0,0.0,0.0,0.0,0.0,0.0,0.0,0.0,0.0,0.0,0.0,0.0,0.0,0.0,0.0,0.0,0.0,0.0,0.0,0.0,0.0,0.0,0.0,0.0,0.0,0.0,0.0,0.0,0.0,0.0,0.0,0.0,0.0,0.0,0.0,0.0,0.0,0.0,0.0,0.0,0.0,0.0,0.0,0.0,0.0,0.0,0.0,0.0,0.0,0.0,0.0,0.0,0.0,0.0,0.0,0.0,0.0,0.0,0.0,0.0,0.0,0.0,0.0,0.0,0.0,0.0,0.0,0.0,0.0,0.0,0.0,0.0,0.0,0.0,0.0,0.0,0.0,0.0,0.0,0.0,0.0,0.0,0.0,0.0,0.0,0.0,0.0,0.0,0.0,5.8584,0.0,0.0,0.0,0.0,0.0,0.0,0.0,0.0,0.0,0.0,0.0,0.0,0.0,0.0,0.0,0.0,0.0,0.0,0.0,0.0,0.0,0.0,0.0,0.0,0.0,0.0,0.0,0.0,0.0,0.0,0.0,0.0,0.0,0.0,0.0,0.0,0.0,0.0,0.0,0.0,0.0,0.0,0.0,0.0,0.0,0.0,0.0,0.0,0.0,0.0,0.0,0.0,0.0,0.0,0.0,0.0,0.0,0.0,0.0,0.0,0.0,0.0,0.0,0.0,0.0,0.0,0.0,0.0,0.0,0.0,0.0,0.0,0.0,0.0,0.0,0.0,0.0,0.0,0.0,0.0,0.0,0.0,0.0,0.0,0.0,0.0,0.0,0.0,0.0,0.0,0.0,0.0,0.0,0.0,0.0,0.0,0.0,0.0,0.0,0.0,0.0,0.0,0.0,0.0,0.0,0.0,0.0,0.0,0.0,0.0,0.0,0.0,0.0,0.0,0.0,0.0,6.0823,0.0,0.0,0.0,0.0,0.0,0.0,0.0,0.0,0.0,0.0,0.0,0.0,0.0,0.0,0.0,0.0,0.0,0.0,0.0,0.0,0.0,0.0,0.0,0.0,0.0,0.0,0.0,0.0,0.0,0.0,0.0,0.0,0.0,0.0,0.0,0.0,0.0,0.0,0.0,0.0,0.0,0.0,0.0,0.0,0.0,0.0,0.0,0.0,0.0,0.0,0.0,0.0,0.0,0.0,0.0,0.0,0.0,0.0,0.0,0.0,0.0,0.0,0.0,0.0,0.0,0.0,0.0,0.0,0.0,0.0,0.0,0.0,0.0,0.0,0.0,0.0,0.0,0.0,0.0,0.0,0.0,0.0,0.0,0.0,0.0,0.0,0.0,0.0,0.0,0.0,0.0,0.0,0.0,0.0,0.0,0.0,0.0,0.0,0.0,0.0,0.0,0.0,0.0,0.0,0.0,0.0,0.0,0.0,7.4184,7.5028,7.5395,7.5395,7.4661,7.323,6.9743,6.6292,6.3172,0.0,0.0,0.0,0.0,0.0,0.0,0.0,0.0,0.0,0.0,0.0,0.0,0.0,0.0,0.0,0.0,0.0,0.0,0.0,0.0,0.0,0.0,0.0,0.0,0.0,0.0,0.0,0.0,0.0,0.0,0.0,0.0,0.0,0.0,0.0,0.0,0.0,0.0,0.0,0.0,0.0,0.0,0.0,0.0,0.0,0.0,0.0,0.0,0.0,0.0,0.0,0.0,0.0,0.0,0.0,0.0,0.0,0.0,0.0,0.0,0.0,0.0,0.0,0.0,0.0,0.0,0.0,0.0,0.0,0.0,0.0,0.0,0.0,0.0,0.0,0.0,0.0,0.0,0.0,0.0,0.0,0.0,0.0,0.0,0.0,0.0,0.0,5.713,5.8527,0.0,0.0,0.0,0.0,0.0,0.0,0.0,0.0,0.0,0.0,0.0,0.0,0.0,0.0,7.345,7.6497,7.8259,7.8699,8.2333,8.3361,8.215,8.215,8.2039,8.1746,8.0498,0.0,6.8825,6.6953,0.0,0.0,0.0,0.0,0.0,0.0,0.0,0.0,0.0,0.0,0.0,0.0,0.0,0.0,0.0,0.0,0.0,0.0,0.0,0.0,0.0,0.0,0.0,0.0,0.0,0.0,0.0,0.0,0.0,0.0,0.0,0.0,0.0,0.0,0.0,0.0,0.0,0.0,0.0,0.0,0.0,0.0,0.0,0.0,0.0,0.0,0.0,0.0,0.0,0.0,0.0,0.0,0.0,0.0,0.0,0.0,0.0,0.0,0.0,0.0,0.0,0.0,0.0,0.0,0.0,0.0,0.0,0.0,0.0,0.0,0.0,0.0,0.0,0.0,0.0,0.0,0.0,0.0,0.0,0.0,0.0,0.0,0.0,0.0,0.0,5.7565,5.993,5.9271,6.1153,6.1961,0.0,0.0,0.0,0.0,0.0,0.0,0.0,0.0,0.0,7.2349,7.4882,7.7121,7.8993,8.1782,8.4058,8.5894,8.8096,8.905,8.8867,8.8867,8.8573,8.8096,8.7766,8.4829,7.9874,7.4698,7.1321,6.9009,0.0,0.0,0.0,0.0,6.4714,6.5705,0.0,0.0,0.0,0.0,0.0,0.0,0.0,0.0,0.0,0.0,0.0,0.0,0.0,0.0,0.0,6.3817,0.0,0.0,0.0,0.0,0.0,0.0,0.0,0.0,0.0,0.0,0.0,0.0,0.0,0.0,0.0,0.0,0.0,0.0,0.0,0.0,0.0,0.0,0.0,0.0,0.0,0.0,0.0,0.0,0.0,0.0,0.0,0.0,0.0,0.0,0.0,0.0,0.0,0.0,0.0,0.0,0.0,0.0,0.0,0.0,0.0,0.0,0.0,0.0,0.0,0.0,0.0,0.0,0.0,0.0,0.0,0.0,0.0,0.0,0.0,0.0,0.0,6.0372,6.2952,6.0713,6.4053,6.5558,0.0,0.0,0.0,0.0,0.0,0.0,7.1762,7.4258,7.6387,7.8222,8.1269,8.3324,8.4352,8.6738,8.916,9.1546,9.2978,9.4006,9.463,9.463,9.4299,9.3639,9.3272,9.195,8.9491,8.2186,7.7268,7.4037,7.0587,6.8862,6.8348,6.8531,6.9119,6.9926,0.0,0.0,0.0,0.0,0.0,0.0,0.0,0.0,0.0,0.0,0.0,0.0,0.0,0.0,6.5778,7.0822,6.9433,6.9094,0.0,0.0,0.0,0.0,0.0,0.0,0.0,0.0,0.0,0.0,0.0,0.0,0.0,0.0,0.0,0.0,0.0,0.0,0.0,0.0,0.0,0.0,0.0,0.0,0.0,0.0,0.0,0.0,0.0,0.0,0.0,0.0,0.0,0.0,0.0,0.0,0.0,0.0,0.0,0.0,0.0,0.0,0.0,0.0,0.0,0.0,0.0,0.0,0.0,0.0,0.0,0.0,0.0,0.0,0.0,0.0,0.0,0.0,0.0,0.0,0.0,6.4053,6.9376,0.0,0.0,0.0,0.0,7.077,7.2349,7.4294,7.6827,7.9286,8.1709,8.4095,8.6554,8.861,9.0152,9.2611,9.3932,9.4153,9.7236,9.8778,9.8814,9.8814,9.8778,9.8668,9.7126,9.5951,9.4593,8.7252,8.2333,7.9029,7.4955,7.3377,7.3156,7.1688,7.1651,7.2312,0.0,0.0,0.0,0.0,0.0,0.0,0.0,0.0,0.0,0.0,0.0,0.0,0.0,6.7502,7.1572,7.4039,7.6122,7.647,7.449,0.0,0.0,0.0,0.0,0.0,0.0,0.0,0.0,0.0,0.0,0.0,0.0,0.0,0.0,0.0,0.0,0.0,0.0,0.0,0.0,0.0,0.0,0.0,0.0,0.0,0.0,0.0,0.0,0.0,0.0,0.0,0.0,0.0,0.0,0.0,0.0,0.0,0.0,0.0,0.0,0.0,0.0,0.0,0.0,0.0,0.0,0.0,0.0,0.0,0.0,0.0,0.0,0.0,0.0,0.0,0.0,0.0,0.0,0.0,0.0,7.1651,7.5726,0.0,0.0,7.4147,7.4661,7.7341,7.8075,8.0351,8.4866,8.6921,8.9307,9.2281,9.4226,9.5731,9.6832,9.8227,9.9181,9.9732,10.0907,10.142,10.142,10.142,10.109,10.0613,9.9989,9.9035,9.7566,9.4446,9.0005,8.4903,8.1893,8.0094,7.914,7.9103,7.9286,7.9617,0.0,0.0,0.0,0.0,0.0,0.0,0.0,0.0,0.0,0.0,0.0,6.0861,6.4846,7.1275,7.6393,7.9101,8.1155,8.1093,7.8323,0.0,0.0,0.0,0.0,0.0,0.0,0.0,0.0,0.0,0.0,0.0,0.0,0.0,0.0,0.0,0.0,0.0,0.0,0.0,0.0,0.0,0.0,0.0,6.5191,0.0,0.0,0.0,0.0,0.0,0.0,0.0,0.0,0.0,0.0,0.0,0.0,0.0,0.0,0.0,0.0,0.0,0.0,0.0,0.0,0.0,0.0,0.0,0.0,0.0,0.0,0.0,0.0,0.0,0.0,0.0,0.0,0.0,0.0,0.0,7.5359,7.7488,8.1819,8.3911,8.2003,8.1085,8.1709,8.4425,8.5159,8.7472,9.2024,9.4042,9.5951,9.786,9.9732,10.0686,10.0686,10.1788,10.2412,10.2705,10.3513,10.3917,10.399,10.421,10.388,10.3109,10.2815,10.1788,10.0319,9.9438,9.6098,9.1143,8.7876,8.5967,8.5013,8.4719,8.4792,8.5086,0.0,0.0,0.0,0.0,0.0,0.0,0.0,0.0,0.0,0.0,5.8481,6.2277,6.943,7.4458,7.9834,8.6229,8.4136,8.2439,8.2324,7.4752,0.0,0.0,0.0,0.0,0.0,0.0,0.0,0.0,0.0,0.0,0.0,0.0,0.0,0.0,0.0,0.0,0.0,0.0,0.0,0.0,0.0,0.0,6.8788,0.0,0.0,0.0,0.0,0.0,0.0,0.0,0.0,0.0,0.0,0.0,0.0,0.0,0.0,0.0,0.0,0.0,0.0,0.0,0.0,0.0,0.0,0.0,0.0,0.0,0.0,0.0,0.0,0.0,0.0,0.0,0.0,0.0,6.7871,7.5542,8.1158,8.1342,8.7655,9.0445,8.6628,8.8353,9.0372,9.1987,9.3602,9.5584,9.8007,10.0283,10.1274,10.0576,10.2779,10.3293,10.1677,10.3293,10.3696,10.2925,10.5311,10.6486,10.6486,10.7294,10.7183,10.6413,10.5605,10.432,10.2815,10.1898,10.0172,9.7566,9.2684,9.0739,9.0408,8.8059,8.7692,8.8206,0.0,0.0,0.0,0.0,0.0,0.0,0.0,0.0,0.0,0.0,6.1265,6.6031,7.205,7.8976,8.4854,8.9022,8.7307,8.507,8.2796,0.0,0.0,0.0,0.0,0.0,0.0,0.0,0.0,0.0,0.0,0.0,0.0,0.0,0.0,0.0,0.0,0.0,0.0,0.0,0.0,0.0,0.0,0.0,7.3634,0.0,0.0,0.0,0.0,0.0,0.0,0.0,0.0,0.0,0.0,0.0,0.0,0.0,0.0,0.0,0.0,0.0,0.0,0.0,0.0,0.0,0.0,0.0,0.0,0.0,0.0,0.0,0.0,0.0,0.0,0.0,0.0,7.4441,7.4625,7.9323,8.4499,8.9234,9.3088,9.5621,9.6245,9.6392,9.7089,9.8704,9.9255,10.0576,10.2999,10.3696,10.4614,10.5568,10.6192,10.667,10.678,10.7183,10.7294,10.711,10.7807,10.8101,10.8101,10.8395,10.8285,10.8101,10.7294,10.6302,10.5275,10.3806,10.2485,10.098,9.6685,9.3969,9.2317,9.1657,9.1179,9.0702,0.0,0.0,0.0,0.0,0.0,0.0,0.0,0.0,0.0,0.0,6.2134,6.7547,7.3076,8.0473,8.6316,8.9537,8.7995,8.5493,8.2294,0.0,0.0,0.0,0.0,0.0,0.0,0.0,0.0,0.0,0.0,0.0,0.0,0.0,0.0,0.0,0.0,0.0,0.0,0.0,0.0,0.0,0.0,0.0,8.0577,7.5426,7.2386,7.0477,6.7283,6.6366,6.6292,6.4163,0.0,0.0,0.0,0.0,0.0,0.0,0.0,0.0,0.0,0.0,0.0,0.0,0.0,0.0,0.0,0.0,0.0,0.0,0.0,0.0,0.0,0.0,0.0,0.0,7.5726,7.9947,8.2994,8.604,8.9748,9.4556,9.7823,10.0283,10.1677,10.2008,10.2522,10.3476,10.388,10.4798,10.6596,10.7294,10.7918,10.8578,10.9569,10.9863,10.9312,10.9606,10.9496,10.8799,10.9092,10.9312,10.9312,10.9679,10.9606,0.0,10.8799,10.7991,10.678,10.5495,10.4284,0.0,0.0,0.0,0.0,0.0,9.3565,9.2758,0.0,0.0,0.0,0.0,0.0,0.0,0.0,0.0,0.0,0.0,0.0,6.7615,7.3098,8.0009,8.5636,8.8933,8.719,8.4412,0.0,0.0,0.0,0.0,0.0,0.0,0.0,0.0,0.0,0.0,0.0,0.0,0.0,0.0,0.0,0.0,0.0,0.0,0.0,0.0,0.0,0.0,0.0,0.0,8.8167,8.288,8.011,7.8479,7.4588,7.2312,7.0917,6.9119,0.0,0.0,0.0,0.0,0.0,0.0,0.0,0.0,0.0,0.0,0.0,0.0,0.0,0.0,0.0,0.0,0.0,0.0,0.0,0.0,0.0,0.0,0.0,0.0,8.0277,8.4646,9.1583,9.4263,9.6245,9.819,10.1788,10.4284,10.4394,10.5899,10.678,10.689,10.7697,10.8505,10.9312,0.0,0.0,0.0,0.0,11.2579,11.0377,11.1001,11.0597,10.9202,10.979,11.0083,11.0193,11.0891,11.0817,11.0083,11.001,10.9202,10.7771,10.689,10.5495,10.3696,10.0393,9.9108,9.8814,9.6502,9.5144,9.4446,0.0,0.0,0.0,0.0,0.0,0.0,0.0,0.0,0.0,5.8288,6.3228,6.8228,7.3149,8.0009,8.5813,8.9777,8.6584,8.2569,0.0,0.0,0.0,0.0,0.0,0.0,0.0,0.0,0.0,0.0,0.0,0.0,0.0,0.0,0.0,0.0,0.0,0.0,0.0,0.0,0.0,0.0,0.0,0.0,9.1846,8.874,8.5027,8.1158,7.8405,7.7635,7.7451,7.4515,7.3634,7.3266,7.0367,0.0,0.0,0.0,0.0,0.0,0.0,0.0,0.0,0.0,0.0,0.0,0.0,0.0,0.0,0.0,0.0,0.0,0.0,0.0,0.0,7.9543,8.56,9.1363,9.6061,10.0393,10.2705,10.1898,10.421,10.6413,10.7697,10.8688,10.9606,11.0193,11.1001,11.1808,11.2579,11.2983,0.0,11.2873,11.3387,11.3387,11.2873,11.2396,11.1992,11.1698,0.0,0.0,11.1001,11.1111,11.1111,11.0891,11.0304,10.979,10.9386,10.7991,10.6376,10.4504,10.0613,9.9108,9.8888,9.7126,9.5951,9.529,0.0,0.0,0.0,0.0,0.0,0.0,0.0,0.0,0.0,0.0,6.1911,6.6053,6.9724,7.497,7.9053,8.1157,7.9533,0.0,0.0,0.0,0.0,0.0,0.0,0.0,0.0,0.0,0.0,0.0,0.0,0.0,0.0,0.0,0.0,0.0,0.0,0.0,0.0,0.0,0.0,0.0,0.0,10.5094,10.0557,9.6476,9.2645,8.9085,8.6276,8.4978,8.4065,8.0393,7.8626,7.7451,7.4588,7.1762,6.9412,0.0,0.0,0.0,0.0,0.0,0.0,0.0,0.0,0.0,0.0,0.0,0.0,0.0,0.0,7.0587,0.0,0.0,8.0755,8.5673,9.0849,9.5804,10.0283,10.4394,10.6413,10.4687,10.711,10.9092,10.99,11.1074,11.2102,11.291,11.3387,11.3974,11.4782,11.4782,11.4782,11.4782,11.4782,11.4598,11.4194,11.3791,11.3387,11.2983,11.2579,11.2396,11.2396,11.1992,11.1808,11.1808,11.0891,11.0377,10.99,10.8688,10.7697,10.6706,10.388,10.2008,10.0723,9.9108,9.8007,9.7309,0.0,0.0,0.0,0.0,0.0,0.0,0.0,0.0,0.0,0.0,0.0,6.3277,6.5778,6.9385,7.1563,0.0,0.0,0.0,0.0,0.0,0.0,0.0,0.0,0.0,0.0,0.0,0.0,0.0,0.0,0.0,0.0,0.0,0.0,0.0,0.0,0.0,0.0,0.0,11.2406,11.2906,11.2214,11.1101,10.9201,10.4562,10.0822,9.7475,9.441,9.1858,8.9347,8.5942,8.2994,8.0388,7.8369,7.6423,7.4588,7.3156,7.2606,0.0,0.0,0.0,0.0,0.0,0.0,0.0,0.0,0.0,6.9596,7.1394,7.367,7.6019,7.8295,8.2333,8.6958,9.1987,9.5914,9.9879,10.421,10.7514,10.9092,10.7881,11.0083,11.1698,11.1698,11.3277,11.4488,11.5002,11.5589,11.6213,11.669,11.669,11.658,11.6507,11.6287,11.581,11.5002,11.5002,11.4598,11.3791,11.3791,11.3791,11.357,11.291,11.2506,11.2396,11.1515,11.0707,10.99,10.9312,10.8909,10.8688,10.7404,10.5495,10.3403,10.1494,10.0283,9.9548,0.0,0.0,0.0,0.0,0.0,0.0,0.0,0.0,0.0,0.0,0.0,0.0,0.0,0.0,0.0,0.0,0.0,0.0,0.0,0.0,0.0,0.0,0.0,0.0,0.0,0.0,0.0,0.0,0.0,0.0,0.0,0.0,0.0,11.4687,11.3888,11.3587,11.3703,11.367,11.3791,11.3791,11.3791,11.3093,11.2203,11.1621,10.7507,10.1906,9.927,9.5489,9.1397,9.026,8.7252,8.4022,8.3728,8.1562,7.8919,7.8038,0.0,7.2422,7.2055,6.9339,6.7063,6.8825,6.7871,6.7797,0.0,0.0,7.4771,7.7157,7.958,8.1782,8.3471,8.828,9.2941,9.5694,10.0686,10.5128,10.7881,11.0414,11.2212,11.2689,11.3093,11.3277,11.3277,11.5406,11.6507,11.5883,11.8599,11.9884,11.9187,11.9187,11.8893,11.8195,11.7425,11.669,11.5883,11.5883,11.5479,11.4708,11.4708,11.4305,11.357,11.3497,11.3093,11.2396,11.1515,11.0707,10.9973,10.99,10.9386,10.8799,10.8615,10.7881,10.667,10.3586,10.1898,10.109,0.0,0.0,0.0,0.0,0.0,0.0,0.0,0.0,0.0,0.0,0.0,0.0,0.0,0.0,0.0,0.0,0.0,0.0,0.0,0.0,0.0,0.0,0.0,0.0,0.0,0.0,0.0,0.0,0.0,11.5907,11.6715,11.5907,11.5907,11.6715,11.5792,11.5715,11.6215,11.6215,11.6215,11.6292,11.6792,11.6099,11.4907,11.4407,11.1022,10.5869,10.2033,9.8129,0.0,0.0,8.8793,8.7252,8.6297,8.4425,8.2443,8.1636,7.8516,0.0,7.2459,7.0917,0.0,0.0,7.1468,7.356,7.6387,7.8516,8.0534,8.2994,8.6187,8.9197,9.1253,9.5107,9.8924,0.0,10.5091,10.8101,11.0597,11.2983,11.4305,11.3681,11.4378,11.5002,11.5002,11.7204,11.8709,11.8783,12.0581,12.1609,12.1719,12.1279,12.0691,11.9884,11.9517,11.8709,11.7388,11.7902,11.7682,11.6911,11.6911,11.6507,11.5699,11.5185,11.4011,11.2396,11.1515,11.1001,11.0707,11.0707,11.0487,11.0193,10.9679,10.8982,10.7991,10.5678,10.399,10.2815,0.0,0.0,0.0,0.0,0.0,0.0,0.0,0.0,0.0,0.0,0.0,0.0,0.0,0.0,0.0,0.0,0.0,0.0,0.0,0.0,0.0,0.0,0.0,0.0,0.0,11.4599,11.5484,11.6292,11.6684,11.7299,11.81,11.7184,11.7299,11.81,11.7484,11.7715,11.8484,11.8292,11.8292,11.8523,11.8908,11.8215,11.6715,11.5407,11.189,10.7011,10.2601,9.8272,0.0,0.0,8.7655,8.6958,8.6261,8.538,8.4389,8.3361,8.0351,7.6607,7.323,0.0,0.0,7.3156,7.6093,7.947,8.1195,8.3911,8.6775,8.9197,9.2574,9.5768,9.797,10.12,0.0,10.7,10.9092,11.1111,11.3093,11.4892,11.5479,11.4084,11.5002,11.5699,11.5699,11.7902,11.959,12.0508,12.1903,12.3004,12.3591,12.3077,12.238,12.1609,12.1095,12.0214,11.8709,11.9297,11.9187,11.8416,11.8599,11.8306,11.7498,11.6507,11.4782,11.2689,11.1919,11.1405,11.1221,11.1221,11.1221,11.1111,11.0597,10.979,10.8982,10.7587,10.5899,10.421,0.0,0.0,0.0,0.0,0.0,0.0,0.0,0.0,0.0,0.0,0.0,0.0,0.0,0.0,0.0,0.0,0.0,0.0,0.0,0.0,0.0,0.0,11.0406,11.3791,11.6292,11.7215,11.81,11.8985,11.8112,11.8112,11.9023,11.8059,11.8189,11.91,11.8985,11.9485,12.0216,11.9408,11.9485,12.0216,11.9408,11.86,11.7484,11.4984,10.9988,10.3918,10.0495,0.0,0.0,0.0,8.3177,8.1525,8.303,8.4022,0.0,8.27,7.991,0.0,0.0,0.0,7.6754,7.991,8.1966,8.4242,8.8206,9.1033,9.3492,9.5914,9.8374,10.0613,10.2191,10.5789,10.8909,10.9679,11.2579,11.4892,11.5773,11.5993,11.5699,11.4892,11.4818,11.4818,0.0,11.7021,11.8783,11.959,12.26,12.4399,12.4509,12.4399,12.4105,12.3298,12.1719,12.0508,11.959,11.959,11.9187,11.8416,11.9187,11.9113,11.8306,11.669,11.5075,11.3497,11.2689,11.1919,11.1221,11.1221,11.1221,11.1221,11.1221,11.0707,10.99,10.9019,10.722,10.5018,0.0,0.0,0.0,0.0,0.0,0.0,0.0,0.0,0.0,0.0,0.0,0.0,0.0,0.0,0.0,0.0,0.0,0.0,0.0,0.0,9.3064,10.0212,10.779,11.2306,11.3138,11.6176,11.74,11.6365,11.7308,11.8087,11.8773,11.7989,11.8683,12.0583,12.0009,12.0581,12.1985,12.1716,12.1793,12.1985,12.11,11.9516,11.7309,11.3801,10.7597,9.9986,0.0,0.0,0.0,0.0,0.0,0.0,8.0057,0.0,8.0277,7.8626,7.8919,7.9653,0.0,0.0,8.3434,8.7215,8.9821,9.2354,9.5841,9.8117,9.9842,10.12,10.1714,10.2412,10.4027,10.5899,10.7991,11.0414,11.302,11.5479,11.7314,11.8489,11.7902,11.4378,11.5406,0.0,0.0,0.0,0.0,12.1095,12.2784,12.4179,12.5206,12.528,12.4876,12.4105,12.4105,12.3408,12.2086,12.26,12.2417,12.1609,12.0802,11.97,11.8306,11.669,11.5406,11.4305,11.2983,11.2212,11.1992,11.1405,11.1221,11.1221,11.1221,11.0707,10.9973,10.9679,10.8395,10.6596,0.0,0.0,0.0,0.0,0.0,0.0,0.0,0.0,0.0,0.0,0.0,0.0,0.0,0.0,0.0,0.0,0.0,0.0,0.0,0.0,8.6583,9.4216,10.0589,10.4828,10.649,10.8997,11.0309,11.0379,11.1726,11.3518,11.5684,11.5716,11.7005,11.9177,11.8911,11.9822,12.1386,12.0774,12.0162,11.9604,11.782,11.5108,11.1519,10.712,10.0685,0.0,0.0,0.0,0.0,0.0,0.0,0.0,0.0,7.7231,7.7598,7.7121,7.9507,8.259,8.4058,8.6995,9.0592,9.4336,9.7126,9.9548,10.1898,10.3696,10.4908,10.5201,10.432,10.3806,10.4504,10.4687,10.5789,10.9312,11.1478,11.4011,11.7902,11.8599,11.7792,11.5185,11.5699,11.5296,0.0,0.0,0.0,12.0104,12.1903,12.3408,12.4803,12.539,12.5463,12.4913,12.517,12.4803,12.3701,12.3995,12.3812,12.3298,12.2013,12.0508,11.8783,11.7498,11.6103,11.4708,11.3717,11.3093,11.28,11.1992,11.1588,11.1588,11.1295,11.0891,11.0377,11.0083,10.9276,10.8285,0.0,0.0,0.0,0.0,0.0,0.0,0.0,0.0,0.0,0.0,0.0,0.0,0.0,0.0,0.0,0.0,0.0,0.0,0.0,0.0,0.0,8.8035,8.9603,9.2508,9.7318,9.6898,9.8258,10.1599,10.2305,10.4976,10.9711,11.1168,11.2775,11.4544,11.5269,11.6477,11.8092,11.6394,11.4836,11.3201,10.9937,10.5702,10.0993,9.6036,0.0,0.0,0.0,0.0,0.0,0.0,0.0,0.0,0.0,7.5028,7.6717,7.8516,8.1856,8.5857,8.9968,9.4042,9.7933,10.12,10.3806,10.5715,10.6596,10.7918,10.8688,10.7771,10.6119,10.4614,0.0,0.0,10.2815,10.678,10.8395,11.1405,11.7792,11.669,11.581,0.0,0.0,0.0,0.0,0.0,0.0,11.7204,0.0,12.238,12.3408,12.4876,12.5684,12.5794,12.4986,12.4582,12.4582,12.3812,12.3408,12.3408,12.249,12.1279,11.959,11.8783,11.7204,11.4892,11.4892,11.4415,11.357,11.28,11.2396,11.2286,11.1588,11.1221,11.1111,11.0304,10.9973,10.979,0.0,0.0,0.0,0.0,0.0,0.0,0.0,0.0,0.0,0.0,0.0,0.0,0.0,0.0,0.0,0.0,0.0,0.0,0.0,0.0,0.0,0.0,0.0,0.0,0.0,0.0,0.0,0.0,0.0,9.9358,10.113,10.1532,10.2575,10.4301,10.4526,10.5897,10.8016,10.6994,10.6274,10.5727,0.0,10.0122,9.6779,0.0,0.0,0.0,0.0,0.0,0.0,0.0,0.0,0.0,0.0,7.7928,8.0424,8.3875,8.7325,9.1179,9.6392,10.0319,10.4027,10.8505,11.0083,11.0891,11.2322,11.1992,11.0707,10.8101,10.4394,10.0503,0.0,0.0,0.0,10.5201,11.0487,0.0,12.2086,12.2417,0.0,0.0,0.0,11.9297,11.6801,11.7682,0.0,0.0,11.9774,12.1683,12.4876,12.55,12.5977,12.6601,12.5794,12.539,12.539,12.517,12.4803,12.4179,12.3408,12.2123,12.0508,11.97,11.8306,11.6617,11.5993,11.5185,11.4415,11.3607,11.291,11.2396,11.2212,11.1698,11.1221,11.1001,11.0487,10.99,0.0,0.0,0.0,0.0,0.0,0.0,0.0,0.0,0.0,0.0,0.0,0.0,0.0,0.0,0.0,0.0,0.0,0.0,0.0,0.0,0.0,0.0,0.0,0.0,0.0,0.0,0.0,0.0,0.0,0.0,9.1546,9.2611,9.4042,9.5675,9.6046,9.739,9.9402,9.8541,0.0,0.0,0.0,0.0,0.0,0.0,0.0,0.0,0.0,0.0,0.0,0.0,0.0,7.8148,8.0755,8.3251,8.6004,9.0078,0.0,9.7713,10.2705,10.6413,10.9716,11.3607,11.4488,11.4305,11.3424,11.2506,11.0304,10.4504,10.0283,0.0,0.0,0.0,0.0,0.0,0.0,0.0,12.3408,12.3885,12.3481,0.0,12.3591,0.0,12.0104,12.0691,12.1205,0.0,12.1205,12.2196,12.4509,12.528,12.5904,12.6381,12.5904,12.5684,12.5684,12.5684,12.5463,12.4986,12.4215,12.3004,12.1389,12.0581,11.9297,11.7718,0.0,11.6287,11.581,11.4598,11.3681,11.2873,11.2506,11.1919,11.1221,11.1221,11.0891,11.0414,0.0,0.0,0.0,0.0,0.0,0.0,0.0,0.0,0.0,0.0,0.0,0.0,0.0,0.0,0.0,0.0,0.0,0.0,0.0,0.0,0.0,0.0,0.0,0.0,0.0,0.0,0.0,0.0,0.0,0.0,0.0,0.0,0.0,0.0,0.0,0.0,0.0,0.0,0.0,0.0,0.0,0.0,0.0,0.0,0.0,0.0,0.0,0.0,0.0,0.0,8.0718,8.1929,8.6775,9.0041,9.2868,9.7089,10.0907,10.4614,10.8799,11.1992,11.4782,11.7204,11.7608,11.6323,11.2396,11.0891,10.7807,9.9181,0.0,9.2134,8.828,8.9821,9.3932,10.0686,0.0,11.3791,12.3591,12.3775,12.3995,12.7005,12.6675,12.561,12.4215,12.3995,12.3922,12.3812,12.3812,12.3812,12.3812,12.5096,12.5867,12.5867,12.5867,12.5794,12.5684,12.5684,12.5684,12.5684,12.4876,12.3775,12.238,12.1609,12.0288,11.8709,11.7902,0.0,11.7094,11.5589,11.4488,11.3681,11.2873,11.2102,11.1295,11.1221,11.1221,11.1111,0.0,0.0,0.0,0.0,0.0,0.0,0.0,0.0,0.0,0.0,5.4106,5.4266,0.0,0.0,0.0,0.0,0.0,0.0,0.0,0.0,0.0,0.0,0.0,0.0,0.0,0.0,0.0,0.0,0.0,0.0,0.0,0.0,0.0,0.0,0.0,0.0,0.0,0.0,0.0,0.0,0.0,0.0,0.0,0.0,0.0,0.0,0.0,0.0,0.0,0.0,8.5563,8.861,9.3492,9.7126,10.0503,10.5311,10.7697,10.979,11.4488,11.6617,11.8195,12.0581,11.97,11.7314,11.3901,10.8982,0.0,0.0,0.0,8.7435,8.4756,8.7876,0.0,10.2081,0.0,0.0,0.0,0.0,12.7776,0.0,0.0,0.0,0.0,0.0,0.0,0.0,0.0,12.6308,12.6308,12.6491,12.6711,12.6711,12.6711,12.6381,12.5684,12.5684,12.5684,12.5684,12.4876,12.4399,12.4105,12.3298,12.2013,12.0398,11.959,0.0,11.7131,11.6213,11.5296,11.4488,11.3681,11.291,11.2102,11.1405,11.1221,11.1111,0.0,0.0,0.0,0.0,0.0,0.0,0.0,0.0,5.3886,5.6593,5.6599,5.6609,5.7327,5.7094,0.0,0.0,0.0,0.0,0.0,0.0,0.0,0.0,0.0,0.0,0.0,0.0,0.0,0.0,0.0,0.0,0.0,0.0,0.0,0.0,0.0,0.0,0.0,0.0,0.0,0.0,0.0,0.0,0.0,0.0,0.0,0.0,0.0,0.0,0.0,0.0,8.6701,9.4264,10.0462,10.4292,10.7342,11.2031,11.3844,11.5075,11.8306,12.0288,12.1903,12.3077,12.1205,11.7498,11.1772,0.0,0.0,0.0,8.6114,8.3141,8.0681,0.0,0.0,0.0,0.0,0.0,0.0,0.0,0.0,0.0,0.0,0.0,0.0,0.0,0.0,0.0,0.0,12.6895,12.6895,12.7299,12.7299,12.6895,12.6895,12.6491,12.5684,12.5684,12.5684,12.5684,12.528,12.4876,12.4509,12.4105,12.3298,12.2086,12.0802,0.0,11.8379,11.7094,11.592,11.4782,11.4378,11.3497,11.2396,11.1992,11.1588,11.1111,0.0,0.0,0.0,0.0,0.0,0.0,0.0,5.2881,5.5202,5.8473,5.9517,5.9758,5.9098,5.8584,5.818,0.0,0.0,0.0,0.0,0.0,0.0,0.0,0.0,0.0,0.0,0.0,0.0,0.0,0.0,0.0,0.0,0.0,0.0,0.0,0.0,0.0,0.0,0.0,0.0,0.0,0.0,0.0,0.0,0.0,0.0,0.0,0.0,0.0,0.0,0.0,8.5637,9.5442,10.3015,10.8316,11.2389,11.5624,11.7935,11.9597,12.1228,12.3456,12.5305,12.5122,12.2196,11.7278,10.9386,10.2485,0.0,0.0,8.1562,7.9543,7.8112,0.0,0.0,0.0,0.0,0.0,0.0,0.0,0.0,0.0,0.0,0.0,0.0,0.0,0.0,0.0,0.0,0.0,12.7189,12.8106,12.8216,12.7409,12.7225,12.6785,12.5977,12.5794,12.5684,12.5684,12.5684,12.539,12.4803,12.4803,12.4215,12.3224,12.1793,0.0,0.0,11.7792,11.6397,11.5002,11.4892,11.3901,11.2616,11.2506,11.1919,11.1221,0.0,0.0,0.0,0.0,0.0,0.0,0.0,5.4185,5.7065,6.082,6.1972,6.2438,6.2365,6.0419,5.8804,0.0,0.0,0.0,0.0,0.0,0.0,0.0,0.0,0.0,0.0,0.0,0.0,0.0,0.0,0.0,0.0,0.0,0.0,0.0,0.0,0.0,0.0,0.0,0.0,0.0,0.0,0.0,0.0,0.0,0.0,0.0,0.0,0.0,0.0,0.0,0.0,8.7127,9.5306,10.5019,11.346,11.3823,0.0,0.0,12.3832,12.6077,12.7909,12.69,12.26,11.6617,10.9312,0.0,0.0,8.4829,7.9764,7.7157,7.9176,0.0,0.0,0.0,0.0,10.3109,0.0,0.0,0.0,0.0,0.0,0.0,0.0,0.0,0.0,0.0,0.0,0.0,12.7996,12.9391,12.9905,12.9097,12.84,12.7592,12.6785,12.6087,12.5684,12.5684,12.5684,12.5684,12.5573,12.5573,12.4803,12.3298,12.238,0.0,0.0,11.7608,11.669,11.581,11.5112,11.4305,11.3387,11.2689,11.1919,11.1221,0.0,0.0,0.0,0.0,0.0,0.0,0.0,5.4456,5.6866,6.1715,6.3064,6.3943,6.4934,6.2842,6.0456,0.0,0.0,0.0,0.0,0.0,0.0,0.0,0.0,0.0,0.0,0.0,0.0,0.0,0.0,0.0,0.0,0.0,0.0,0.0,0.0,0.0,0.0,0.0,0.0,0.0,0.0,0.0,0.0,0.0,0.0,0.0,0.0,0.0,0.0,0.0,0.0,0.0,8.5983,9.4005,0.0,0.0,11.6066,12.1123,12.5145,12.8743,13.1082,12.9693,12.3764,11.6397,10.8615,0.0,8.9784,8.3287,7.8846,7.657,7.8038,7.8295,8.0645,0.0,0.0,0.0,10.6523,0.0,0.0,0.0,0.0,0.0,0.0,0.0,0.0,0.0,0.0,0.0,12.8804,12.9905,13.0125,12.9318,12.851,12.7702,12.6895,12.6087,12.5684,12.5684,12.5684,12.5684,12.5684,12.517,12.4582,12.3995,12.2674,0.0,0.0,11.8489,11.7425,11.6617,11.581,11.5002,11.4305,11.4011,11.3313,11.2579,0.0,0.0,0.0,0.0,0.0,5.1422,5.4058,5.5004,5.7084,6.1788,6.3195,6.4347,6.5962,6.3723,6.119,5.8914,0.0,0.0,0.0,0.0,0.0,0.0,0.0,0.0,0.0,0.0,0.0,0.0,0.0,0.0,0.0,0.0,0.0,0.0,0.0,0.0,0.0,0.0,0.0,0.0,0.0,0.0,0.0,0.0,0.0,0.0,0.0,0.0,0.0,0.0,0.0,0.0,0.0,0.0,0.0,0.0,11.2319,11.8774,12.3724,12.8722,13.2199,13.0547,12.4025,11.5993,0.0,0.0,8.883,8.2627,7.8552,7.6276,7.6864,7.6974,7.8405,8.281,8.4315,8.8757,9.9622,10.3623,0.0,0.0,0.0,0.0,0.0,0.0,0.0,0.0,0.0,0.0,0.0,12.9795,13.0015,12.9721,12.8914,12.8106,12.7299,12.6491,12.5904,12.5684,12.5684,12.5684,12.5684,12.4876,12.4399,12.4105,12.2674,0.0,0.0,11.9187,11.8122,11.7131,11.6617,11.5699,11.4818,11.4818,11.4305,11.3497,0.0,0.0,0.0,0.0,0.0,0.0,0.0,5.5916,5.805,6.1202,6.2328,6.3466,6.5154,6.2401,6.0419,6.0382,0.0,0.0,0.0,0.0,0.0,0.0,0.0,0.0,0.0,0.0,0.0,0.0,0.0,0.0,0.0,0.0,0.0,0.0,0.0,0.0,0.0,0.0,0.0,0.0,0.0,0.0,7.1321,0.0,0.0,0.0,0.0,0.0,0.0,0.0,0.0,0.0,0.0,0.0,0.0,0.0,10.6205,11.5936,11.8861,12.5172,13.0491,12.8619,12.26,11.5296,0.0,0.0,8.9014,8.3361,7.8919,7.6093,7.6093,7.613,7.7194,8.0498,8.3691,8.9197,9.8924,0.0,0.0,0.0,0.0,0.0,0.0,0.0,0.0,0.0,0.0,0.0,0.0,12.9318,12.9721,13.0492,12.9721,12.8914,12.8106,12.7299,12.6491,12.5684,12.5684,12.5684,12.5684,12.4876,12.4105,0.0,0.0,0.0,0.0,11.959,11.8599,11.7204,11.7204,11.6213,11.4818,11.4818,11.4305,11.357,0.0,0.0,0.0,0.0,0.0,0.0,0.0,5.5777,5.7289,6.0359,6.1006,6.1998,6.4237,6.2034,6.0419,6.0419,0.0,0.0,0.0,0.0,0.0,0.0,0.0,0.0,0.0,0.0,0.0,0.0,0.0,0.0,0.0,0.0,0.0,0.0,0.0,0.0,0.0,0.0,0.0,0.0,0.0,7.2826,7.2202,0.0,0.0,0.0,0.0,0.0,0.0,0.0,0.0,0.0,0.0,0.0,0.0,8.4389,9.4938,10.538,10.9674,11.5452,11.9594,11.7404,11.2797,10.722,10.0429,0.0,8.6554,8.0901,7.7781,7.6093,7.6093,7.6093,7.7708,8.2663,8.5233,8.8867,0.0,0.0,0.0,0.0,0.0,0.0,0.0,0.0,0.0,0.0,0.0,0.0,0.0,12.9905,12.9428,12.9721,12.84,12.7519,12.7299,12.6491,12.5977,12.5684,12.5684,12.5684,12.5684,12.4289,12.3518,0.0,0.0,0.0,0.0,11.9811,11.9003,11.8012,11.7425,11.6617,11.5589,11.5589,11.5479,11.5075,0.0,0.0,0.0,0.0,0.0,0.0,0.0,5.5842,5.6624,5.9161,5.9245,6.0089,6.2842,6.097,5.9758,6.0346,0.0,0.0,0.0,0.0,0.0,0.0,0.0,0.0,0.0,0.0,0.0,0.0,0.0,0.0,0.0,0.0,0.0,0.0,0.0,0.0,0.0,0.0,0.0,0.0,7.323,7.323,7.2569,0.0,0.0,0.0,0.0,0.0,0.0,0.0,0.0,0.0,0.0,0.0,0.0,0.0,8.5049,9.3379,0.0,10.7328,11.1335,11.0704,10.6925,0.0,0.0,0.0,0.0,0.0,7.7047,7.5652,7.5652,7.5909,7.7378,8.1232,8.3985,8.7362,0.0,0.0,0.0,0.0,0.0,0.0,0.0,0.0,0.0,0.0,0.0,0.0,0.0,12.9905,12.8804,12.8804,12.7886,12.7189,12.6895,12.6381,12.5977,12.5684,12.5684,12.5684,12.5684,12.4289,12.3591,0.0,0.0,0.0,0.0,12.0581,11.97,11.8379,11.7828,11.6984,11.5993,11.5993,11.5993,11.5883,0.0,0.0,0.0,0.0,0.0,0.0,0.0,0.0,5.6198,5.7703,5.7262,5.796,6.0933,5.9318,5.8584,6.0089,0.0,0.0,0.0,0.0,0.0,0.0,0.0,0.0,0.0,0.0,0.0,0.0,6.6953,6.8641,7.0293,0.0,0.0,0.0,0.0,0.0,0.0,0.0,0.0,0.0,7.2973,7.3156,0.0,0.0,0.0,0.0,0.0,0.0,0.0,0.0,0.0,0.0,0.0,0.0,0.0,0.0,0.0,0.0,0.0,9.9952,10.421,10.6413,10.2999,0.0,0.0,0.0,0.0,0.0,0.0,7.4955,7.5065,7.5652,7.646,7.7561,8.1085,8.5306,0.0,0.0,0.0,0.0,0.0,0.0,0.0,0.0,0.0,0.0,0.0,0.0,0.0,12.9391,12.8106,12.8106,12.7996,12.7592,12.6822,12.6785,12.6418,12.5684,12.5684,12.5684,12.5684,12.4803,12.3995,0.0,0.0,0.0,0.0,12.1866,12.0802,11.8599,11.8489,11.7498,11.6103,11.5993,11.5993,11.5993,0.0,0.0,0.0,0.0,0.0,0.0,0.0,0.0,0.0,0.0,5.6932,5.7079,5.785,5.796,5.8143,0.0,0.0,0.0,0.0,0.0,0.0,0.0,0.0,0.0,0.0,0.0,0.0,6.5301,6.754,6.9779,7.1945,7.2936,0.0,0.0,0.0,0.0,0.0,0.0,0.0,0.0,7.2386,7.2679,0.0,0.0,0.0,0.0,7.2496,7.2496,0.0,0.0,0.0,0.0,0.0,0.0,0.0,0.0,7.4551,7.5909,8.0828,0.0,8.9271,8.861,8.8353,8.7435,0.0,0.0,0.0,0.0,0.0,7.5285,7.6533,7.6387,7.7378,8.1342,8.4315,8.7435,0.0,0.0,0.0,0.0,0.0,0.0,0.0,0.0,0.0,0.0,0.0,0.0,0.0,12.9685,12.8106,12.8106,12.6895,12.6197,12.5977,12.5977,12.5904,12.5684,12.5684,12.5684,12.5684,12.4215,12.3518,0.0,0.0,0.0,12.1903,12.271,12.1903,12.0214,11.959,11.8306,11.6801,11.6213,11.5993,11.5883,0.0,0.0,0.0,0.0,0.0,0.0,0.0,0.0,0.0,0.0,0.0,0.0,0.0,0.0,0.0,0.0,0.0,0.0,0.0,0.0,0.0,0.0,0.0,0.0,0.0,0.0,0.0,0.0,0.0,7.1064,0.0,0.0,0.0,0.0,0.0,0.0,0.0,0.0,0.0,7.0844,7.1651,0.0,0.0,0.0,0.0,0.0,7.2386,7.2496,0.0,7.2496,7.2753,7.2973,0.0,0.0,0.0,0.0,7.2899,7.2973,7.4661,7.8662,8.2443,8.27,8.2847,8.248,0.0,0.0,0.0,0.0,0.0,0.0,7.5359,0.0,0.0,8.1636,8.4315,8.872,0.0,0.0,0.0,0.0,0.0,0.0,0.0,0.0,0.0,0.0,0.0,0.0,0.0,13.0015,12.851,12.8106,12.6895,12.6087,12.5684,12.5684,12.5684,12.5684,12.5684,12.5684,12.5684,12.4399,12.3628,0.0,0.0,0.0,12.2196,12.3004,12.238,12.0875,12.0398,11.9003,11.7131,11.669,11.6103,11.5406,0.0,0.0,0.0,0.0,0.0,0.0,0.0,0.0,0.0,0.0,0.0,0.0,0.0,0.0,0.0,0.0,0.0,0.0,0.0,0.0,0.0,0.0,0.0,0.0,0.0,0.0,0.0,0.0,0.0,0.0,0.0,0.0,0.0,0.0,0.0,0.0,0.0,0.0,0.0,6.9963,7.066,0.0,0.0,0.0,0.0,0.0,0.0,0.0,0.0,7.2496,7.2936,7.3377,7.2716,0.0,0.0,0.0,0.0,0.0,7.2569,7.6056,7.9863,8.1617,8.124,8.0357,0.0,0.0,0.0,0.0,0.0,0.0,0.0,0.0,0.0,0.0,0.0,0.0,0.0,0.0,0.0,0.0,0.0,0.0,0.0,0.0,0.0,0.0,0.0,0.0,0.0,13.0088,12.8804,12.8106,12.7189,12.6381,12.5684,12.5684,12.5684,12.5684,12.5573,12.5573,12.5684,12.4582,12.3812,12.3114,0.0,0.0,12.1976,12.2894,12.2417,12.1095,12.0912,11.948,11.7425,11.7204,11.6287,11.5002,0.0,0.0,0.0,0.0,0.0,0.0,0.0,0.0,0.0,0.0,0.0,0.0,0.0,0.0,0.0,0.0,0.0,0.0,0.0,0.0,0.0,0.0,0.0,0.0,0.0,0.0,0.0,0.0,0.0,0.0,7.7194,8.0241,7.9103,0.0,0.0,0.0,0.0,0.0,0.0,6.9082,6.9229,0.0,0.0,0.0,0.0,0.0,0.0,0.0,0.0,7.2496,7.2569,7.2679,7.2532,0.0,0.0,0.0,0.0,0.0,7.3964,7.6093,7.7389,7.6217,7.679,7.7273,0.0,0.0,0.0,0.0,0.0,0.0,0.0,0.0,0.0,0.0,0.0,0.0,0.0,0.0,0.0,0.0,0.0,0.0,0.0,0.0,0.0,0.0,0.0,0.0,0.0,12.9905,12.818,12.8106,12.6675,12.5794,12.5684,12.5684,12.5684,12.5684,12.4986,12.4986,12.5573,12.3481,12.238,12.2307,0.0,12.1793,12.1205,12.271,12.2784,12.1793,12.1205,11.9811,11.8122,11.7498,11.6617,11.5699,0.0,0.0,0.0,0.0,0.0,0.0,0.0,0.0,0.0,0.0,0.0,0.0,0.0,0.0,0.0,0.0,0.0,0.0,0.0,0.0,0.0,0.0,0.0,0.0,0.0,0.0,0.0,0.0,0.0,7.613,7.9286,7.9029,7.7708,7.5359,0.0,0.0,0.0,0.0,0.0,6.9522,0.0,0.0,0.0,0.0,0.0,0.0,0.0,0.0,0.0,0.0,7.2496,7.2422,7.1982,0.0,0.0,0.0,0.0,0.0,7.1358,7.2826,7.4139,7.4487,7.7191,0.0,0.0,0.0,0.0,0.0,0.0,0.0,0.0,0.0,0.0,0.0,0.0,0.0,0.0,0.0,0.0,0.0,0.0,0.0,0.0,0.0,0.0,0.0,0.0,0.0,0.0,0.0,12.829,12.7482,12.6711,12.6087,12.5684,12.5684,12.55,12.4986,12.4693,12.4509,12.4399,12.2784,12.1866,12.1389,0.0,12.0802,12.0912,12.1205,12.1389,12.1389,12.0508,11.9187,11.7608,11.6397,11.5406,11.4708,0.0,0.0,0.0,0.0,0.0,0.0,0.0,0.0,0.0,0.0,0.0,0.0,0.0,0.0,0.0,0.0,0.0,0.0,0.0,0.0,0.0,0.0,0.0,0.0,0.0,0.0,6.3548,6.8105,7.395,7.8986,8.2884,7.9433,7.7304,0.0,0.0,0.0,0.0,0.0,0.0,6.9779,0.0,0.0,0.0,0.0,0.0,0.0,0.0,0.0,0.0,0.0,0.0,0.0,0.0,0.0,0.0,7.0624,6.9816,6.9265,6.9633,7.0807,7.2299,0.0,0.0,0.0,0.0,0.0,0.0,0.0,0.0,0.0,0.0,0.0,0.0,0.0,0.0,0.0,0.0,0.0,0.0,0.0,0.0,0.0,0.0,0.0,0.0,0.0,0.0,0.0,0.0,0.0,12.84,12.6895,12.6711,12.6308,12.5684,12.5684,12.528,12.4509,12.4289,12.3812,12.3004,12.1976,12.1095,12.0288,11.959,11.959,11.9994,11.948,11.97,12.0214,11.959,11.8306,11.6727,11.5296,11.4305,11.3681,0.0,0.0,0.0,0.0,0.0,0.0,0.0,0.0,0.0,0.0,0.0,0.0,0.0,0.0,0.0,0.0,0.0,0.0,0.0,0.0,0.0,0.0,0.0,0.0,0.0,6.2827,6.6491,7.2793,7.7056,8.2465,8.872,8.4756,8.0865,7.7011,0.0,0.0,0.0,0.0,0.0,6.9045,6.9743,0.0,0.0,0.0,0.0,0.0,0.0,0.0,0.0,0.0,0.0,0.0,0.0,0.0,7.2275,7.1468,7.066,7.033,7.1835,7.2863,0.0,0.0,0.0,0.0,0.0,0.0,0.0,0.0,0.0,0.0,0.0,0.0,0.0,0.0,0.0,0.0,0.0,0.0,0.0,0.0,0.0,0.0,0.0,0.0,0.0,0.0,0.0,0.0,0.0,0.0,12.7813,12.6895,12.6197,12.5794,12.5684,12.5684,12.528,12.4509,12.3701,12.3004,12.2086,12.0508,11.9297,11.8599,11.8489,11.8122,11.7498,11.8195,11.8489,11.8599,11.8489,11.7498,11.5993,11.5112,11.4305,11.3791,0.0,0.0,0.0,0.0,0.0,0.0,0.0,0.0,0.0,0.0,0.0,0.0,0.0,0.0,0.0,0.0,0.0,0.0,0.0,0.0,0.0,0.0,0.0,6.0081,6.2336,6.6732,7.165,7.6985,8.3301,8.7375,8.9307,8.3765,0.0,0.0,0.0,0.0,0.0,0.0,0.0,6.9706,7.0513,7.1321,0.0,0.0,0.0,0.0,0.0,0.0,0.0,0.0,7.2496,7.2422,7.1908,7.1762,7.1615,7.0807,7.0,6.9486,7.011,7.1945,0.0,0.0,0.0,0.0,0.0,0.0,0.0,0.0,0.0,0.0,0.0,0.0,0.0,0.0,0.0,0.0,0.0,0.0,0.0,0.0,0.0,0.0,0.0,0.0,0.0,0.0,0.0,0.0,0.0,12.9097,12.7482,12.6197,12.5867,12.5684,12.5684,12.5684,12.528,12.4509,12.3701,12.2307,12.0508,11.9884,11.8893,11.7718,11.7718,11.7498,11.7204,11.6984,11.7204,11.7608,11.6617,11.5479,11.4488,11.4194,11.3497,11.3093,0.0,0.0,0.0,0.0,0.0,0.0,0.0,0.0,0.0,0.0,0.0,0.0,0.0,0.0,0.0,0.0,0.0,0.0,0.0,0.0,0.0,0.0,0.0,6.1078,6.3484,7.0097,7.5403,7.923,8.741,9.0592,8.8904,0.0,0.0,0.0,0.0,0.0,0.0,0.0,0.0,0.0,0.0,7.2018,0.0,0.0,0.0,0.0,0.0,0.0,0.0,0.0,7.2496,7.2422,7.1872,7.1688,7.1541,7.0697,7.011,6.9486,6.8715,7.0697,7.2936,7.301,0.0,0.0,0.0,0.0,0.0,0.0,0.0,0.0,0.0,0.0,0.0,0.0,0.0,0.0,0.0,0.0,0.0,0.0,0.0,0.0,0.0,0.0,0.0,0.0,0.0,0.0,0.0,12.8804,12.7372,12.5794,12.5684,12.5684,12.5684,12.539,12.4876,12.4105,12.3298,12.1793,11.959,11.9297,11.8306,11.6801,11.6801,11.6801,11.6801,11.6213,11.6213,11.6323,11.4708,11.3681,11.3203,11.3203,11.2873,11.2579,0.0,0.0,0.0,0.0,0.0,0.0,0.0,0.0,0.0,0.0,0.0,0.0,0.0,0.0,0.0,0.0,0.0,0.0,0.0,0.0,0.0,0.0,0.0,6.1263,6.5858,7.243,7.7056,7.9458,8.8613,9.1363,8.8059,8.4058,0.0,0.0,0.0,0.0,0.0,0.0,0.0,0.0,0.0,7.2496,0.0,0.0,0.0,0.0,0.0,0.0,0.0,0.0,7.2496,7.2496,7.2496,7.2496,7.2349,7.1541,7.1321,7.0807,6.8348,6.9486,7.0954,0.0,0.0,0.0,0.0,0.0,0.0,0.0,0.0,0.0,0.0,0.0,0.0,0.0,0.0,0.0,0.0,0.0,0.0,0.0,0.0,0.0,0.0,0.0,0.0,0.0,0.0,0.0,0.0,12.851,12.7372,12.5794,12.5684,12.5684,12.5684,12.4876,12.4105,12.3298,12.249,12.1205,11.959,11.8783,11.7498,11.5993,11.5993,11.5993,11.5993,11.5993,11.5516,11.4598,11.2983,11.2396,11.2396,11.2396,11.2396,11.2506,0.0,0.0,0.0,0.0,0.0,0.0,0.0,0.0,0.0,0.0,0.0,0.0,0.0,0.0,0.0,0.0,0.0,0.0,0.0,0.0,0.0,0.0,0.0,0.0,0.0,0.0,7.6886,8.5555,8.8324,8.7692,0.0,0.0,0.0,7.4757,0.0,0.0,0.0,0.0,0.0,0.0,7.1248,7.1982,0.0,0.0,0.0,0.0,0.0,0.0,0.0,0.0,0.0,0.0,7.1835,7.2826,7.3707,7.1211,7.1248,7.1615,6.9192,0.0,0.0,0.0,0.0,0.0,0.0,0.0,0.0,0.0,0.0,0.0,0.0,0.0,0.0,0.0,0.0,0.0,0.0,0.0,0.0,0.0,0.0,0.0,0.0,0.0,0.0,0.0,0.0,0.0,0.0,12.851,12.7372,12.5794,12.517,12.4876,12.4876,12.3481,12.2674,12.238,12.1609,12.0691,11.959,11.8783,11.7792,11.6801,11.6213,11.5993,11.5993,11.5406,11.4708,11.3901,11.28,11.2102,11.1588,11.1588,11.1588,11.1698,0.0,0.0,0.0,0.0,0.0,0.0,0.0,0.0,0.0,0.0,0.0,0.0,0.0,0.0,0.0,0.0,0.0,0.0,0.0,0.0,0.0,0.0,0.0,0.0,0.0,6.8895,7.5406,0.0,0.0,0.0,0.0,0.0,0.0,7.6667,0.0,7.5643,0.0,0.0,7.1976,7.066,7.1468,7.2092,7.2496,0.0,0.0,0.0,0.0,0.0,0.0,0.0,0.0,0.0,7.1578,7.2312,7.312,7.1138,7.1027,7.1358,7.055,0.0,0.0,0.0,0.0,0.0,0.0,0.0,0.0,0.0,0.0,0.0,0.0,0.0,0.0,0.0,0.0,0.0,0.0,0.0,0.0,0.0,0.0,0.0,0.0,0.0,0.0,0.0,0.0,0.0,0.0,12.818,12.7372,12.5794,12.4876,12.4289,12.3995,12.238,12.1389,12.1095,12.0288,11.959,11.9113,11.8599,11.7792,11.669,11.6213,11.5993,11.5883,11.4782,11.4011,11.3497,11.2396,11.1588,11.1221,11.1221,11.1221,11.1295,0.0,0.0,0.0,0.0,0.0,0.0,0.0,0.0,0.0,0.0,0.0,0.0,0.0,0.0,0.0,0.0,0.0,0.0,0.0,0.0,5.8327,5.9061,5.9538,6.2254,6.7577,7.1211,7.2679,7.1945,0.0,0.0,0.0,0.0,8.1636,8.1048,0.0,8.04,0.0,7.5493,7.368,7.1248,7.1982,7.2349,7.2386,7.2386,0.0,0.0,0.0,0.0,0.0,0.0,0.0,0.0,7.1578,7.1431,7.1468,7.1174,7.077,7.0734,0.0,0.0,0.0,0.0,0.0,0.0,0.0,0.0,0.0,0.0,0.0,0.0,0.0,0.0,0.0,0.0,0.0,0.0,0.0,0.0,0.0,0.0,0.0,0.0,0.0,0.0,0.0,0.0,0.0,0.0,0.0,12.7592,12.7299,12.5573,12.4803,12.3995,12.3114,12.1499,12.0214,11.937,11.8599,11.8306,11.8195,11.8306,11.7498,11.5993,11.5993,11.5993,11.5883,11.4305,11.3681,11.357,11.1992,11.1405,11.1295,11.1295,11.1295,11.1221,0.0,0.0,0.0,0.0,0.0,0.0,0.0,0.0,0.0,0.0,0.0,0.0,0.0,0.0,0.0,0.0,0.0,0.0,0.0,0.0,5.807,5.8253,6.1961,6.5154,6.765,6.7907,6.7944,6.7797,7.1541,0.0,0.0,0.0,0.0,8.1012,0.0,7.9808,7.5896,7.2541,7.0805,7.0367,7.055,7.0991,7.1578,7.1578,7.1064,0.0,0.0,0.0,0.0,0.0,0.0,0.0,7.1578,7.2165,7.2679,7.0183,7.1101,0.0,0.0,0.0,0.0,0.0,0.0,0.0,0.0,0.0,0.0,0.0,0.0,0.0,0.0,0.0,0.0,0.0,0.0,0.0,0.0,0.0,0.0,0.0,0.0,0.0,0.0,0.0,0.0,0.0,0.0,0.0,12.7005,12.7078,12.6418,12.4803,12.3995,12.2894,12.1389,11.9811,11.8489,11.7718,11.7498,11.7094,11.6507,11.7204,11.6911,11.5993,11.5993,11.5993,11.5883,11.4892,11.4488,11.4415,11.3497,11.2689,11.2102,11.2102,11.1698,11.1221,0.0,0.0,0.0,0.0,0.0,0.0,0.0,0.0,0.0,0.0,0.0,0.0,0.0,0.0,0.0,0.0,0.0,0.0,0.0,0.0,0.0,5.9134,6.3099,6.5154,6.4787,6.5154,6.4751,6.3576,0.0,0.0,0.0,0.0,0.0,8.1012,0.0,7.9436,7.5873,7.2539,7.1156,7.1211,7.0844,7.1174,7.1835,7.1468,7.0587,6.9522,6.9522,0.0,0.0,0.0,0.0,0.0,0.0,0.0,7.1138,6.9853,7.066,7.2569,0.0,0.0,0.0,0.0,0.0,0.0,0.0,0.0,0.0,0.0,0.0,0.0,0.0,0.0,0.0,0.0,0.0,0.0,0.0,0.0,0.0,0.0,0.0,0.0,0.0,0.0,0.0,0.0,0.0,12.7592,12.6381,12.6711,12.6308,12.5096,12.3518,12.2086,12.0912,11.8893,11.7425,11.6617,11.6213,11.581,11.5479,11.6287,11.6397,11.5993,11.5993,11.581,11.5406,11.5002,11.4598,11.4084,11.3313,11.28,11.2396,11.1992,11.1588,11.1221,0.0,0.0,0.0,0.0,0.0,0.0,0.0,0.0,0.0,0.0,0.0,0.0,0.0,0.0,0.0,0.0,0.0,0.0,0.0,0.0,0.0,0.0,6.3503,6.42,6.2291,6.3319,6.2792,6.0591,0.0,0.0,0.0,0.0,0.0,8.0975,0.0,7.8772,7.5909,7.2936,7.1762,7.1835,7.1174,7.1284,7.1798,7.1138,6.9963,6.8678,6.8678,6.9192,6.9889,6.9889,0.0,0.0,0.0,0.0,6.9045,6.9706,7.0,7.1211,0.0,0.0,0.0,0.0,0.0,0.0,0.0,0.0,0.0,0.0,0.0,0.0,0.0,0.0,0.0,0.0,0.0,0.0,0.0,0.0,0.0,0.0,0.0,0.0,0.0,0.0,0.0,0.0,0.0,12.6491,12.5684,12.6308,12.6308,12.528,12.3188,12.1572,12.0508,11.8306,11.6727,11.581,11.5002,11.4598,11.4598,11.5296,11.5699,11.581,11.5589,11.5185,11.4598,11.4598,11.4194,11.3497,11.2873,11.2506,11.2286,11.1698,11.1295,11.1221,0.0,0.0,0.0,0.0,0.0,0.0,0.0,0.0,0.0,0.0,0.0,0.0,0.0,0.0,0.0,0.0,0.0,0.0,0.0,0.0,0.0,6.1374,6.3246,6.442,6.4824,6.3613,6.2464,0.0,0.0,0.0,0.0,0.0,0.0,0.0,0.0,0.0,7.5763,7.055,6.8752,6.9376,6.9265,6.9302,6.9376,6.9265,6.8641,6.7834,6.7834,6.8385,6.9082,6.9082,6.9522,0.0,0.0,0.0,6.8935,6.9045,6.9559,0.0,0.0,0.0,0.0,0.0,0.0,0.0,0.0,0.0,0.0,0.0,0.0,0.0,0.0,0.0,0.0,0.0,0.0,0.0,0.0,0.0,0.0,0.0,0.0,0.0,0.0,0.0,0.0,0.0,12.6418,12.6491,12.5684,12.5794,12.517,12.3701,12.26,12.0985,11.8783,11.7718,11.6434,11.5002,11.4084,11.3791,11.3791,11.3864,11.4305,11.4892,11.4194,11.3864,11.3791,11.3791,11.3681,11.357,11.3497,11.2983,11.2396,11.2286,11.1808,11.1221,0.0,0.0,0.0,0.0,0.0,0.0,0.0,0.0,0.0,0.0,0.0,0.0,0.0,0.0,0.0,5.7997,5.7997,5.7997,5.7997,5.8327,0.0,0.0,6.097,6.1741,6.2548,6.1851,6.1299,0.0,0.0,0.0,0.0,7.3846,7.7341,0.0,0.0,0.0,0.0,0.0,0.0,0.0,6.9399,6.97,7.011,6.8752,6.8017,0.0,0.0,0.0,0.0,0.0,6.8091,6.8752,6.8752,0.0,0.0,0.0,0.0,0.0,0.0,0.0,0.0,0.0,0.0,0.0,0.0,0.0,0.0,0.0,0.0,0.0,0.0,0.0,0.0,0.0,0.0,0.0,0.0,0.0,0.0,0.0,0.0,0.0,0.0,0.0,0.0,0.0,12.5977,12.6087,12.5684,12.528,12.4509,12.3298,12.1609,11.9994,11.8416,11.7204,11.592,11.4818,11.4415,11.4011,11.357,11.3093,11.3387,11.4084,11.3791,11.3277,11.2983,11.3387,11.3277,11.291,11.291,11.2689,11.2286,11.1919,11.1515,11.1221,0.0,0.0,0.0,0.0,0.0,0.0,0.0,0.0,0.0,0.0,0.0,0.0,0.0,0.0,0.0,0.0,5.7997,5.7997,5.7997,5.7997,0.0,0.0,0.0,5.9281,6.0089,6.0126,0.0,0.0,0.0,0.0,7.3177,7.5005,7.8993,0.0,7.9947,0.0,0.0,0.0,0.0,0.0,0.0,6.9858,7.022,0.0,0.0,6.754,6.6329,0.0,0.0,0.0,0.0,0.0,0.0,6.7357,0.0,0.0,0.0,0.0,0.0,0.0,0.0,0.0,0.0,0.0,0.0,0.0,0.0,0.0,0.0,0.0,0.0,0.0,0.0,0.0,0.0,0.0,0.0,0.0,0.0,0.0,0.0,0.0,0.0,0.0,0.0,0.0,12.5206,12.4986,12.4766,12.4179,12.3408,12.2417,12.0398,11.8783,11.7792,11.6177,11.5075,11.4488,11.4305,11.3901,11.3277,11.2506,11.2396,11.2983,11.2983,11.2616,11.2102,11.2689,11.2616,11.2102,11.2102,11.2102,11.1992,11.1405,11.1221,11.1221,0.0,0.0,0.0,0.0,0.0,0.0,0.0,0.0,0.0,0.0,0.0,0.0,0.0,5.7997,5.7997,5.7997,5.7997,5.7997,5.7997,5.7997,5.8033,5.807,5.807,0.0,5.9245,5.9281,0.0,0.0,0.0,0.0,7.479,7.7249,8.303,9.1069,8.549,8.1746,7.925,0.0,0.0,0.0,0.0,0.0,0.0,0.0,0.0,0.0,0.0,0.0,0.0,0.0,0.0,0.0,0.0,0.0,0.0,0.0,0.0,0.0,0.0,0.0,0.0,0.0,0.0,0.0,0.0,0.0,0.0,0.0,0.0,0.0,0.0,0.0,0.0,0.0,0.0,0.0,0.0,0.0,0.0,0.0,0.0,0.0,0.0,0.0,0.0,0.0,12.3885,12.3114,12.2307,12.2196,12.1499,11.9811,11.8893,11.7718,11.6103,11.4488,11.3681,11.3681,11.291,11.2506,11.2396,11.1588,11.1295,11.1295,11.1295,11.1295,11.1295,11.1295,11.1295,11.1295,11.1295,11.1295,11.1295,11.1221,11.1221,11.1221,0.0,0.0,0.0,0.0,0.0,0.0,0.0,0.0,0.0,0.0,0.0,0.0,0.0,5.7997,5.7997,5.7997,5.7997,5.7997,5.7997,5.7997,5.7997,5.7997,5.7997,5.8621,5.9942,5.9979,0.0,0.0,0.0,6.6389,7.3423,7.6374,8.0865,8.6334,8.4315,8.3214,8.2472,7.5567,0.0,0.0,0.0,0.0,0.0,0.0,0.0,0.0,0.0,0.0,0.0,0.0,0.0,0.0,0.0,0.0,0.0,0.0,0.0,0.0,0.0,0.0,0.0,0.0,0.0,0.0,0.0,0.0,0.0,0.0,0.0,0.0,0.0,0.0,0.0,0.0,0.0,0.0,0.0,0.0,0.0,0.0,0.0,0.0,0.0,0.0,0.0,0.0,0.0,12.1389,12.0508,11.9994,11.9003,11.7278,11.6507,11.5589,11.4488,11.3901,11.3901,11.4378,11.2983,11.2689,11.3093,11.1808,11.1221,11.1221,11.1221,11.1221,11.1221,11.1221,11.1221,11.1221,11.1221,11.1221,11.1111,11.0597,11.0781,11.1111,0.0,0.0,0.0,0.0,0.0,0.0,0.0,0.0,0.0,0.0,0.0,0.0,0.0,0.0,5.7997,5.7997,5.7997,5.7997,5.7997,5.7997,5.7997,5.7997,5.7997,5.8731,6.0382,6.0419,0.0,0.0,0.0,0.0,0.0,0.0,7.8736,8.3361,8.2296,0.0,0.0,0.0,0.0,7.4757,0.0,0.0,7.1284,0.0,0.0,0.0,0.0,0.0,0.0,0.0,0.0,0.0,0.0,0.0,0.0,0.0,0.0,0.0,0.0,0.0,0.0,0.0,0.0,0.0,0.0,0.0,0.0,0.0,0.0,0.0,0.0,0.0,0.0,0.0,0.0,0.0,0.0,0.0,0.0,0.0,0.0,0.0,0.0,0.0,0.0,0.0,0.0,0.0,11.8012,11.7498,11.658,11.5185,11.4415,11.3717,11.3203,11.3203,11.3497,11.4011,11.291,11.2689,11.3167,11.1808,11.1221,11.1221,11.1221,11.1221,11.1221,11.1221,11.1221,11.1221,11.1221,11.1001,11.0707,11.0193,11.0193,11.0193,0.0,0.0,0.0,0.0,0.0,0.0,0.0,0.0,0.0,0.0,0.0,0.0,0.0,0.0,0.0,5.807,5.807,5.8033,5.7997,5.7997,5.7997,5.7997,5.8033,5.8767,6.0382,6.0419,0.0,0.0,0.0,0.0,0.0,0.0,7.6974,0.0,7.9947,8.2076,8.7766,0.0,8.4132,8.1672,0.0,7.3707,7.4111,0.0,0.0,0.0,7.4661,7.2899,0.0,0.0,0.0,0.0,0.0,0.0,0.0,0.0,0.0,0.0,0.0,0.0,0.0,0.0,0.0,0.0,0.0,0.0,0.0,0.0,0.0,0.0,0.0,0.0,0.0,0.0,0.0,0.0,0.0,0.0,0.0,0.0,0.0,0.0,0.0,0.0,11.8306,11.8306,11.7498,11.6397,11.4818,11.4708,11.4305,11.357,11.28,11.2396,11.2396,11.2396,11.2396,11.2396,11.2396,11.2396,11.2396,11.1588,11.1221,11.1221,11.1221,11.1221,11.1221,11.1221,11.1221,11.1221,11.1221,11.0707,10.9973,10.99,10.9496,10.8799,0.0,0.0,0.0,0.0,0.0,0.0,0.0,0.0,0.0,0.0,0.0,0.0,0.0,0.0,0.0,5.9795,5.9758,5.9245,5.807,5.7997,5.7997,5.7997,5.8547,5.9355,6.0382,6.097,6.1777,0.0,0.0,0.0,0.0,0.0,0.0,0.0,7.8295,7.9764,8.0131,7.6754,0.0,0.0,7.4515,7.4441,0.0,0.0,0.0,0.0,0.0,7.4698,0.0,0.0,7.1174,7.0073,0.0,0.0,0.0,0.0,0.0,0.0,6.8201,0.0,0.0,0.0,0.0,0.0,8.6334,8.9931,9.4483,0.0,0.0,0.0,0.0,0.0,0.0,0.0,0.0,0.0,0.0,0.0,0.0,0.0,0.0,11.6801,11.6984,11.6287,11.581,0.0,11.5075,11.4084,11.3093,11.2506,11.2102,11.1882,11.1625,11.1515,11.1515,11.1515,11.1808,11.2396,11.1808,11.1808,11.2396,11.1588,11.1221,11.1221,11.0597,11.0707,11.1221,11.1221,11.1221,11.1111,11.0597,11.0193,10.99,10.8688,10.8505,10.8615,0.0,0.0,0.0,0.0,0.0,0.0,0.0,0.0,0.0,0.0,0.0,0.0,0.0,0.0,0.0,6.152,6.108,6.0236,5.8621,5.851,5.851,5.851,5.9281,6.0089,6.0896,6.1374,6.1998,0.0,0.0,0.0,0.0,0.0,0.0,0.0,0.0,0.0,0.0,0.0,0.0,0.0,7.646,0.0,0.0,7.9742,8.0419,0.0,0.0,0.0,7.98,7.7524,7.5285,0.0,0.0,0.0,0.0,0.0,0.0,0.0,0.0,0.0,0.0,0.0,0.0,0.0,8.2627,8.5086,8.861,0.0,0.0,0.0,0.0,0.0,0.0,0.0,0.0,0.0,0.0,0.0,11.669,11.669,11.6287,11.5883,11.5516,11.5112,11.4525,11.3791,11.3387,11.2689,11.1919,11.1515,11.1221,11.1221,11.1221,11.1221,11.1221,11.1221,11.1405,11.1919,11.1405,11.1405,11.1882,11.1111,11.0707,11.0707,10.979,10.979,11.0193,11.0193,11.0414,11.0707,11.0193,10.9569,10.8872,10.7881,10.7697,10.7697,0.0,0.0,0.0,0.0,0.0,0.0,0.0,0.0,0.0,0.0,0.0,0.0,0.0,0.0,0.0,0.0,6.2548,6.13,5.9612,5.9391,5.9355,5.9355,6.0126,6.086,6.1557,6.1704,6.2071,6.2805,0.0,0.0,0.0,0.0,0.0,0.0,0.0,0.0,0.0,0.0,0.0,7.7268,7.9653,8.192,0.0,0.0,8.7128,0.0,8.7194,8.6811,8.582,8.2627,7.8772,0.0,0.0,0.0,0.0,0.0,6.9706,0.0,0.0,0.0,0.0,0.0,0.0,0.0,8.2737,8.3141,8.3911,9.0959,9.4777,0.0,0.0,0.0,0.0,11.001,11.1808,11.3681,11.5589,11.5883,11.5883,11.5883,11.5883,11.5516,11.4598,11.4525,11.3901,11.2396,11.2286,11.1992,11.1221,11.1221,11.1221,11.1221,11.1221,11.1221,11.1221,11.1221,11.1221,11.1221,11.1111,11.1111,11.1001,11.0193,10.99,10.979,10.8982,10.8688,10.8799,10.8688,10.9092,10.99,10.979,10.8872,10.7587,10.7477,10.7,10.6376,5.7997,0.0,0.0,0.0,0.0,0.0,0.0,0.0,0.0,0.0,0.0,0.0,0.0,0.0,0.0,0.0,6.5411,6.3613,6.1263,6.0529,6.0162,6.0162,6.0933,6.1447,6.1594,6.2218,6.2658,6.2805,0.0,0.0,0.0,0.0,0.0,0.0,0.0,0.0,0.0,0.0,0.0,7.5542,7.7341,0.0,0.0,8.6329,8.8088,9.0692,8.868,8.872,8.916,0.0,8.1746,7.7598,0.0,0.0,0.0,0.0,0.0,0.0,0.0,0.0,0.0,0.0,0.0,0.0,7.6387,7.8222,8.1782,0.0,8.9197,9.2574,10.0686,10.2705,10.3182,10.3403,10.7,11.1001,11.4488,11.5002,11.5002,11.5002,11.5002,11.4488,11.2983,11.291,11.2506,11.1515,11.1405,11.1405,11.1221,11.1221,11.1221,11.1221,11.1221,11.1221,11.1221,11.1221,11.1221,11.1221,11.0487,11.0193,11.0193,10.9386,10.9019,10.8982,10.8175,10.8175,10.8688,10.8101,10.8285,10.8982,10.8285,10.7881,10.7477,10.689,10.6486,10.6376,5.807,0.0,0.0,0.0,0.0,0.0,0.0,0.0,0.0,0.0,0.0,0.0,0.0,0.0,0.0,0.0,0.0,0.0,0.0,0.0,6.141,6.1006,6.1777,6.2218,6.2218,6.2585,6.2805,6.2805,0.0,0.0,0.0,0.0,0.0,0.0,0.0,0.0,0.0,0.0,7.2239,7.4147,7.8993,0.0,8.8815,8.9214,9.1444,9.39,9.1941,9.151,9.1179,8.6701,8.4389,0.0,0.0,7.635,7.6864,0.0,7.4294,7.4771,0.0,0.0,0.0,7.5946,0.0,0.0,0.0,7.646,7.8369,8.4058,8.4572,8.6481,9.4556,9.5731,9.6245,9.8704,10.1788,10.5385,10.9423,11.2396,11.4194,11.4194,11.4194,11.3681,11.2506,11.2396,11.2102,11.1295,11.1221,11.1221,11.1221,11.1221,11.1221,11.1221,11.1221,11.1221,11.1221,11.1221,11.1001,11.0597,11.0193,10.979,10.9386,10.8578,10.8175,10.8101,10.689,10.6816,10.7514,10.6706,10.6596,10.7,10.7404,10.7367,10.6963,10.6486,10.6376,10.6376,5.8143,0.0,0.0,0.0,0.0,0.0,0.0,0.0,0.0,0.0,0.0,0.0,0.0,0.0,0.0,0.0,0.0,0.0,0.0,0.0,0.0,6.141,6.2291,6.2658,6.2365,6.2658,6.2805,6.2805,0.0,0.0,0.0,0.0,0.0,0.0,0.0,0.0,0.0,0.0,0.0,7.4294,0.0,8.577,8.8296,9.1375,9.3826,9.5456,9.481,9.3896,9.2391,8.7582,0.0,8.6811,7.8772,7.9433,0.0,0.0,0.0,0.0,0.0,0.0,0.0,0.0,0.0,7.6533,0.0,0.0,0.0,8.1452,8.1048,0.0,0.0,0.0,0.0,0.0,0.0,0.0,0.0,10.7183,0.0,11.2102,11.2065,11.1882,11.1698,11.1405,11.1111,11.0817,11.0304,11.0304,11.0891,11.1001,11.1001,11.1221,11.1221,11.1221,11.1221,11.1221,11.0817,10.9973,10.979,10.9312,10.8505,10.7587,10.7183,10.7294,10.5789,10.5605,10.6302,10.5495,10.5128,10.5311,10.678,10.689,10.6192,10.6302,10.6486,10.6596,5.8143,0.0,0.0,0.0,6.4897,6.8274,7.0807,7.3083,0.0,0.0,0.0,0.0,0.0,0.0,0.0,0.0,0.0,0.0,7.0293,0.0,0.0,6.0603,6.1998,6.2144,6.0713,6.2071,6.2805,6.2805,0.0,0.0,0.0,0.0,0.0,0.0,6.5264,0.0,0.0,0.0,7.2459,0.0,8.2039,8.3309,0.0,8.8864,9.1507,9.257,9.4631,9.441,9.2868,0.0,8.9748,8.7876,0.0,8.4058,0.0,0.0,0.0,0.0,0.0,0.0,0.0,0.0,8.259,0.0,0.0,0.0,7.9984,7.9286,0.0,8.0718,0.0,0.0,0.0,0.0,0.0,0.0,9.2501,9.7163,10.2412,10.6706,10.6523,10.689,10.9019,10.7881,10.7587,10.8982,10.7,10.711,10.9973,11.0083,11.0487,11.1221,11.1221,11.1221,11.1221,11.1221,11.0817,10.9973,10.9276,10.8505,10.7697,10.6119,10.5789,10.6486,10.5495,10.5605,10.6302,10.5495,10.5128,10.5201,10.6192,10.6009,10.5311,10.6082,10.689,10.7477,5.8253,0.0,0.0,0.0,6.453,6.7577,7.1431,7.5652,0.0,0.0,0.0,0.0,0.0,0.0,0.0,0.0,0.0,0.0,0.0,0.0,0.0,0.0,0.0,0.0,6.2548,6.2732,6.2805,6.2805,6.2805,0.0,0.0,0.0,0.0,0.0,6.5595,0.0,6.8788,0.0,0.0,0.0,0.0,0.0,0.0,9.015,9.4165,9.5392,9.5994,9.5474,9.4006,0.0,9.0298,0.0,0.0,0.0,0.0,0.0,0.0,0.0,0.0,0.0,0.0,0.0,0.0,0.0,7.8516,0.0,7.7818,0.0,0.0,0.0,0.0,0.0,0.0,0.0,8.5453,8.8096,0.0,0.0,9.529,10.2081,0.0,0.0,10.4284,10.4798,10.5201,10.5899,10.5018,10.5201,10.711,10.8505,10.9679,11.0487,11.1001,11.1221,11.1221,11.0707,11.0083,10.9276,10.8505,10.7697,10.689,10.6192,10.6082,10.6302,10.4981,10.4908,10.5495,10.421,10.3696,10.3806,10.4614,10.5018,10.5201,10.6082,10.6596,10.7,0.0,0.0,0.0,0.0,0.0,0.0,7.2386,0.0,0.0,0.0,0.0,0.0,8.7325,8.6297,0.0,0.0,0.0,7.8883,0.0,0.0,6.7687,0.0,0.0,0.0,0.0,0.0,6.3172,6.3172,6.2915,0.0,0.0,0.0,0.0,0.0,0.0,6.8164,6.9522,0.0,0.0,7.5909,8.0461,8.3043,8.4811,9.1528,9.5507,9.7397,9.6916,9.6139,9.4926,9.1362,9.1326,0.0,8.8169,0.0,0.0,0.0,0.0,0.0,8.6297,0.0,0.0,0.0,0.0,0.0,0.0,0.0,0.0,0.0,0.0,0.0,0.0,0.0,0.0,0.0,0.0,8.4352,0.0,8.5857,8.8904,9.6135,9.6832,0.0,0.0,10.1677,10.2412,10.2889,10.1898,10.2301,10.4614,10.6486,10.8211,10.99,11.0817,11.1221,11.1221,11.0414,10.9606,10.8799,10.7991,10.7183,10.6376,10.6192,10.6009,10.6009,10.4504,10.421,10.4687,10.3293,10.2705,10.2815,10.3293,10.41,10.4908,10.5715,10.6486,10.711,6.0199,6.0346,0.0,0.0,0.0,0.0,0.0,0.0,0.0,0.0,0.0,0.0,0.0,0.0,0.0,0.0,0.0,8.4829,8.3141,0.0,6.9449,0.0,0.0,0.0,0.0,0.0,0.0,6.4053,0.0,0.0,0.0,0.0,0.0,0.0,0.0,7.1284,7.3597,7.5285,7.8736,8.3214,8.4939,8.9344,9.457,0.0,9.3218,9.6616,9.6695,0.0,0.0,9.5295,9.3749,0.0,0.0,0.0,0.0,0.0,0.0,0.0,0.0,0.0,0.0,8.5967,0.0,0.0,0.0,0.0,8.3654,0.0,0.0,0.0,0.0,0.0,0.0,0.0,0.0,0.0,0.0,8.1232,8.3067,8.7986,9.3382,0.0,0.0,9.8521,9.8741,10.0283,9.6795,9.7346,10.3586,10.399,10.5899,10.99,11.0817,11.1221,11.1221,11.0414,10.9606,10.8799,10.7991,10.7183,10.6376,10.5495,10.5128,10.5128,10.4284,10.388,10.388,10.2999,10.2705,10.2705,10.2705,10.3219,10.399,10.4798,10.6706,10.8688,0.0,0.0,0.0,0.0,0.0,0.0,0.0,7.7084,0.0,0.0,0.0,0.0,0.0,0.0,9.8484,0.0,0.0,9.14,8.7619,8.0828,0.0,0.0,0.0,6.8091,0.0,0.0,0.0,0.0,0.0,0.0,0.0,0.0,0.0,0.0,0.0,7.1725,0.0,0.0,0.0,0.0,0.0,9.018,9.5403,0.0,0.0,9.739,9.7451,9.6912,0.0,9.6248,9.5401,9.4299,9.4593,9.3565,9.2207,9.195,9.206,0.0,0.0,0.0,9.3602,8.894,0.0,0.0,0.0,0.0,0.0,0.0,0.0,0.0,0.0,0.0,0.0,0.0,0.0,0.0,0.0,7.925,7.9984,8.3765,8.8757,0.0,0.0,9.2941,9.3308,9.3859,9.2134,9.2978,9.7309,10.0576,10.3696,10.6706,10.9092,11.0414,11.0414,10.9606,10.8799,10.7991,10.7183,10.667,10.6376,10.6082,10.5605,10.5091,10.421,10.3586,10.2999,10.2191,10.1898,10.1898,10.1898,10.2705,10.399,10.4798,10.6302,10.8175,6.3242,0.0,0.0,0.0,0.0,0.0,0.0,0.0,0.0,0.0,9.2317,0.0,10.3293,0.0,10.41,0.0,10.1898,9.7273,9.1546,8.6701,0.0,7.8809,7.5652,0.0,0.0,0.0,0.0,0.0,0.0,6.7885,0.0,0.0,0.0,0.0,0.0,0.0,0.0,0.0,8.2076,0.0,0.0,9.1106,0.0,0.0,9.6787,9.8172,0.0,9.706,9.6658,9.6728,9.5988,9.5144,9.5437,9.4593,9.3418,9.2831,9.3088,9.3455,9.3198,9.4263,0.0,9.1877,9.0152,0.0,8.4425,0.0,0.0,0.0,0.0,0.0,0.0,0.0,0.0,0.0,0.0,0.0,0.0,7.7818,7.8442,8.1415,8.527,8.7949,8.85,8.905,8.9087,8.85,8.7472,8.8647,9.2758,9.6759,10.0686,10.4614,10.7587,10.9276,10.9606,10.8799,10.8101,10.7587,10.678,10.6376,10.6376,10.6082,10.5495,10.4614,10.3806,10.2999,10.2191,10.1677,10.1494,10.1494,10.1788,10.2595,10.3586,10.4394,10.5899,10.7771,6.6172,6.5212,6.4383,6.4347,6.7577,0.0,0.0,0.0,8.5857,0.0,9.5401,10.12,10.6119,10.7367,10.8468,10.9973,10.7183,0.0,9.529,9.3198,0.0,0.0,8.1489,7.9543,7.5469,0.0,0.0,0.0,0.0,0.0,0.0,0.0,0.0,0.0,7.3487,0.0,7.5432,8.27,8.6371,8.7509,9.0555,9.2391,9.3309,9.3924,9.6199,9.889,9.7248,9.6692,9.6585,9.6657,9.5694,9.4556,9.5327,9.4997,9.4042,9.2501,9.3161,9.4189,9.3455,9.4446,9.5474,9.4666,9.3822,0.0,0.0,0.0,9.3492,0.0,0.0,0.0,0.0,0.0,0.0,0.0,0.0,0.0,0.0,0.0,7.8222,8.0608,8.2884,8.4903,8.6628,8.6701,8.6004,8.4352,8.2847,8.4425,8.9895,9.2721,9.7052,10.3403,10.6082,10.7881,10.8688,10.7991,10.7587,10.7477,10.678,10.6376,10.6376,10.5495,10.4687,10.388,10.2999,10.2191,10.1494,10.1494,10.1494,10.1567,10.2301,10.2705,10.2889,10.3696,10.5495,10.7697,6.7038,6.7825,6.8348,6.776,6.9522,7.2239,0.0,0.0,0.0,0.0,9.9769,10.4981,11.1074,11.1405,11.1295,11.1698,10.9386,0.0,0.0,0.0,0.0,9.1069,8.8573,8.5637,8.2186,8.0369,0.0,7.6943,0.0,0.0,7.4437,0.0,0.0,0.0,0.0,0.0,7.624,8.2957,8.7655,9.0629,9.1473,9.3382,9.5584,0.0,9.5737,9.8908,9.7237,9.6688,9.6695,9.6688,9.6428,9.6135,9.6318,9.5841,9.5107,9.4703,9.4887,9.529,9.5658,9.6942,9.8007,9.7163,9.5914,9.4373,0.0,0.0,0.0,0.0,0.0,0.0,0.0,0.0,0.0,0.0,0.0,0.0,0.0,0.0,0.0,7.9066,7.9213,8.0314,8.3141,8.2333,8.0975,7.9323,7.9396,8.0938,8.4168,8.9491,9.4593,9.9292,10.3513,10.6413,10.7881,10.7697,10.7294,10.6706,10.6486,10.6376,10.6376,10.5495,10.4687,10.388,10.2999,10.2191,10.1494,10.1494,10.1494,10.1494,10.1677,10.2485,10.3806,10.5201,10.6486,10.7697,6.9235,7.1139,7.2459,7.1651,0.0,0.0,7.969,0.0,0.0,9.6392,10.2081,0.0,11.0597,11.2506,11.3313,11.2983,11.1001,0.0,0.0,0.0,0.0,9.6061,9.4446,9.1803,8.7876,8.5201,0.0,8.0971,0.0,0.0,7.675,0.0,0.0,0.0,0.0,7.5542,0.0,8.3948,8.8757,9.1803,9.1803,9.2905,0.0,9.3051,9.4189,9.6395,9.5842,9.6031,9.6685,9.6685,9.6685,9.6685,9.6685,9.6392,9.6025,9.6025,9.6025,9.6282,9.7456,9.8411,9.9255,9.9842,9.9035,9.7787,9.6539,9.7309,9.7676,0.0,9.7016,9.7493,0.0,0.0,0.0,0.0,0.0,0.0,0.0,0.0,0.0,0.0,7.8185,7.8442,7.991,7.8259,7.6717,7.5799,7.6497,7.7892,7.9947,8.6518,9.1767,9.5107,10.1017,10.4687,10.5972,10.7073,10.7183,10.6376,10.6009,10.5789,10.5789,10.4614,10.3806,10.3293,10.2485,10.1898,10.1494,10.1494,10.1494,10.1494,10.1494,10.2705,10.4504,10.5091,10.6082,10.7073,0.0,7.4672,7.6523,7.5469,0.0,0.0,0.0,8.7757,0.0,9.7236,0.0,10.8468,10.8688,11.2396,11.4488,11.3681,0.0,10.979,10.6009,10.6486,10.4504,9.9071,9.9512,9.7676,9.2941,9.0091,0.0,0.0,0.0,0.0,7.8548,0.0,0.0,0.0,0.0,0.0,0.0,8.5013,8.9197,9.1363,9.1657,9.1913,9.2097,9.2024,9.2648,9.3639,9.4226,9.5364,9.6575,9.6649,9.6685,9.6685,9.6685,9.6685,9.6685,9.6685,9.6759,9.7199,9.8704,9.9181,9.9805,10.2118,10.2191,10.1494,10.0907,10.0686,10.0209,9.8924,9.8521,9.8007,9.6759,0.0,0.0,0.0,0.0,0.0,0.0,0.0,0.0,0.0,0.0,0.0,7.7268,7.5249,7.3891,7.356,7.4294,7.5359,7.6754,8.3581,8.861,9.1253,9.8227,10.2595,10.388,10.5972,10.689,10.6376,10.5422,10.4908,10.4908,10.3403,10.2705,10.2705,10.1788,10.1494,10.1494,10.1494,10.1567,10.1677,10.1788,10.3109,10.4908,10.4284,10.4981,10.6302,0.0,0.0,0.0,0.0,0.0,8.9776,9.3709,9.6491,9.9732,10.41,10.9276,11.3093,11.4378,11.4708,11.4488,11.3681,11.2689,0.0,0.0,0.0,0.0,10.4027,10.4027,10.2118,9.7933,9.3985,9.0518,0.0,0.0,7.7779,7.5584,7.3209,7.1976,0.0,0.0,0.0,8.0608,8.4535,0.0,8.9014,9.0996,9.2611,9.3786,9.3125,9.4189,9.5988,9.5474,9.5474,9.5804,9.6502,9.6685,9.6685,9.6685,9.6685,9.6685,9.6685,9.7163,9.7897,9.8851,9.9585,10.0503,10.2301,10.2595,10.2595,10.3182,10.2779,10.2412,10.2779,10.1788,9.9805,9.6355,0.0,0.0,0.0,0.0,0.0,0.0,0.0,0.0,0.0,0.0,7.8002,7.646,7.5946,7.4845,7.2863,7.345,7.4037,7.4331,7.9984,8.4976,8.872,9.463,9.9732,10.388,10.4284,10.5201,10.6376,10.4798,10.41,10.41,10.3109,10.2705,10.2705,10.1788,10.1494,10.1494,10.1494,10.1898,10.2595,10.3182,10.3696,10.421,10.4724,10.5091,10.5495,0.0,0.0,0.0,0.0,0.0,0.0,0.0,10.4297,0.0,10.6497,10.9177,11.1405,11.2212,11.4194,11.4892,11.3681,11.3203,11.2286,11.0707,11.0193,10.9092,10.711,10.6192,0.0,10.1017,9.6105,9.1966,8.8709,0.0,7.7521,7.5366,7.2755,7.1472,7.1358,0.0,7.5652,0.0,0.0,0.0,8.8463,9.1326,9.2941,9.3675,9.3712,9.4446,9.5474,9.5511,9.5511,9.5621,9.6428,9.6685,9.6685,9.6685,9.6685,9.6685,9.6685,9.6979,9.753,9.8778,9.9402,10.0099,10.1677,10.2412,10.2815,10.3182,10.3623,10.3917,10.388,10.3586,10.1898,9.7016,9.0849,0.0,0.0,0.0,0.0,0.0,0.0,0.0,0.0,0.0,0.0,0.0,7.635,7.4918,7.2092,7.3413,7.378,7.2532,7.7855,8.2406,8.56,9.1657,9.6942,10.1384,10.3109,10.4284,10.5091,10.3403,10.2669,10.2595,10.1788,10.1494,10.1494,10.1494,10.1677,10.2191,10.2595,10.3182,10.3917,10.3513,10.3806,10.4504,10.4504,10.4724,10.5311,0.0,8.8194,0.0,0.0,9.74,0.0,10.5879,11.0686,11.2625,10.9044,10.9362,11.012,11.0304,11.3681,11.5369,11.3681,11.357,11.291,11.1295,11.0597,10.99,10.9092,10.7807,10.6009,10.3513,9.83,9.3454,0.0,8.2347,7.7605,7.4821,7.2038,7.0546,7.033,0.0,0.0,0.0,0.0,8.4756,8.8243,9.173,9.3198,9.3455,9.4263,9.4666,9.4887,9.5547,9.5768,9.5878,9.6502,9.6685,9.6685,9.6685,9.6685,9.6685,9.6685,9.6942,9.7493,9.8778,9.9365,9.9989,10.1604,10.2485,10.2999,10.3403,10.432,10.4908,10.4284,10.4394,10.3109,9.8117,9.3418,0.0,0.0,0.0,0.0,0.0,0.0,0.0,0.0,0.0,0.0,7.6644,7.635,7.4808,7.1101,7.3046,7.3487,7.1431,7.6056,7.9874,8.2296,8.8683,9.4079,9.83,10.12,10.2889,10.3403,10.1788,10.098,10.098,10.0319,10.0099,10.0319,10.098,10.1788,10.2815,10.3586,10.4284,10.4724,10.3403,10.3696,10.4798,10.41,10.4394,10.5201,0.0,0.0,0.0,0.0,0.0,0.0,0.0,11.4603,11.761,11.5575,11.4681,11.4488,11.5185,11.5699,11.5369,11.3681,11.357,11.291,11.1295,11.1111,11.0707,10.99,10.9679,10.8505,10.6082,10.1898,9.6358,0.0,8.4089,7.8125,7.1691,7.0411,6.8803,6.7173,0.0,0.0,0.0,8.1525,8.5453,8.7472,9.1473,9.3529,9.4263,9.507,9.5841,9.6502,9.6575,9.6575,9.6612,9.6685,9.6685,9.6685,9.6685,9.6685,9.6685,9.6685,9.775,9.8924,9.9071,10.0209,10.1677,10.3293,10.3696,10.421,10.5678,10.5605,10.5128,10.5018,10.3917,10.2118,9.9402,9.7823,9.529,0.0,0.0,0.0,0.0,0.0,8.56,8.2443,0.0,0.0,7.3707,7.5542,7.4955,6.9522,7.1358,7.2312,7.1358,7.3891,7.6497,7.8956,8.5306,9.0959,9.5804,9.7566,9.9548,10.1677,10.0099,9.9328,9.9328,9.9255,9.9622,10.0283,10.0393,10.131,10.2815,10.3586,10.3917,10.399,10.3806,10.388,10.399,10.388,10.4394,10.5201,0.0,0.0,0.0,0.0,0.0,0.0,0.0,11.7476,11.8789,11.8617,11.7262,11.6282,11.6011,11.5993,11.5369,11.3681,11.357,11.291,11.1295,11.1221,11.1111,11.0707,11.0304,10.9092,10.7183,10.3586,9.8411,0.0,0.0,0.0,7.4808,7.0494,6.8283,6.8054,0.0,7.4001,7.7598,8.1489,8.5196,8.8757,9.2391,9.4299,9.5107,9.5914,9.6428,9.6685,9.6685,9.6685,9.6759,9.7273,9.7089,9.6685,9.6685,9.7016,9.7419,9.7419,9.8227,9.9218,9.9695,10.0283,10.109,10.2191,10.3182,10.41,10.4687,10.5385,10.5899,10.5899,10.5385,10.4504,10.2999,10.0099,9.7309,9.5511,0.0,0.0,0.0,0.0,0.0,8.4022,0.0,7.8589,7.4368,7.4258,7.3707,7.1908,7.2679,7.2679,7.1394,0.0,7.4992,7.9874,8.2994,8.7876,9.4703,9.6392,9.8154,9.9989,9.8924,9.8374,9.8411,9.8888,9.9805,10.098,10.1494,10.2412,10.3513,10.432,10.4614,10.4614,10.41,10.421,10.4614,10.41,10.4687,10.5899,10.7598,0.0,10.6905,0.0,11.2522,11.3599,11.8715,11.9597,11.9785,12.0226,11.9014,11.7786,11.6528,11.6388,11.5657,11.4048,11.3681,11.2983,11.1625,11.1295,11.1221,11.1221,11.0707,0.0,10.8285,10.5311,10.0723,9.452,8.905,0.0,7.7928,7.2129,6.9633,7.0036,7.1798,7.5285,7.9947,8.2517,8.6114,9.0372,9.3161,9.4777,9.5584,9.6392,9.6685,9.6685,9.6685,9.6685,9.6832,9.764,9.753,9.7089,9.7346,9.7787,9.8264,9.8264,9.8814,9.9622,10.0393,10.0796,10.12,10.2008,10.3072,10.388,10.388,10.4981,10.6082,10.6302,10.6192,10.5899,10.5495,10.2485,9.9879,9.9512,0.0,0.0,0.0,9.1179,0.0,8.5013,8.0938,7.7194,7.4147,7.3046,7.2532,7.2642,0.0,0.0,0.0,0.0,0.0,7.9764,8.1856,8.6334,9.3529,9.518,9.6795,9.8411,9.8043,9.7897,9.7933,9.8998,10.0099,10.12,10.2008,10.2889,10.388,10.432,10.4504,10.4724,10.41,10.421,10.4724,10.4394,10.5201,10.6376,11.0791,11.1406,11.2714,11.7023,11.8407,11.9292,12.0216,12.0985,12.1206,12.0321,12.0206,11.952,11.7629,11.7426,11.6755,11.4909,11.4084,11.3277,11.2396,11.1625,11.1221,0.0,0.0,11.0817,10.9973,10.7587,10.3586,9.7823,0.0,0.0,7.9653,0.0,7.3193,7.2642,7.668,7.8993,8.0094,8.4903,8.883,9.1913,9.3602,9.4777,9.5584,9.6392,9.6685,9.6685,9.6685,9.6685,9.6832,9.764,9.7897,9.8007,9.8814,9.9071,9.9108,9.9108,9.9659,10.0503,10.1274,10.2081,10.2889,10.3696,10.388,10.388,10.388,10.4504,10.5422,10.6192,10.5715,10.5422,10.6192,10.5605,10.4027,10.0796,0.0,0.0,0.0,9.1657,0.0,8.5086,8.2443,7.8442,7.1982,7.2055,7.1835,0.0,0.0,0.0,0.0,0.0,0.0,7.7378,8.2076,8.6921,9.1877,9.3529,9.5144,9.6722,9.753,9.7897,9.7933,9.9548,10.0283,10.0393,10.12,10.2375,10.3806,10.3109,10.3219,10.388,10.388,10.388,10.399,10.4798,10.5605,10.6376,11.4599,11.4907,11.5484,11.7484,11.8023,11.8715,12.01,12.0485,12.0823,12.1079,12.1194,12.0714,11.938,11.8206,11.6668,0.0,11.4051,11.2983,0.0,11.1295,11.1221,11.1221,11.1221,11.0597,10.9202,10.7881,10.4687,9.9548,0.0,0.0,0.0,7.9286,7.8259,7.7598,8.0571,8.3251,8.571,8.8353,9.0702,9.2721,9.3272,9.4299,9.5547,9.5804,9.6208,9.6685,9.6685,9.7052,9.764,9.8447,9.9071,9.9659,10.0503,10.0393,9.9916,9.9916,10.0907,10.1898,10.1604,10.2485,10.3403,10.3182,10.3513,10.399,10.4614,10.5385,10.6082,10.6302,10.6192,10.6082,10.6302,10.5201,10.3806,10.2191,10.0319,0.0,9.441,0.0,8.6848,8.3361,7.936,7.5616,7.2422,7.2863,7.2863,7.1835,0.0,0.0,0.0,0.0,0.0,7.9764,8.3471,8.7766,9.2684,9.4299,9.5914,9.753,9.7787,9.8447,9.9548,10.0099,10.0613,10.109,10.1384,10.2081,10.3109,10.2815,10.3182,10.388,10.388,10.421,10.4724,10.5018,10.5715,10.6376,11.6407,11.6484,11.6792,11.76,11.81,11.8715,12.01,12.06,12.0985,12.1485,12.16,12.1419,12.0821,11.9392,0.0,11.609,11.4845,11.3462,11.2176,11.1515,11.1221,11.1221,11.1221,11.0707,10.9716,10.8578,0.0,10.2595,9.753,9.1326,8.4168,8.3214,8.27,8.2553,8.4095,8.6224,8.8757,9.0041,9.173,9.3565,9.3565,9.452,9.5951,9.5951,9.6282,9.6685,9.6685,9.7199,9.8007,9.8851,9.9622,10.0503,10.1604,10.1604,10.12,10.12,10.1714,10.2301,10.2375,10.2889,10.3403,10.3219,10.3513,10.41,10.4908,10.5311,10.5495,10.5789,10.5678,10.5495,10.5495,10.4577,10.3586,10.2815,10.0723,9.786,9.4336,8.9638,8.5343,8.2113,7.8772,7.5983,7.4037,7.5139,7.5395,7.3964,0.0,0.0,0.0,0.0,7.8405,8.1379,8.4866,8.8904,9.3492,9.485,9.6318,9.7897,9.8484,9.9475,10.0796,10.0796,10.098,10.1494,10.1494,10.1971,10.2705,10.2412,10.2705,10.3513,10.3806,10.421,10.4724,10.5385,10.5899,10.6376,11.6484,11.6484,11.6792,0.0,11.8407,0.0,11.9985,12.0908,12.1408,12.1485,12.1485,12.1485,12.16,12.0783,11.9584,11.7786,0.0,0.0,0.0,11.2154,11.1221,11.1221,11.1221,11.1221,11.1111,10.9606,10.7991,10.6192,9.8447,9.3015,8.9858,8.7362,8.6664,8.7435,8.7325,8.8133,8.9638,9.0372,9.206,9.4226,9.4226,9.518,9.6612,9.6612,9.6649,9.6685,9.6685,9.7199,9.8007,9.8851,9.9622,10.0613,10.2118,10.2595,10.2595,10.2705,10.2191,10.1971,10.3403,10.3293,10.2999,10.3696,10.399,10.4284,10.4908,10.4614,10.4284,10.5018,10.4614,10.41,10.41,10.399,10.3586,10.2815,10.0613,9.753,9.3492,8.8867,8.4682,8.1379,8.0424,0.0,7.668,7.8516,7.8919,0.0,0.0,0.0,0.0,7.8552,8.0131,8.237,8.6407,9.0408,9.4336,9.5254,9.6465,9.8007,9.9622,10.0686,10.1384,10.1494,10.1567,10.1494,10.1567,10.2008,10.2595,10.1788,10.2008,10.2815,10.3586,10.388,10.421,10.5789,10.6376,10.6376,0.0,0.0,11.6599,11.6792,11.7484,11.8215,11.8407,11.91,11.9908,12.0485,12.06,12.0908,12.1485,12.1381,12.0821,11.9609,11.6778,11.4404,11.2857,11.1815,11.1221,11.1221,11.1221,11.0891,11.0304,10.99,10.7991,10.4504,10.0099,9.6942,9.4923,9.1803,9.0849,9.162,9.0335,9.0298,9.1253,9.1436,9.2244,9.3382,9.3382,9.4373,9.5804,9.5804,9.6171,9.6685,9.6685,9.7199,9.8007,9.8851,9.9622,10.0503,10.1494,10.1788,10.1898,10.2522,10.2999,10.3109,10.2301,10.3293,10.443,10.399,10.4908,10.5678,10.5201,10.5495,10.5899,10.6082,10.5899,10.5789,10.5789,10.4798,10.3586,10.2815,9.9659,9.5841,9.1767,8.861,8.5306,8.1452,8.1929,8.1856,8.0021,8.0388,8.0461,7.9874,0.0,7.9874,8.0131,8.2663,8.4352,8.4939,8.9491,9.2978,9.518,9.6612,9.7823,9.8851,10.0393,10.098,10.0613,10.1898,10.2081,10.1494,10.2118,10.2191,10.1788,10.1567,10.2008,10.2815,10.3586,10.4284,10.4908,10.6009,10.6376,10.6486,11.76,11.7677,11.7677,11.7677,11.8407,11.8908,11.8908,11.9715,12.0292,12.0292,12.06,12.0908,12.0985,12.1408,12.1188,12.0299,11.7838,11.5711,11.4343,11.3073,11.239,11.239,11.1983,11.1588,11.1181,10.9975,10.7587,10.388,10.1788,9.9548,9.7199,9.5034,9.3712,9.3051,9.217,9.1987,9.2391,9.2391,9.3088,9.4189,9.4189,9.496,9.6061,9.6061,9.6539,9.7236,9.7236,9.8007,9.9071,9.9512,10.0209,10.098,10.1788,10.2008,10.2081,10.2595,10.2705,10.2705,10.2191,10.2705,10.3513,10.3806,10.4908,10.5789,10.5715,10.5789,10.5789,10.5789,10.5495,10.5275,10.5275,10.421,10.2815,10.131,9.7676,9.3492,8.9014,8.6334,8.3875,8.1305,8.2774,8.3765,8.3251,8.4205,8.4242,8.2774,8.3251,8.3361,8.27,8.604,8.7655,8.6921,9.0922,9.3896,9.5474,9.7456,9.8851,9.9659,10.0907,10.1274,10.0907,10.1788,10.1898,10.1494,10.1971,10.1898,10.1494,10.1494,10.2008,10.2815,10.3586,10.4394,10.5201,10.6082,10.6376,10.6486,11.8908,11.91,11.91,11.91,11.9792,12.0292,12.01,12.0908,12.11,12.0216,12.0908,12.11,12.0408,12.11,12.1293,12.06,11.8892,11.7398,11.6442,11.4808,11.3911,11.3911,11.3108,11.2588,11.2509,11.0092,10.7294,10.41,10.3182,10.109,9.8043,9.7242,9.5699,9.3602,9.3492,9.3455,9.3455,9.3345,9.4153,9.5511,9.5511,9.5988,9.6685,9.6685,9.7126,9.7713,9.7713,9.8668,9.9952,9.9952,10.0503,10.1274,10.1898,10.2228,10.2301,10.2191,10.1788,10.1604,10.2301,10.2081,10.2081,10.3696,10.4614,10.5311,10.6192,10.5789,10.5311,10.5311,10.4798,10.4284,10.4284,10.3403,10.1898,9.9659,9.5584,9.1106,8.6444,8.4022,8.2443,8.1636,8.3985,8.6004,8.6811,8.8536,8.85,8.5894,8.7252,8.7362,8.5453,8.8793,9.0225,8.8977,9.1877,9.4299,9.6025,9.8227,9.9622,10.0283,10.109,10.1384,10.1274,10.1677,10.1677,10.1494,10.1788,10.1677,10.1494,10.1604,10.2081,10.2815,10.3696,10.4504,10.5201,10.6082,10.6376,10.6486,11.8908,11.91,11.91,11.91,11.9792,12.01,11.9408,11.9985,12.0216,11.9408,11.9985,12.0485,12.0292,12.11,12.1485,12.1408,11.9811,11.8089,11.6602,11.4869,11.3911,11.3911,11.3777,11.3323,11.2509,11.0092,10.7514,10.4908,10.3403,10.142,9.8888,9.802,9.7069,9.6028,9.5321,9.5024,9.4957,9.4373,9.4666,9.5511,9.5511,9.5988,9.6685,9.6685,9.6795,9.6906,9.6906,9.7493,9.8264,9.8264,9.8814,9.9512,9.9622,10.0099,10.0503,9.9879,10.0503,10.1494,10.1677,10.2081,10.2889,10.4504,10.5018,10.5311,10.6192,10.6302,10.6192,10.6192,10.6082,10.6009,10.6009,10.421,10.2118,10.0393,9.4997,8.9784,8.6297,8.5453,8.4939,8.4132,8.7986,9.1033,9.1877,9.1033,9.0482,9.0665,8.9124,8.8316,8.8647,9.0555,9.184,9.2317,9.4153,9.6245,9.8521,9.9585,10.0209,10.0283,10.109,10.109,10.0576,10.2595,10.2779,10.1567,10.2889,10.2779,10.1567,10.2191,10.2595,10.2815,10.432,10.5018,10.5201,10.6082,10.6376,10.6486,11.96,12.01,12.0408,12.0408,12.0793,12.0908,12.0485,12.0408,12.0216,11.9792,11.9715,11.9715,11.9715,12.0408,12.0908,12.0908,11.9696,11.8414,11.7193,11.6007,11.5322,11.5266,11.4925,11.3487,11.1318,11.0068,10.8062,10.5128,10.3917,10.2622,10.1019,10.0191,9.9366,9.8567,9.7274,9.6779,9.6675,9.5478,9.5401,9.6171,9.6171,9.6392,9.6685,9.6685,9.6979,9.7383,9.786,9.8521,9.9181,9.9181,9.9438,9.9659,9.9255,9.9365,9.9659,9.9732,10.0283,10.0907,10.1384,10.1788,10.2412,10.41,10.4504,10.4798,10.6082,10.6376,10.6376,10.6376,10.6376,10.6376,10.6376,10.4394,10.2008,9.9989,9.3822,8.8647,8.6738,8.4939,8.4535,8.6334,8.9271,9.184,9.3565,9.3051,9.2574,9.2501,9.1473,9.0996,9.1363,9.2501,9.3712,9.4997,9.6171,9.775,9.9732,10.0099,10.0503,10.098,10.1788,10.1714,10.098,10.2999,10.3293,10.2191,10.2889,10.3109,10.2779,10.2705,10.3219,10.41,10.4798,10.5422,10.5789,10.6302,10.6376,10.6596,12.01,12.0793,12.1408,12.16,12.16,12.16,12.16,12.0985,12.0485,12.0292,11.9908,11.96,11.9408,12.01,12.06,12.06,11.9496,11.8506,11.7804,11.6907,11.6296,11.6215,11.5611,11.3768,11.0719,11.0312,10.8622,10.5422,10.4614,10.3707,10.2711,10.2286,10.1608,10.0822,9.9205,9.8487,9.8385,9.651,9.6135,9.6685,9.6685,9.6685,9.6685,9.6685,9.7089,9.7713,9.8521,9.9218,9.9769,9.9952,9.9989,9.9916,9.9292,9.9255,9.9475,9.9879,10.0283,10.0796,10.1604,10.1788,10.2191,10.3806,10.421,10.4577,10.6082,10.6376,10.6486,10.6596,10.6486,10.6486,10.6596,10.4504,10.1898,9.9512,9.3455,8.8683,8.7729,8.5453,8.5159,8.861,9.0629,9.2574,9.4666,9.485,9.452,9.3712,9.3675,9.3602,9.3382,9.4153,9.5401,9.7199,9.8043,9.9035,10.0283,10.0503,10.0907,10.1494,10.2301,10.2301,10.1567,10.3403,10.3623,10.2705,10.3109,10.3513,10.388,10.3403,10.4027,10.5128,10.5311,10.5789,10.6376,10.6376,10.6376,10.6596,11.9985,12.0408,12.0677,12.1485,12.16,12.16,12.16,12.1485,12.1177,12.0408,12.0985,12.11,12.0292,12.0985,12.1485,12.1485,11.9915,11.8493,11.767,11.6814,11.6031,11.5304,11.5228,11.4275,11.2487,11.0904,10.8918,10.6302,10.5422,10.4224,10.2673,10.341,10.3302,10.2499,10.0766,10.008,9.9961,9.7613,9.6649,9.6685,9.6685,9.6685,9.6685,9.6685,9.6722,9.6906,9.7676,9.8007,9.819,9.8924,9.9181,9.9181,9.9145,9.9622,10.0099,9.9402,10.0209,10.1604,10.2412,10.2595,10.2999,10.4614,10.5018,10.5311,10.6192,10.6376,10.6596,10.7367,10.689,10.6596,10.7367,10.4908,10.1898,9.9512,9.485,9.0996,8.9454,8.905,8.9528,9.1326,9.3675,9.5511,9.6428,9.6502,9.6208,9.5401,9.5327,9.4997,9.4263,9.496,9.6502,9.8851,9.9695,10.0209,10.0283,10.098,10.1384,10.1494,10.2301,10.2301,10.1567,10.3917,10.421,10.2815,10.432,10.4504,10.399,10.4614,10.5018,10.5201,10.6009,10.6302,10.6376,10.6376,10.6376,10.6413,11.9292,11.9985,12.06,12.1408,12.16,12.16,12.16,12.11,12.0908,12.11,11.9985,11.9485,12.0216,12.0177,12.0292,12.0793,11.9132,11.7737,11.6928,11.549,11.511,11.5982,11.6003,11.5191,11.3477,11.2326,11.0158,10.7209,10.6268,10.5609,10.5015,10.4782,10.5082,10.5716,10.2977,10.1519,10.091,9.8499,9.7163,9.6685,9.6685,9.6685,9.6759,9.7236,9.7419,9.7603,9.8924,9.9402,9.9438,9.9732,9.9842,9.9769,9.9255,9.9659,10.0393,10.1127,10.2118,10.3182,10.399,10.3806,10.3696,10.4798,10.5128,10.5311,10.6192,10.6376,10.6596,10.7367,10.7,10.6596,10.7477,10.5275,10.2815,10.0907,9.6942,9.3896,9.3272,9.2317,9.2501,9.4593,9.6098,9.7126,9.7419,9.7897,9.764,9.6355,9.6722,9.6649,9.5841,9.7016,9.8374,9.9805,10.0613,10.098,10.098,10.1788,10.2008,10.1494,10.2815,10.2999,10.2301,10.4798,10.5311,10.421,10.4834,10.5201,10.5385,10.5201,10.5422,10.5899,10.6302,10.6376,10.6376,10.6376,10.6376,10.6486,11.8484,11.91,11.9792,12.0677,12.0793,12.0793,12.0793,12.0485,12.0485,12.11,11.9908,11.9408,12.06,12.0216,11.9985,12.0292,11.891,11.7416,11.6092,11.4638,11.4477,11.5993,11.6393,11.5783,11.4426,11.319,11.1208,10.8522,10.7324,10.646,10.602,10.5712,10.6125,10.6797,10.4007,10.2318,10.1287,9.8895,9.7431,9.6685,9.6685,9.6685,9.6795,9.7566,9.7897,9.8117,9.9732,10.0099,9.9989,10.0503,10.0503,10.0283,10.0209,10.0796,10.1604,10.2779,10.3623,10.4394,10.5018,10.4908,10.4798,10.5385,10.5495,10.5715,10.6596,10.6596,10.678,10.8064,10.7477,10.7,10.7771,10.6192,10.41,10.2191,9.9365,9.7309,9.7052,9.5841,9.5694,9.7603,9.808,9.8264,9.8264,9.8778,9.8631,9.753,9.7713,9.764,9.7126,9.8594,9.9732,10.0283,10.1604,10.2081,10.1898,10.2191,10.2008,10.1494,10.3109,10.3513,10.2815,10.5275,10.5899,10.5128,10.5422,10.5789,10.6376,10.5789,10.5899,10.6376,10.6376,10.6376,10.6376,10.6376,10.6376,10.6486,11.76,11.7792,11.81,11.8908,11.91,11.91,11.91,11.9792,12.0292,12.0292,12.0985,12.16,12.16,12.16,12.1177,12.0408,11.9428,11.7794,11.5185,11.4288,11.4301,11.5192,11.6003,11.609,11.5228,11.3493,11.181,11.0125,10.8394,10.6844,10.5207,10.5992,10.603,10.5104,10.3464,10.2266,10.1309,9.8862,9.7388,9.6685,9.6722,9.6722,9.6795,9.7603,9.7897,9.8117,9.9732,9.9805,9.9365,10.098,10.098,10.0613,10.2191,10.3293,10.388,10.388,10.4504,10.5128,10.5128,10.5715,10.6376,10.6376,10.6376,10.6596,10.7367,10.7,10.7073,10.9496,10.8688,10.7771,10.8615,10.7477,10.5605,10.3109,10.2008,10.12,10.0393,9.9659,9.9438,10.0209,9.9622,9.9145,9.9108,9.9145,9.9108,9.9108,9.8374,9.7897,9.7897,9.9438,10.0283,10.0319,10.2595,10.3513,10.2705,10.1898,10.1494,10.1494,10.3109,10.3513,10.2815,10.5275,10.5899,10.5201,10.6009,10.6376,10.6376,10.6376,10.6376,10.6376,10.6376,10.6376,10.6376,10.6376,10.6376,10.6376,11.76,11.7792,11.81,11.8908,11.91,11.91,11.91,11.9292,11.9715,12.0216,11.9985,12.0292,12.1485,12.06,11.9985,12.0292,11.8395,11.6129,11.3448,11.3722,11.4005,11.4301,11.5715,11.6393,11.609,11.4405,11.2985,11.1885,10.9569,10.821,10.774,10.6168,10.6013,10.6806,10.4609,10.3074,10.219,10.028,9.8774,9.7496,9.7541,9.753,9.7676,9.9071,9.9916,10.0576,10.1604,10.1824,10.1714,10.2191,10.1788,10.1384,10.2999,10.41,10.4908,10.5495,10.5789,10.5899,10.5311,10.5715,10.6376,10.6376,10.6376,10.6486,10.6706,10.7,10.7404,10.8175,10.7881,10.7661,10.7881,10.7073,10.5789,10.388,10.3806,10.3513,10.2191,10.2301,10.2301,10.2008,10.1788,10.12,10.0099,10.0503,10.0319,9.9181,9.8888,9.8741,9.8741,9.9732,10.0796,10.1898,10.2705,10.3219,10.3513,10.3293,10.2889,10.2412,10.3403,10.3806,10.3586,10.5495,10.6302,10.6009,10.6302,10.6376,10.6376,10.6376,10.6376,10.6376,10.6376,10.6376,10.6376,10.6376,10.6376,10.6376,11.7215,11.7292,11.7484,11.7984,11.81,11.81,11.81,11.8407,11.8908,11.9715,11.9408,11.9715,12.1408,12.01,11.9292,11.9792,11.7476,11.518,11.3183,11.394,11.4301,11.3873,11.5611,11.6484,11.6484,11.5116,11.3733,11.2127,11.0234,10.8557,10.7316,10.588,10.571,10.6619,10.4818,10.3466,10.2575,10.1039,9.9544,9.8321,9.7985,9.8264,9.8961,9.9916,10.098,10.2008,10.2522,10.2889,10.3182,10.3182,10.3109,10.3109,10.41,10.4908,10.5715,10.6192,10.6376,10.6302,10.5789,10.6009,10.6376,10.6376,10.6376,10.6486,10.678,10.7294,10.7697,10.7991,10.8101,10.7991,10.7661,10.7183,10.6376,10.5091,10.5311,10.5311,10.432,10.4284,10.421,10.3696,10.3403,10.2705,10.1384,10.1677,10.131,9.9695,9.9879,9.9989,9.9989,10.0503,10.1384,10.2705,10.2705,10.2925,10.3403,10.3403,10.2999,10.2191,10.3403,10.3696,10.3513,10.5495,10.6192,10.5899,10.6302,10.6376,10.6376,10.6009,10.6082,10.6376,10.6009,10.6082,10.6376,10.6376,10.6376,10.6376,11.6484,11.6484,11.6484,11.6484,11.6484,11.6484,11.6484,11.7215,11.7984,11.8908,11.91,11.9715,12.1177,11.9985,11.91,11.8985,11.671,11.4887,11.4108,11.4769,11.4811,11.4081,11.5573,11.6484,11.6484,11.5587,11.3878,11.1614,11.0526,10.8399,10.5404,10.5244,10.5114,10.5184,10.4302,10.349,10.2625,10.1181,10.008,9.9134,9.854,9.9113,10.0319,10.0503,10.1494,10.2815,10.2889,10.3403,10.399,10.388,10.4394,10.5128,10.5128,10.5715,10.6376,10.6376,10.6376,10.6376,10.6302,10.6302,10.6376,10.6302,10.6302,10.6596,10.7294,10.7477,10.7771,10.8395,10.8615,10.8395,10.7587,10.7477,10.7294,10.6486,10.6376,10.6376,10.6376,10.5715,10.5201,10.5128,10.4504,10.3696,10.2889,10.2815,10.2191,10.0613,10.12,10.1567,10.1494,10.1494,10.1898,10.2705,10.2705,10.2705,10.2705,10.2705,10.2301,10.1604,10.3182,10.3513,10.2815,10.5275,10.5899,10.5018,10.5899,10.6192,10.6082,10.5311,10.5495,10.6192,10.5422,10.5605,10.6376,10.6376,10.6376,10.6376,11.6484,11.6484,11.6484,11.6484,11.6484,11.6484,11.6484,11.6676,11.71,11.7984,11.8715,11.9215,11.96,11.9292,11.8792,11.81,11.6289,11.5116,11.4907,11.5116,11.5116,11.4907,11.5867,11.6484,11.6484,11.5013,11.3935,11.3423,11.0507,10.867,10.7883,10.541,10.4498,10.5156,10.4317,10.3508,10.2575,10.3007,10.1881,10.0118,10.1215,10.1054,10.0503,10.2412,10.3293,10.3696,10.4394,10.4724,10.4724,10.41,10.4394,10.5128,10.5128,10.5715,10.6376,10.6376,10.6376,10.6302,10.5605,10.5899,10.6192,10.5605,10.5899,10.6413,10.6596,10.7073,10.7477,10.7,10.7404,10.7587,10.678,10.667,10.6596,10.6413,10.6376,10.6376,10.6376,10.6192,10.5899,10.5201,10.4908,10.4504,10.3696,10.3586,10.3219,10.2301,10.2301,10.2191,10.1494,10.1494,10.1898,10.2705,10.2705,10.2705,10.2705,10.2705,10.2595,10.2485,10.3403,10.3513,10.2815,10.5275,10.5605,10.421,10.5018,10.5018,10.4394,10.421,10.4614,10.5422,10.5201,10.5605,10.6376,10.6376,10.6376,10.6376,11.6484,11.6484,11.6484,11.6484,11.6484,11.6484,11.6484,11.6484,11.6792,11.7715,11.7792,11.8215,11.8985,11.8407,11.7677,11.7215,11.632,11.5587,11.5228,11.5573,11.5625,11.5172,11.6003,11.6484,11.6484,11.4776,11.3699,11.3303,11.1119,10.9372,10.8224,10.5251,10.4408,10.5132,10.3493,10.2991,10.3185,10.2927,10.2507,10.2018,10.2497,10.2426,10.2191,10.3403,10.41,10.4504,10.4908,10.5605,10.6302,10.6302,10.6302,10.6302,10.6302,10.6302,10.6376,10.6376,10.6376,10.6302,10.5789,10.6082,10.6302,10.5789,10.6082,10.6376,10.6376,10.7,10.7367,10.6596,10.7,10.7477,10.7073,10.667,10.6486,10.689,10.667,10.6376,10.6376,10.6376,10.6192,10.5789,10.5715,10.5385,10.4614,10.41,10.3696,10.3293,10.3293,10.3109,10.2705,10.2301,10.2301,10.2705,10.2301,10.2081,10.2081,10.2081,10.2301,10.2705,10.3513,10.3513,10.2815,10.4798,10.5091,10.388,10.432,10.4284,10.388,10.3513,10.4027,10.5018,10.432,10.4981,10.6302,10.5899,10.6009,10.6302,11.6484,11.6484,11.6484,11.6484,11.6484,11.6484,11.6484,11.6484,11.6792,11.7484,11.71,11.7176,11.8484,11.7407,11.6484,11.6484,11.6484,11.6176,11.5467,11.5993,11.6003,11.5391,11.5801,11.6124,11.6292,11.4791,11.3719,11.3098,11.166,10.9998,10.796,10.5257,10.4403,10.4876,10.2826,10.2472,10.339,10.2374,10.2607,10.3715,10.3288,10.3426,10.3696,10.4173,10.4614,10.5018,10.5422,10.6486,10.7881,10.8578,10.8285,10.7587,10.7587,10.7,10.6376,10.6376,10.6376,10.6376,10.6376,10.6376,10.6376,10.6376,10.6376,10.6376,10.6376,10.689,10.7183,10.6486,10.689,10.7367,10.7367,10.678,10.6596,10.7294,10.678,10.6376,10.6376,10.6376,10.6376,10.6376,10.6376,10.6082,10.5422,10.4687,10.4284,10.41,10.399,10.3806,10.3696,10.2889,10.2485,10.2485,10.1788,10.1567,10.1677,10.1567,10.1898,10.2705,10.3403,10.3293,10.2815,10.4394,10.4504,10.3476,10.3586,10.3586,10.3403,10.2815,10.3403,10.4614,10.3219,10.399,10.5899,10.5201,10.5385,10.5899,11.6484,11.6484,11.6484,11.6484,11.6484,11.6484,11.6484,11.6484,11.6484,11.6676,11.7215,11.7407,11.6907,11.6599,11.6484,11.6484,11.6484,11.64,11.6316,11.5677,11.5702,11.6309,11.4988,11.4605,11.5407,11.4484,11.4286,11.4887,11.1121,10.9395,10.9792,10.6501,10.4623,10.4088,10.3725,10.2926,10.1862,10.3138,10.34,10.3037,10.4275,10.413,10.3109,10.5201,10.5201,10.432,10.6486,10.7881,10.8688,10.8799,10.8285,10.7587,10.7587,10.7,10.6376,10.6376,10.6376,10.6376,10.6376,10.6376,10.6376,10.6376,10.6376,10.6376,10.6376,10.6486,10.6486,10.6413,10.6486,10.6596,10.6596,10.6486,10.6413,10.6486,10.6486,10.6376,10.6376,10.6376,10.6376,10.6376,10.6376,10.6376,10.6192,10.6082,10.5715,10.5018,10.4284,10.3586,10.2889,10.2081,10.1677,10.1677,10.1567,10.1788,10.2522,10.1788,10.1898,10.2705,10.2815,10.2815,10.2815,10.4394,10.3917,10.1898,10.2595,10.2485,10.1788,10.1677,10.2191,10.2999,10.2815,10.3293,10.421,10.41,10.41,10.421,11.6484,11.6484,11.6484,11.6484,11.6484,11.6484,11.6484,11.6484,11.6484,11.6484,11.6792,11.6907,11.6484,11.6484,11.6484,11.6484,11.6484,11.6484,11.6484,11.5715,11.5413,11.5804,11.4108,11.3784,11.523,11.3507,11.351,11.5291,11.1908,11.003,10.9421,10.6958,10.5368,10.4467,10.3186,10.2723,10.2822,10.2677,10.3207,10.4092,10.4424,10.4019,10.3513,10.4577,10.4504,10.4284,10.7183,10.8799,10.9496,11.001,10.9606,10.8872,10.8872,10.8064,10.7073,10.7073,10.678,10.6376,10.6376,10.6376,10.6376,10.6376,10.6376,10.6376,10.6376,10.6376,10.6376,10.6376,10.6376,10.6486,10.7,10.6706,10.6486,10.7,10.6706,10.6376,10.6376,10.6376,10.6376,10.6376,10.6376,10.6376,10.6376,10.6376,10.6009,10.5201,10.4798,10.4027,10.2815,10.2412,10.1971,10.1494,10.1494,10.1677,10.2008,10.1677,10.1898,10.2705,10.2705,10.2485,10.2081,10.2779,10.2301,10.0796,10.12,10.0907,10.0209,10.109,10.1384,10.1384,10.1898,10.2191,10.2595,10.2595,10.2815,10.3182]},{"header":{"parameterUnit":"m.s-1","parameterCategory":1,"la1":30.6,"la2":28.766,"lo1":-90.7593,"lo2":-88.6598,"dy":0.0162,"dx":0.0183,"nx":116,"ny":114,"refTime":"2023-10-15T18:00:00:Z","depth":0,"parameterNumber":3,"parameterNumberName":"V-component_of_WINDS"},"data":[0.0,0.0,0.0,0.0,0.0,0.0,0.0,0.0,0.0,0.0,0.0,0.0,0.0,0.0,0.0,0.0,0.0,0.0,0.0,0.0,0.0,0.0,0.0,0.0,0.0,0.0,0.0,0.0,0.0,0.0,0.0,0.0,0.0,0.0,0.0,0.0,0.0,0.0,0.0,0.0,0.0,0.0,0.0,0.0,0.0,0.0,0.0,0.0,0.0,0.0,0.0,0.0,0.0,0.0,0.0,0.0,0.0,0.0,0.0,0.0,0.0,0.0,0.0,0.0,0.0,0.0,0.0,0.0,0.0,0.0,0.0,0.0,0.0,0.0,0.0,0.0,0.0,0.0,0.0,0.0,0.0,0.0,0.0,0.0,0.0,0.0,0.0,0.0,0.0,0.0,0.0,0.0,0.0,0.0,0.0,0.0,0.0,0.0,0.0,0.0,0.0,0.0,0.0,0.0,0.0,0.0,0.0,0.0,0.0,0.0,0.0,0.0,0.0,0.0,0.0,0.0,0.0,0.0,0.0,0.0,0.0,0.0,0.0,0.0,0.0,0.0,0.0,0.0,0.0,0.0,0.0,0.0,0.0,0.0,0.0,0.0,0.0,0.0,0.0,0.0,0.0,0.0,0.0,0.0,0.0,0.0,0.0,0.0,0.0,0.0,0.0,0.0,0.0,0.0,0.0,0.0,0.0,0.0,0.0,0.0,0.0,0.0,0.0,0.0,0.0,0.0,0.0,0.0,0.0,0.0,0.0,0.0,0.0,0.0,0.0,0.0,0.0,0.0,0.0,0.0,0.0,0.0,0.0,0.0,0.0,0.0,0.0,0.0,0.0,0.0,0.0,0.0,0.0,0.0,0.0,0.0,0.0,0.0,0.0,0.0,0.0,0.0,0.0,0.0,0.0,0.0,0.0,0.0,0.0,0.0,0.0,0.0,0.0,0.0,0.0,0.0,0.0,0.0,0.0,0.0,0.0,0.0,0.0,0.0,0.0,0.0,0.0,0.0,0.0,0.0,0.0,0.0,0.0,0.0,0.0,0.0,0.0,0.0,0.0,0.0,0.0,0.0,0.0,0.0,0.0,0.0,0.0,0.0,0.0,0.0,0.0,0.0,0.0,0.0,0.0,0.0,0.0,0.0,0.0,0.0,0.0,0.0,0.0,0.0,0.0,0.0,0.0,0.0,0.0,0.0,0.0,0.0,0.0,0.0,0.0,0.0,0.0,0.0,0.0,0.0,0.0,0.0,0.0,0.0,0.0,0.0,0.0,0.0,0.0,0.0,0.0,0.0,0.0,0.0,0.0,0.0,0.0,0.0,0.0,0.0,0.0,0.0,0.0,0.0,0.0,0.0,0.0,0.0,0.0,0.0,0.0,0.0,0.0,0.0,0.0,0.0,0.0,0.0,0.0,0.0,0.0,0.0,0.0,0.0,0.0,0.0,0.0,0.0,0.0,0.0,0.0,0.0,0.0,0.0,0.0,0.0,0.0,0.0,0.0,0.0,0.0,0.0,0.0,0.0,0.0,0.0,0.0,0.0,0.0,0.0,0.0,0.0,0.0,0.0,0.0,0.0,0.0,0.0,0.0,0.0,0.0,0.0,0.0,0.0,0.0,0.0,0.0,0.0,0.0,0.0,0.0,0.0,0.0,0.0,0.0,0.0,0.0,0.0,0.0,0.0,0.0,0.0,0.0,0.0,0.0,0.0,0.0,0.0,0.0,0.0,0.0,0.0,0.0,0.0,0.0,0.0,0.0,0.0,0.0,0.0,0.0,0.0,0.0,0.0,0.0,0.0,0.0,0.0,0.0,0.0,0.0,0.0,0.0,0.0,0.0,0.0,0.0,0.0,0.0,0.0,0.0,0.0,0.0,0.0,0.0,0.0,0.0,0.0,0.0,0.0,0.0,0.0,0.0,0.0,0.0,0.0,0.0,0.0,0.0,0.0,0.0,0.0,0.0,0.0,0.0,0.0,0.0,0.0,0.0,0.0,0.0,0.0,0.0,0.0,0.0,0.0,0.0,0.0,0.0,0.0,0.0,0.0,0.0,0.0,0.0,0.0,0.0,0.0,0.0,0.0,0.0,0.0,0.0,0.0,0.0,0.0,0.0,0.0,0.0,0.0,0.0,0.0,0.0,0.0,0.0,0.0,0.0,0.0,0.0,0.0,0.0,0.0,0.0,0.0,0.0,0.0,0.0,0.0,0.0,0.0,0.0,0.0,0.0,0.0,0.0,0.0,0.0,0.0,0.0,0.0,0.0,0.0,0.0,0.0,0.0,0.0,0.0,0.0,0.0,0.0,0.0,0.0,0.0,0.0,0.0,0.0,0.0,0.0,0.0,0.0,0.0,0.0,0.0,0.0,0.0,0.0,0.0,0.0,0.0,0.0,0.0,0.0,0.0,0.0,0.0,0.0,0.0,0.0,0.0,0.0,0.0,0.0,0.0,0.0,0.0,0.0,0.0,0.0,0.0,0.0,0.0,0.0,0.0,0.0,0.0,0.0,0.0,0.0,0.0,0.0,0.0,0.0,0.0,0.0,0.0,0.0,0.0,0.0,0.0,0.0,0.0,0.0,0.0,0.0,0.0,0.0,0.0,0.0,0.0,0.0,0.0,0.0,0.0,0.0,0.0,0.0,0.0,0.0,0.0,0.0,0.0,0.0,0.0,0.0,0.0,0.0,0.0,0.0,0.0,0.0,0.0,0.0,0.0,0.0,0.0,0.0,0.0,0.0,0.0,0.0,0.0,0.0,0.0,0.0,0.0,0.0,0.0,0.0,0.0,0.0,0.0,0.0,0.0,0.0,0.0,0.0,0.0,0.0,0.0,0.0,0.0,0.0,0.0,0.0,0.0,0.0,0.0,0.0,0.0,0.0,0.0,0.0,0.0,0.0,0.0,0.0,0.0,0.0,0.0,0.0,0.0,0.0,0.0,0.0,0.0,0.0,0.0,0.0,0.0,0.0,0.0,0.0,0.0,0.0,0.0,0.0,0.0,0.0,0.0,0.0,0.0,0.0,0.0,0.0,0.0,0.0,0.0,0.0,0.0,0.0,0.0,0.0,0.0,0.0,0.0,0.0,0.0,0.0,0.0,0.0,0.0,0.0,0.0,0.0,0.0,0.0,0.0,0.0,0.0,0.0,0.0,0.0,0.0,0.0,0.0,0.0,0.0,0.0,0.0,0.0,0.0,0.0,0.0,0.0,0.0,0.0,0.0,0.0,0.0,0.0,0.0,0.0,0.0,0.0,0.0,0.0,0.0,0.0,0.0,0.0,0.0,0.0,0.0,0.0,0.0,0.0,0.0,0.0,0.0,0.0,0.0,0.0,0.0,0.0,0.0,0.0,0.0,0.0,0.0,0.0,0.0,0.0,0.0,0.0,0.0,0.0,0.0,0.0,0.0,0.0,0.0,0.0,0.0,0.0,0.0,0.0,0.0,0.0,0.0,0.0,0.0,0.0,0.0,0.0,0.0,0.0,0.0,0.0,0.0,0.0,0.0,0.0,0.0,0.0,0.0,0.0,0.0,0.0,0.0,0.0,0.0,0.0,0.0,0.0,0.0,0.0,0.0,0.0,0.0,0.0,0.0,0.0,0.0,0.0,0.0,0.0,0.0,0.0,0.0,0.0,0.0,0.0,0.0,0.0,0.0,0.0,0.0,0.0,0.0,0.0,0.0,0.0,0.0,0.0,0.0,0.0,0.0,0.0,0.0,0.0,0.0,0.0,0.0,0.0,0.0,0.0,0.0,0.0,0.0,0.0,0.0,0.0,0.0,0.0,0.0,0.0,0.0,0.0,0.0,0.0,0.0,0.0,0.0,0.0,0.0,0.0,0.0,0.0,0.0,0.0,0.0,0.0,0.0,0.0,0.0,0.0,0.0,0.0,0.0,0.0,0.0,0.0,0.0,0.0,0.0,0.0,0.0,0.0,0.0,0.0,0.0,0.0,0.0,0.0,0.0,0.0,0.0,0.0,0.0,0.0,0.0,0.0,0.0,0.0,0.0,0.0,0.0,0.0,0.0,0.0,0.0,0.0,0.0,0.0,0.0,0.0,0.0,0.0,0.0,0.0,0.0,0.0,0.0,0.0,0.0,0.0,0.0,0.0,0.0,0.0,0.0,0.0,0.0,0.0,0.0,0.0,0.0,0.0,0.0,0.0,0.0,0.0,0.0,0.0,0.0,0.0,0.0,0.0,0.0,0.0,0.0,0.0,0.0,0.0,0.0,0.0,0.0,0.0,0.0,0.0,0.0,0.0,0.0,0.0,0.0,0.0,0.0,0.0,0.0,0.0,0.0,0.0,0.0,0.0,0.0,0.0,0.0,0.0,0.0,0.0,0.0,0.0,0.0,0.0,0.0,0.0,0.0,0.0,0.0,0.0,0.0,0.0,0.0,0.0,0.0,0.0,0.0,0.0,0.0,0.0,0.0,0.0,0.0,0.0,0.0,0.0,0.0,0.0,0.0,0.0,0.0,0.0,0.0,0.0,0.0,0.0,0.0,0.0,0.0,0.0,0.0,0.0,0.0,0.0,0.0,0.0,0.0,0.0,0.0,0.0,0.0,0.0,0.0,0.0,0.0,0.0,0.0,0.0,0.0,0.0,0.0,0.0,0.0,0.0,0.0,0.0,0.0,0.0,0.0,0.0,0.0,0.0,0.0,0.0,0.0,0.0,0.0,0.0,0.0,0.0,0.0,0.0,0.0,0.0,0.0,0.0,0.0,0.0,0.0,0.0,0.0,0.0,0.0,0.0,0.0,0.0,0.0,0.0,0.0,0.0,0.0,0.0,0.0,0.0,0.0,0.0,0.0,0.0,0.0,0.0,0.0,0.0,0.0,0.0,0.0,0.0,0.0,0.0,0.0,0.0,0.0,0.0,0.0,0.0,0.0,0.0,0.0,0.0,0.0,0.0,0.0,0.0,0.0,0.0,0.0,0.0,0.0,0.0,0.0,0.0,0.0,0.0,0.0,0.0,0.0,0.0,0.0,0.0,0.0,0.0,0.0,0.0,0.0,0.0,0.0,0.0,0.0,0.0,0.0,0.0,0.0,0.0,0.0,0.0,0.0,0.0,0.0,0.0,0.0,0.0,0.0,0.0,0.0,0.0,0.0,0.0,0.0,0.0,0.0,0.0,0.0,0.0,0.0,0.0,0.0,0.0,0.0,0.0,0.0,0.0,0.0,0.0,0.0,0.0,0.0,0.0,0.0,0.0,0.0,0.0,0.0,0.0,0.0,0.0,0.0,0.0,0.0,0.0,0.0,0.0,0.0,0.0,0.0,0.0,0.0,0.0,0.0,0.0,0.0,0.0,0.0,0.0,0.0,0.0,0.0,0.0,0.0,0.0,0.0,0.0,0.0,0.0,0.0,0.0,0.0,0.0,0.0,0.0,0.0,0.0,0.0,0.0,0.0,0.0,0.0,0.0,0.0,0.0,0.0,0.0,0.0,0.0,0.0,0.0,0.0,0.0,0.0,0.0,0.0,0.0,0.0,0.0,0.0,0.0,0.0,0.0,0.0,0.0,0.0,0.0,0.0,0.0,0.0,0.0,0.0,0.0,0.0,0.0,0.0,0.0,0.0,0.0,0.0,0.0,0.0,0.0,0.0,0.0,0.0,0.0,0.0,0.0,0.0,0.0,0.0,0.0,0.0,0.0,0.0,0.0,0.0,0.0,0.0,0.0,0.0,0.0,0.0,0.0,0.0,0.0,0.0,0.0,0.0,0.0,0.0,0.0,0.0,0.0,0.0,0.0,0.0,0.0,0.0,0.0,0.0,0.0,0.0,0.0,0.0,0.0,0.0,0.0,0.0,0.0,0.0,0.0,0.0,0.0,0.0,0.0,0.0,0.0,0.0,0.0,0.0,0.0,0.0,0.0,0.0,0.0,0.0,0.0,0.0,0.0,0.0,0.0,0.0,0.0,0.0,0.0,0.0,0.0,0.0,0.0,0.0,0.0,0.0,0.0,0.0,0.0,0.0,0.0,0.0,0.0,0.0,0.0,0.0,0.0,0.0,0.0,0.0,0.0,0.0,0.0,0.0,0.0,0.0,0.0,0.0,0.0,0.0,0.0,0.0,0.0,0.0,0.0,0.0,0.0,0.0,0.0,-2.1323,0.0,0.0,0.0,0.0,0.0,0.0,0.0,0.0,0.0,0.0,0.0,0.0,0.0,0.0,0.0,0.0,0.0,0.0,0.0,0.0,0.0,0.0,0.0,0.0,0.0,0.0,0.0,0.0,0.0,0.0,0.0,0.0,0.0,0.0,0.0,0.0,0.0,0.0,0.0,0.0,0.0,0.0,0.0,0.0,0.0,0.0,0.0,0.0,0.0,0.0,0.0,0.0,0.0,0.0,0.0,0.0,0.0,0.0,0.0,0.0,0.0,0.0,0.0,0.0,0.0,0.0,0.0,0.0,0.0,0.0,0.0,0.0,0.0,0.0,0.0,0.0,0.0,0.0,0.0,0.0,0.0,0.0,0.0,0.0,0.0,0.0,0.0,0.0,0.0,0.0,0.0,0.0,0.0,0.0,0.0,0.0,0.0,0.0,0.0,0.0,0.0,0.0,0.0,0.0,0.0,0.0,0.0,0.0,0.0,0.0,0.0,0.0,0.0,0.0,0.0,0.0,-2.2138,0.0,0.0,0.0,0.0,0.0,0.0,0.0,0.0,0.0,0.0,0.0,0.0,0.0,0.0,0.0,0.0,0.0,0.0,0.0,0.0,0.0,0.0,0.0,0.0,0.0,0.0,0.0,0.0,0.0,0.0,0.0,0.0,0.0,0.0,0.0,0.0,0.0,0.0,0.0,0.0,0.0,0.0,0.0,0.0,0.0,0.0,0.0,0.0,0.0,0.0,0.0,0.0,0.0,0.0,0.0,0.0,0.0,0.0,0.0,0.0,0.0,0.0,0.0,0.0,0.0,0.0,0.0,0.0,0.0,0.0,0.0,0.0,0.0,0.0,0.0,0.0,0.0,0.0,0.0,0.0,0.0,0.0,0.0,0.0,0.0,0.0,0.0,0.0,0.0,0.0,0.0,0.0,0.0,0.0,0.0,0.0,0.0,0.0,0.0,0.0,0.0,0.0,0.0,0.0,0.0,0.0,0.0,0.0,-2.7001,-2.7308,-2.7442,-2.7442,-2.7175,-2.6653,-2.5384,-2.4128,-2.2993,0.0,0.0,0.0,0.0,0.0,0.0,0.0,0.0,0.0,0.0,0.0,0.0,0.0,0.0,0.0,0.0,0.0,0.0,0.0,0.0,0.0,0.0,0.0,0.0,0.0,0.0,0.0,0.0,0.0,0.0,0.0,0.0,0.0,0.0,0.0,0.0,0.0,0.0,0.0,0.0,0.0,0.0,0.0,0.0,0.0,0.0,0.0,0.0,0.0,0.0,0.0,0.0,0.0,0.0,0.0,0.0,0.0,0.0,0.0,0.0,0.0,0.0,0.0,0.0,0.0,0.0,0.0,0.0,0.0,0.0,0.0,0.0,0.0,0.0,0.0,0.0,0.0,0.0,0.0,0.0,0.0,0.0,0.0,0.0,0.0,0.0,0.0,-2.2937,-2.1592,0.0,0.0,0.0,0.0,0.0,0.0,0.0,0.0,0.0,0.0,0.0,0.0,0.0,0.0,-2.6734,-2.7843,-2.8484,-2.8644,-2.9967,-3.0341,-2.99,-2.99,-2.986,-2.9753,-2.9299,0.0,-2.505,-2.4369,0.0,0.0,0.0,0.0,0.0,0.0,0.0,0.0,0.0,0.0,0.0,0.0,0.0,0.0,0.0,0.0,0.0,0.0,0.0,0.0,0.0,0.0,0.0,0.0,0.0,0.0,0.0,0.0,0.0,0.0,0.0,0.0,0.0,0.0,0.0,0.0,0.0,0.0,0.0,0.0,0.0,0.0,0.0,0.0,0.0,0.0,0.0,0.0,0.0,0.0,0.0,0.0,0.0,0.0,0.0,0.0,0.0,0.0,0.0,0.0,0.0,0.0,0.0,0.0,0.0,0.0,0.0,0.0,0.0,0.0,0.0,0.0,0.0,0.0,0.0,0.0,0.0,0.0,0.0,0.0,0.0,0.0,0.0,0.0,0.0,-2.4139,-2.2855,-2.1719,-2.2258,-2.2552,0.0,0.0,0.0,0.0,0.0,0.0,0.0,0.0,0.0,-2.6333,-2.7255,-2.807,-2.8751,-2.9766,-3.0595,-3.1263,-3.2064,-3.2412,-3.2345,-3.2345,-3.2238,-3.2064,-3.1944,-3.0875,-2.9072,-2.7188,-2.5959,-2.5117,0.0,0.0,0.0,0.0,-2.3554,-2.3915,0.0,0.0,0.0,0.0,0.0,0.0,0.0,0.0,0.0,0.0,0.0,0.0,0.0,0.0,0.0,-1.9055,0.0,0.0,0.0,0.0,0.0,0.0,0.0,0.0,0.0,0.0,0.0,0.0,0.0,0.0,0.0,0.0,0.0,0.0,0.0,0.0,0.0,0.0,0.0,0.0,0.0,0.0,0.0,0.0,0.0,0.0,0.0,0.0,0.0,0.0,0.0,0.0,0.0,0.0,0.0,0.0,0.0,0.0,0.0,0.0,0.0,0.0,0.0,0.0,0.0,0.0,0.0,0.0,0.0,0.0,0.0,0.0,0.0,0.0,0.0,0.0,0.0,-2.4086,-2.2913,-2.2098,-2.3313,-2.3861,0.0,0.0,0.0,0.0,0.0,0.0,-2.6119,-2.7028,-2.7802,-2.847,-2.9579,-3.0327,-3.0702,-3.157,-3.2452,-3.332,-3.3841,-3.4215,-3.4442,-3.4442,-3.4322,-3.4082,-3.3948,-3.3467,-3.2572,-2.9913,-2.8123,-2.6947,-2.5692,-2.5064,-2.4877,-2.4943,-2.5157,-2.5451,0.0,0.0,0.0,0.0,0.0,0.0,0.0,0.0,0.0,0.0,0.0,0.0,0.0,0.0,-1.9173,-1.8977,-1.8118,-1.6907,0.0,0.0,0.0,0.0,0.0,0.0,0.0,0.0,0.0,0.0,0.0,0.0,0.0,0.0,0.0,0.0,0.0,0.0,0.0,0.0,0.0,0.0,0.0,0.0,0.0,0.0,0.0,0.0,0.0,0.0,0.0,0.0,0.0,0.0,0.0,0.0,0.0,0.0,0.0,0.0,0.0,0.0,0.0,0.0,0.0,0.0,0.0,0.0,0.0,0.0,0.0,0.0,0.0,0.0,0.0,0.0,0.0,0.0,0.0,0.0,0.0,-2.3313,-2.5251,0.0,0.0,0.0,0.0,-2.5758,-2.6333,-2.7041,-2.7963,-2.8858,-2.974,-3.0608,-3.1503,-3.2251,-3.2812,-3.3708,-3.4189,-3.4269,-3.5391,-3.5952,-3.5965,-3.5965,-3.5952,-3.5912,-3.5351,-3.4923,-3.4429,-3.1757,-2.9967,-2.8764,-2.7281,-2.6707,-2.6627,-2.6092,-2.6079,-2.6319,0.0,0.0,0.0,0.0,0.0,0.0,0.0,0.0,0.0,0.0,0.0,0.0,0.0,-2.0637,-1.9345,-1.9493,-1.705,-1.5211,-1.4142,0.0,0.0,0.0,0.0,0.0,0.0,0.0,0.0,0.0,0.0,0.0,0.0,0.0,0.0,0.0,0.0,0.0,0.0,0.0,0.0,0.0,0.0,0.0,0.0,0.0,0.0,0.0,0.0,0.0,0.0,0.0,0.0,0.0,0.0,0.0,0.0,0.0,0.0,0.0,0.0,0.0,0.0,0.0,0.0,0.0,0.0,0.0,0.0,0.0,0.0,0.0,0.0,0.0,0.0,0.0,0.0,0.0,0.0,0.0,0.0,-2.6079,-2.7562,0.0,0.0,-2.6987,-2.7175,-2.815,-2.8417,-2.9245,-3.0889,-3.1637,-3.2505,-3.3587,-3.4295,-3.4843,-3.5244,-3.5752,-3.6099,-3.6299,-3.6727,-3.6914,-3.6914,-3.6914,-3.6794,-3.662,-3.6393,-3.6046,-3.5511,-3.4376,-3.2759,-3.0902,-2.9806,-2.9152,-2.8804,-2.8791,-2.8858,-2.8978,0.0,0.0,0.0,0.0,0.0,0.0,0.0,0.0,0.0,0.0,0.0,-2.4127,-2.3762,-2.1112,-1.9757,-2.0826,-1.7065,-1.4299,-1.381,0.0,0.0,0.0,0.0,0.0,0.0,0.0,0.0,0.0,0.0,0.0,0.0,0.0,0.0,0.0,0.0,0.0,0.0,0.0,0.0,0.0,0.0,0.0,-2.3728,0.0,0.0,0.0,0.0,0.0,0.0,0.0,0.0,0.0,0.0,0.0,0.0,0.0,0.0,0.0,0.0,0.0,0.0,0.0,0.0,0.0,0.0,0.0,0.0,0.0,0.0,0.0,0.0,0.0,0.0,0.0,0.0,0.0,0.0,0.0,-2.7428,-2.8203,-2.978,-3.0541,-2.9847,-2.9513,-2.974,-3.0728,-3.0996,-3.1837,-3.3494,-3.4229,-3.4923,-3.5618,-3.6299,-3.6647,-3.6647,-3.7048,-3.7275,-3.7382,-3.7676,-3.7823,-3.7849,-3.7929,-3.7809,-3.7529,-3.7422,-3.7048,-3.6513,-3.6193,-3.4977,-3.3173,-3.1984,-3.1289,-3.0942,-3.0835,-3.0862,-3.0969,0.0,0.0,0.0,0.0,0.0,0.0,0.0,0.0,0.0,0.0,-2.4074,-2.4689,-2.5442,-2.2056,-2.0647,-2.2903,-1.7884,-1.4536,-1.4516,-1.5039,0.0,0.0,0.0,0.0,0.0,0.0,0.0,0.0,0.0,0.0,0.0,0.0,0.0,0.0,0.0,0.0,0.0,0.0,0.0,0.0,0.0,0.0,-2.5037,0.0,0.0,0.0,0.0,0.0,0.0,0.0,0.0,0.0,0.0,0.0,0.0,0.0,0.0,0.0,0.0,0.0,0.0,0.0,0.0,0.0,0.0,0.0,0.0,0.0,0.0,0.0,0.0,0.0,0.0,0.0,0.0,0.0,-2.4703,-2.7495,-2.9539,-2.9606,-3.1904,-3.2919,-3.153,-3.2158,-3.2893,-3.348,-3.4068,-3.479,-3.5672,-3.65,-3.6861,-3.6607,-3.7408,-3.7595,-3.7008,-3.7595,-3.7742,-3.7462,-3.833,-3.8758,-3.8758,-3.9052,-3.9012,-3.8731,-3.8437,-3.7969,-3.7422,-3.7088,-3.646,-3.5511,-3.3734,-3.3026,-3.2906,-3.2051,-3.1917,-3.2104,0.0,0.0,0.0,0.0,0.0,0.0,0.0,0.0,0.0,0.0,-2.6321,-2.7689,-2.6581,-2.3581,-2.2142,-2.3645,-1.8558,-1.5575,-1.6845,0.0,0.0,0.0,0.0,0.0,0.0,0.0,0.0,0.0,0.0,0.0,0.0,0.0,0.0,0.0,0.0,0.0,0.0,0.0,0.0,0.0,0.0,0.0,-2.68,0.0,0.0,0.0,0.0,0.0,0.0,0.0,0.0,0.0,0.0,0.0,0.0,0.0,0.0,0.0,0.0,0.0,0.0,0.0,0.0,0.0,0.0,0.0,0.0,0.0,0.0,0.0,0.0,0.0,0.0,0.0,0.0,-2.7094,-2.7161,-2.8871,-3.0755,-3.2478,-3.3881,-3.4803,-3.503,-3.5084,-3.5338,-3.5925,-3.6126,-3.6607,-3.7489,-3.7742,-3.8076,-3.8424,-3.8651,-3.8825,-3.8865,-3.9012,-3.9052,-3.8985,-3.9239,-3.9346,-3.9346,-3.9452,-3.9412,-3.9346,-3.9052,-3.8691,-3.8317,-3.7782,-3.7301,-3.6754,-3.5191,-3.4202,-3.3601,-3.336,-3.3187,-3.3013,0.0,0.0,0.0,0.0,0.0,0.0,0.0,0.0,0.0,0.0,-2.6374,-2.7806,-2.6959,-2.4028,-2.2725,-2.3991,-1.8704,-1.5652,-1.6369,0.0,0.0,0.0,0.0,0.0,0.0,0.0,0.0,0.0,0.0,0.0,0.0,0.0,0.0,0.0,0.0,0.0,0.0,0.0,0.0,0.0,0.0,0.0,-2.7548,-2.6895,-2.6346,-2.5651,-2.4489,-2.4155,-2.4128,-2.3354,0.0,0.0,0.0,0.0,0.0,0.0,0.0,0.0,0.0,0.0,0.0,0.0,0.0,0.0,0.0,0.0,0.0,0.0,0.0,0.0,0.0,0.0,0.0,0.0,-2.7562,-2.9098,-3.0207,-3.1316,-3.2666,-3.4416,-3.5605,-3.65,-3.7008,-3.7128,-3.7315,-3.7662,-3.7809,-3.8143,-3.8798,-3.9052,-3.9279,-3.9519,-3.988,-3.9987,-3.9786,-3.9893,-3.9853,-3.9599,-3.9706,-3.9786,-3.9786,-3.992,-3.9893,0.0,-3.9599,-3.9306,-3.8865,-3.8397,-3.7956,0.0,0.0,0.0,0.0,0.0,-3.4055,-3.3761,0.0,0.0,0.0,0.0,0.0,0.0,0.0,0.0,0.0,0.0,0.0,-2.6805,-2.6786,-2.408,-2.2546,-2.3829,-1.8732,-1.5264,0.0,0.0,0.0,0.0,0.0,0.0,0.0,0.0,0.0,0.0,0.0,0.0,0.0,0.0,0.0,0.0,0.0,0.0,0.0,0.0,0.0,0.0,0.0,0.0,-2.7588,-2.8538,-2.8762,-2.8564,-2.7148,-2.6319,-2.5812,-2.5157,0.0,0.0,0.0,0.0,0.0,0.0,0.0,0.0,0.0,0.0,0.0,0.0,0.0,0.0,0.0,0.0,0.0,0.0,0.0,0.0,0.0,0.0,0.0,0.0,-2.9219,-3.0808,-3.3334,-3.4309,-3.503,-3.5738,-3.7048,-3.7956,-3.7996,-3.8544,-3.8865,-3.8905,-3.9199,-3.9493,-3.9786,0.0,0.0,0.0,0.0,-4.0976,-4.0174,-4.0401,-4.0254,-3.9746,-3.996,-4.0067,-4.0107,-4.0361,-4.0334,-4.0067,-4.004,-3.9746,-3.9225,-3.8905,-3.8397,-3.7742,-3.654,-3.6072,-3.5965,-3.5124,-3.4629,-3.4376,0.0,0.0,0.0,0.0,0.0,0.0,0.0,0.0,0.0,-2.2229,-2.619,-2.8611,-2.6986,-2.408,-2.2793,-2.3846,-2.0188,-1.7551,0.0,0.0,0.0,0.0,0.0,0.0,0.0,0.0,0.0,0.0,0.0,0.0,0.0,0.0,0.0,0.0,0.0,0.0,0.0,0.0,0.0,0.0,0.0,0.0,-2.8519,-2.798,-2.8656,-2.9539,-2.8537,-2.8257,-2.819,-2.7121,-2.68,-2.6667,-2.5611,0.0,0.0,0.0,0.0,0.0,0.0,0.0,0.0,0.0,0.0,0.0,0.0,0.0,0.0,0.0,0.0,0.0,0.0,0.0,0.0,-2.8951,-3.1156,-3.3253,-3.4963,-3.654,-3.7382,-3.7088,-3.7929,-3.8731,-3.9199,-3.9559,-3.9893,-4.0107,-4.0401,-4.0695,-4.0976,-4.1122,0.0,-4.1082,-4.1269,-4.1269,-4.1082,-4.0909,-4.0762,-4.0655,0.0,0.0,-4.0401,-4.0441,-4.0441,-4.0361,-4.0147,-3.996,-3.9813,-3.9306,-3.8718,-3.8036,-3.662,-3.6072,-3.5992,-3.5351,-3.4923,-3.4683,0.0,0.0,0.0,0.0,0.0,0.0,0.0,0.0,0.0,0.0,-2.4232,-2.6186,-2.555,-2.3458,-2.2481,-2.308,-1.9278,0.0,0.0,0.0,0.0,0.0,0.0,0.0,0.0,0.0,0.0,0.0,0.0,0.0,0.0,0.0,0.0,0.0,0.0,0.0,0.0,0.0,0.0,0.0,0.0,-2.4746,-2.6475,-2.6755,-2.7223,-2.7662,-2.8241,-2.8433,-2.8332,-2.8666,-2.8617,-2.819,-2.7148,-2.6119,-2.5264,0.0,0.0,0.0,0.0,0.0,0.0,0.0,0.0,0.0,0.0,0.0,0.0,0.0,0.0,-2.5692,0.0,0.0,-2.9392,-3.1183,-3.3066,-3.487,-3.65,-3.7996,-3.8731,-3.8103,-3.8985,-3.9706,-4.0,-4.0428,-4.0802,-4.1096,-4.1269,-4.1483,-4.1777,-4.1777,-4.1777,-4.1777,-4.1777,-4.171,-4.1563,-4.1416,-4.1269,-4.1122,-4.0976,-4.0909,-4.0909,-4.0762,-4.0695,-4.0695,-4.0361,-4.0174,-4.0,-3.9559,-3.9199,-3.8838,-3.7809,-3.7128,-3.666,-3.6072,-3.5672,-3.5418,0.0,0.0,0.0,0.0,0.0,0.0,0.0,0.0,0.0,0.0,0.0,-2.3501,-2.3941,-2.2712,-2.205,0.0,0.0,0.0,0.0,0.0,0.0,0.0,0.0,0.0,0.0,0.0,0.0,0.0,0.0,0.0,0.0,0.0,0.0,0.0,0.0,0.0,0.0,0.0,-1.982,-1.9908,-1.9786,-2.1093,-2.3211,-2.4621,-2.5606,-2.6803,-2.8414,-2.8743,-2.9031,-3.0434,-3.0207,-2.9259,-2.8524,-2.7816,-2.7148,-2.6627,-2.6426,0.0,0.0,0.0,0.0,0.0,0.0,0.0,0.0,0.0,-2.5331,-2.5985,-2.6814,-2.7669,-2.8497,-2.9967,-3.165,-3.348,-3.491,-3.6353,-3.7929,-3.9132,-3.9706,-3.9265,-4.0067,-4.0655,-4.0655,-4.1229,-4.167,-4.1857,-4.2071,-4.2298,-4.2472,-4.2472,-4.2432,-4.2405,-4.2325,-4.2151,-4.1857,-4.1857,-4.171,-4.1416,-4.1416,-4.1416,-4.1336,-4.1096,-4.0949,-4.0909,-4.0588,-4.0294,-4.0,-3.9786,-3.964,-3.9559,-3.9092,-3.8397,-3.7635,-3.6941,-3.65,-3.6233,0.0,0.0,0.0,0.0,0.0,0.0,0.0,0.0,0.0,0.0,0.0,0.0,0.0,0.0,0.0,0.0,0.0,0.0,0.0,0.0,0.0,0.0,0.0,0.0,0.0,0.0,0.0,0.0,0.0,0.0,0.0,0.0,0.0,-2.1256,-2.0851,-2.054,-2.0561,-2.0299,-2.0064,-2.0064,-2.0064,-2.0196,-2.029,-2.0436,-2.5067,-3.1156,-3.0824,-3.1488,-3.2815,-3.2629,-3.1757,-3.0581,-3.0474,-2.9686,-2.8724,-2.8404,0.0,-2.636,-2.6226,-2.5237,-2.4409,-2.505,-2.4703,-2.4676,0.0,0.0,-2.7215,-2.8083,-2.8965,-2.9766,-3.0381,-3.2131,-3.3828,-3.483,-3.6647,-3.8263,-3.9265,-4.0187,-4.0842,-4.1016,-4.1163,-4.1229,-4.1229,-4.2004,-4.2405,-4.2178,-4.3167,-4.3634,-4.338,-4.338,-4.3273,-4.302,-4.2739,-4.2472,-4.2178,-4.2178,-4.2031,-4.175,-4.175,-4.1603,-4.1336,-4.131,-4.1163,-4.0909,-4.0588,-4.0294,-4.0027,-4.0,-3.9813,-3.9599,-3.9533,-3.9265,-3.8825,-3.7702,-3.7088,-3.6794,0.0,0.0,0.0,0.0,0.0,0.0,0.0,0.0,0.0,0.0,0.0,0.0,0.0,0.0,0.0,0.0,0.0,0.0,0.0,0.0,0.0,0.0,0.0,0.0,0.0,0.0,0.0,0.0,0.0,-2.0438,-2.058,-2.0438,-2.0438,-2.058,-2.0417,-2.0404,-2.0492,-2.0492,-2.0492,-2.0505,-2.0594,-2.0471,-2.0261,-2.0173,-2.3093,-2.7626,-2.8057,-2.837,0.0,0.0,-3.2318,-3.1757,-3.141,-3.0728,-3.0007,-2.9713,-2.8577,0.0,-2.6373,-2.5812,0.0,0.0,-2.6012,-2.6774,-2.7802,-2.8577,-2.9312,-3.0207,-3.137,-3.2465,-3.3213,-3.4616,-3.6006,0.0,-3.825,-3.9346,-4.0254,-4.1122,-4.1603,-4.1376,-4.163,-4.1857,-4.1857,-4.2659,-4.3207,-4.3233,-4.3888,-4.4262,-4.4302,-4.4142,-4.3928,-4.3634,-4.3501,-4.3207,-4.2726,-4.2913,-4.2833,-4.2552,-4.2552,-4.2405,-4.2111,-4.1924,-4.1497,-4.0909,-4.0588,-4.0401,-4.0294,-4.0294,-4.0214,-4.0107,-3.992,-3.9666,-3.9306,-3.8464,-3.7849,-3.7422,0.0,0.0,0.0,0.0,0.0,0.0,0.0,0.0,0.0,0.0,0.0,0.0,0.0,0.0,0.0,0.0,0.0,0.0,0.0,0.0,0.0,0.0,0.0,0.0,0.0,-2.0207,-2.0363,-2.0505,-2.1626,-2.174,-2.0824,-2.1719,-2.174,-2.0824,-2.0716,-2.0756,-2.0892,-2.0858,-2.0858,-2.0899,-2.0967,-2.0845,-2.058,-2.0349,-2.1749,-2.3724,-2.5581,-2.6102,0.0,0.0,-3.1904,-3.165,-3.1396,-3.1076,-3.0715,-3.0341,-2.9245,-2.7883,-2.6653,0.0,0.0,-2.6627,-2.7696,-2.8925,-2.9553,-3.0541,-3.1583,-3.2465,-3.3694,-3.4857,-3.5658,-3.6834,0.0,-3.8945,-3.9706,-4.0441,-4.1163,-4.1817,-4.2031,-4.1523,-4.1857,-4.2111,-4.2111,-4.2913,-4.3527,-4.3861,-4.4369,-4.477,-4.4984,-4.4797,-4.4543,-4.4262,-4.4075,-4.3754,-4.3207,-4.342,-4.338,-4.31,-4.3167,-4.306,-4.2766,-4.2405,-4.1777,-4.1016,-4.0735,-4.0548,-4.0481,-4.0481,-4.0481,-4.0441,-4.0254,-3.996,-3.9666,-3.9159,-3.8544,-3.7929,0.0,0.0,0.0,0.0,0.0,0.0,0.0,0.0,0.0,0.0,0.0,0.0,0.0,0.0,0.0,0.0,0.0,0.0,0.0,0.0,0.0,0.0,-1.9468,-2.0064,-2.0505,-2.0668,-2.0824,-2.098,-2.4299,-2.4299,-2.0987,-2.4556,-2.4314,-2.1001,-2.098,-2.1068,-2.1197,-2.1055,-2.1068,-2.1197,-2.1055,-2.0912,-2.0716,-2.0275,-2.0882,-2.2325,-2.4823,0.0,0.0,0.0,-3.0274,-2.9673,-3.0221,-3.0581,0.0,-3.01,-2.9085,0.0,0.0,0.0,-2.7936,-2.9085,-2.9833,-3.0662,-3.2104,-3.3133,-3.4028,-3.491,-3.5805,-3.662,-3.7195,-3.8504,-3.964,-3.992,-4.0976,-4.1817,-4.2138,-4.2218,-4.2111,-4.1817,-4.179,-4.179,0.0,-4.2592,-4.3233,-4.3527,-4.4623,-4.5277,-4.5318,-4.5277,-4.5171,-4.4877,-4.4302,-4.3861,-4.3527,-4.3527,-4.338,-4.31,-4.338,-4.3354,-4.306,-4.2472,-4.1884,-4.131,-4.1016,-4.0735,-4.0481,-4.0481,-4.0481,-4.0481,-4.0481,-4.0294,-4.0,-3.968,-3.9025,-3.8223,0.0,0.0,0.0,0.0,0.0,0.0,0.0,0.0,0.0,0.0,0.0,0.0,0.0,0.0,0.0,0.0,0.0,0.0,0.0,0.0,-1.7669,-1.767,-1.9006,-2.0815,-2.3275,-2.1794,-2.3086,-2.7668,-2.6544,-2.6991,-2.8515,-2.9418,-2.822,-2.5081,-2.4962,-2.3712,-2.1509,-2.1462,-2.1475,-2.1509,-2.1353,-2.2421,-2.4133,-2.3153,-2.3607,-2.4929,0.0,0.0,0.0,0.0,0.0,0.0,-2.9138,0.0,-2.9219,-2.8617,-2.8724,-2.8991,0.0,0.0,-3.0368,-3.1744,-3.2692,-3.3614,-3.4883,-3.5712,-3.634,-3.6834,-3.7021,-3.7275,-3.7863,-3.8544,-3.9306,-4.0187,-4.1136,-4.2031,-4.2699,-4.3127,-4.2913,-4.163,-4.2004,0.0,0.0,0.0,0.0,-4.4075,-4.469,-4.5197,-4.5571,-4.5598,-4.5451,-4.5171,-4.5171,-4.4917,-4.4436,-4.4623,-4.4556,-4.4262,-4.3968,-4.3567,-4.306,-4.2472,-4.2004,-4.1603,-4.1122,-4.0842,-4.0762,-4.0548,-4.0481,-4.0481,-4.0481,-4.0294,-4.0027,-3.992,-3.9452,-3.8798,0.0,0.0,0.0,0.0,0.0,0.0,0.0,0.0,0.0,0.0,0.0,0.0,0.0,0.0,0.0,0.0,0.0,0.0,0.0,0.0,-1.8206,-1.7675,-1.887,-2.0614,-2.3365,-2.1681,-2.3447,-2.906,-2.8375,-2.9094,-3.0998,-3.2363,-3.1351,-2.8337,-2.8274,-2.7113,-2.5248,-2.5121,-2.4994,-2.4606,-2.3971,-2.4729,-2.5746,-2.4485,-2.487,0.0,0.0,0.0,0.0,0.0,0.0,0.0,0.0,-2.811,-2.8243,-2.807,-2.8938,-3.006,-3.0595,-3.1664,-3.2973,-3.4336,-3.5351,-3.6233,-3.7088,-3.7742,-3.8183,-3.829,-3.7969,-3.7782,-3.8036,-3.8103,-3.8504,-3.9786,-4.0575,-4.1497,-4.2913,-4.3167,-4.2873,-4.1924,-4.2111,-4.1964,0.0,0.0,0.0,-4.3714,-4.4369,-4.4917,-4.5424,-4.5638,-4.5665,-4.5465,-4.5558,-4.5424,-4.5024,-4.5131,-4.5064,-4.4877,-4.4409,-4.3861,-4.3233,-4.2766,-4.2258,-4.175,-4.139,-4.1163,-4.1056,-4.0762,-4.0615,-4.0615,-4.0508,-4.0361,-4.0174,-4.0067,-3.9773,-3.9412,0.0,0.0,0.0,0.0,0.0,0.0,0.0,0.0,0.0,0.0,0.0,0.0,0.0,0.0,0.0,0.0,0.0,0.0,0.0,0.0,0.0,-1.8512,-1.8841,-1.9452,-2.0686,-2.0596,-2.2233,-2.6039,-2.9819,-3.0846,-2.9141,-3.3458,-3.3673,-3.0424,-3.0886,-3.121,-3.1367,-3.0916,-3.0234,-2.9539,-2.8432,-2.7336,-2.5884,-2.4613,0.0,0.0,0.0,0.0,0.0,0.0,0.0,0.0,0.0,-2.7308,-2.7923,-2.8577,-2.9793,-3.1249,-3.2746,-3.4229,-3.5645,-3.6834,-3.7782,-3.8477,-3.8798,-3.9279,-3.9559,-3.9225,-3.8624,-3.8076,0.0,0.0,-3.7422,-3.8865,-3.9452,-4.0548,-4.2873,-4.2472,-4.2151,0.0,0.0,0.0,0.0,0.0,0.0,-4.2659,0.0,-4.4543,-4.4917,-4.5451,-4.5745,-4.5785,-4.5491,-4.5344,-4.5344,-4.5064,-4.4917,-4.4917,-4.4583,-4.4142,-4.3527,-4.3233,-4.2659,-4.1817,-4.1817,-4.1644,-4.1336,-4.1056,-4.0909,-4.0869,-4.0615,-4.0481,-4.0441,-4.0147,-4.0027,-3.996,0.0,0.0,0.0,0.0,0.0,0.0,0.0,0.0,0.0,0.0,0.0,0.0,0.0,0.0,0.0,0.0,0.0,0.0,0.0,0.0,0.0,0.0,0.0,0.0,0.0,0.0,0.0,0.0,0.0,-3.1327,-3.3837,-3.496,-3.3824,-3.0648,-3.0714,-2.9617,-2.7433,-2.7173,-2.699,-2.6606,0.0,-2.6594,-2.7979,0.0,0.0,0.0,0.0,0.0,0.0,0.0,0.0,0.0,0.0,-2.8364,-2.9272,-3.0528,-3.1784,-3.3187,-3.5084,-3.6513,-3.7863,-3.9493,-4.0067,-4.0361,-4.0882,-4.0762,-4.0294,-3.9346,-3.7996,-3.658,0.0,0.0,0.0,-3.829,-4.0214,0.0,-4.4436,-4.4556,0.0,0.0,0.0,-4.342,-4.2512,-4.2833,0.0,0.0,-4.3594,-4.4289,-4.5451,-4.5678,-4.5852,-4.6079,-4.5785,-4.5638,-4.5638,-4.5558,-4.5424,-4.5197,-4.4917,-4.4449,-4.3861,-4.3567,-4.306,-4.2445,-4.2218,-4.1924,-4.1644,-4.135,-4.1096,-4.0909,-4.0842,-4.0655,-4.0481,-4.0401,-4.0214,-4.0,0.0,0.0,0.0,0.0,0.0,0.0,0.0,0.0,0.0,0.0,0.0,0.0,0.0,0.0,0.0,0.0,0.0,0.0,0.0,0.0,0.0,0.0,0.0,0.0,0.0,0.0,0.0,0.0,0.0,0.0,-3.332,-3.3708,-3.3071,-3.1549,-3.1671,-3.0941,-2.9444,-2.9189,0.0,0.0,0.0,0.0,0.0,0.0,0.0,0.0,0.0,0.0,0.0,0.0,0.0,-2.8444,-2.9392,-3.0301,-3.1303,-3.2786,0.0,-3.5565,-3.7382,-3.8731,-3.9933,-4.135,-4.167,-4.1603,-4.1283,-4.0949,-4.0147,-3.8036,-3.65,0.0,0.0,0.0,0.0,0.0,0.0,0.0,-4.4917,-4.509,-4.4943,0.0,-4.4984,0.0,-4.3714,-4.3928,-4.4115,0.0,-4.4115,-4.4476,-4.5318,-4.5598,-4.5825,-4.5999,-4.5825,-4.5745,-4.5745,-4.5745,-4.5665,-4.5491,-4.5211,-4.477,-4.4182,-4.3888,-4.342,-4.2846,0.0,-4.2325,-4.2151,-4.171,-4.1376,-4.1082,-4.0949,-4.0735,-4.0481,-4.0481,-4.0361,-4.0187,0.0,0.0,0.0,0.0,0.0,0.0,0.0,0.0,0.0,0.0,0.0,0.0,0.0,0.0,0.0,0.0,0.0,0.0,0.0,0.0,0.0,0.0,0.0,0.0,0.0,0.0,0.0,0.0,0.0,0.0,0.0,0.0,0.0,0.0,0.0,0.0,0.0,0.0,0.0,0.0,0.0,0.0,0.0,0.0,0.0,0.0,0.0,0.0,0.0,0.0,-2.9379,-2.982,-3.1583,-3.2772,-3.3801,-3.5338,-3.6727,-3.8076,-3.9599,-4.0762,-4.1777,-4.2659,-4.2806,-4.2338,-4.0909,-4.0361,-3.9239,-3.6099,0.0,-3.3534,-3.2131,-3.2692,-3.4189,-3.6647,0.0,-4.1416,-4.4984,-4.505,-4.5131,-4.6226,-4.6106,-4.5718,-4.5211,-4.5131,-4.5104,-4.5064,-4.5064,-4.5064,-4.5064,-4.5531,-4.5812,-4.5812,-4.5812,-4.5785,-4.5745,-4.5745,-4.5745,-4.5745,-4.5451,-4.505,-4.4543,-4.4262,-4.3781,-4.3207,-4.2913,0.0,-4.2619,-4.2071,-4.167,-4.1376,-4.1082,-4.0802,-4.0508,-4.0481,-4.0481,-4.0441,0.0,0.0,0.0,0.0,0.0,0.0,0.0,0.0,0.0,0.0,-2.145,-2.1787,0.0,0.0,0.0,0.0,0.0,0.0,0.0,0.0,0.0,0.0,0.0,0.0,0.0,0.0,0.0,0.0,0.0,0.0,0.0,0.0,0.0,0.0,0.0,0.0,0.0,0.0,0.0,0.0,0.0,0.0,0.0,0.0,0.0,0.0,0.0,0.0,0.0,0.0,-3.1142,-3.2251,-3.4028,-3.5351,-3.658,-3.833,-3.9199,-3.996,-4.167,-4.2445,-4.302,-4.3888,-4.3567,-4.2699,-4.1456,-3.9666,0.0,0.0,0.0,-3.1824,-3.0849,-3.1984,0.0,-3.7155,0.0,0.0,0.0,0.0,-4.6507,0.0,0.0,0.0,0.0,0.0,0.0,0.0,0.0,-4.5972,-4.5972,-4.6039,-4.6119,-4.6119,-4.6119,-4.5999,-4.5745,-4.5745,-4.5745,-4.5745,-4.5451,-4.5277,-4.5171,-4.4877,-4.4409,-4.3821,-4.3527,0.0,-4.2632,-4.2298,-4.1964,-4.167,-4.1376,-4.1096,-4.0802,-4.0548,-4.0481,-4.0441,0.0,0.0,0.0,0.0,0.0,0.0,0.0,0.0,-2.4274,-2.3731,-2.2581,-2.1589,-2.1007,-2.1631,0.0,0.0,0.0,0.0,0.0,0.0,0.0,0.0,0.0,0.0,0.0,0.0,0.0,0.0,0.0,0.0,0.0,0.0,0.0,0.0,0.0,0.0,0.0,0.0,0.0,0.0,0.0,0.0,0.0,0.0,0.0,0.0,0.0,0.0,0.0,0.0,-3.1557,-3.4077,-3.4347,-3.642,-3.8804,-3.8302,-3.9756,-4.1884,-4.306,-4.3781,-4.4369,-4.4797,-4.4115,-4.2766,-4.0682,0.0,0.0,0.0,-3.1343,-3.0261,-2.9366,0.0,0.0,0.0,0.0,0.0,0.0,0.0,0.0,0.0,0.0,0.0,0.0,0.0,0.0,0.0,0.0,-4.6186,-4.6186,-4.6333,-4.6333,-4.6186,-4.6186,-4.6039,-4.5745,-4.5745,-4.5745,-4.5745,-4.5598,-4.5451,-4.5318,-4.5171,-4.4877,-4.4436,-4.3968,0.0,-4.3086,-4.2619,-4.2191,-4.1777,-4.163,-4.131,-4.0909,-4.0762,-4.0615,-4.0441,0.0,0.0,0.0,0.0,0.0,0.0,0.0,-2.5507,-2.5157,-2.5881,-2.3595,-2.175,-2.151,-2.1323,-2.1176,0.0,0.0,0.0,0.0,0.0,0.0,0.0,0.0,0.0,0.0,0.0,0.0,0.0,0.0,0.0,0.0,0.0,0.0,0.0,0.0,0.0,0.0,0.0,0.0,0.0,0.0,0.0,0.0,0.0,0.0,0.0,0.0,0.0,0.0,0.0,-3.1169,-3.4032,-3.2975,-3.6242,-4.0352,-3.8407,-3.9747,-4.2352,-4.3824,-4.4325,-4.4373,-4.5232,-4.4476,-4.2686,-3.9813,-3.7301,0.0,0.0,-2.9686,-2.8951,-2.843,0.0,0.0,0.0,0.0,0.0,0.0,0.0,0.0,0.0,0.0,0.0,0.0,0.0,0.0,0.0,0.0,0.0,-4.6293,-4.6627,-4.6667,-4.6373,-4.6306,-4.6146,-4.5852,-4.5785,-4.5745,-4.5745,-4.5745,-4.5638,-4.5424,-4.5424,-4.5211,-4.485,-4.4329,0.0,0.0,-4.2873,-4.2365,-4.1857,-4.1817,-4.1456,-4.0989,-4.0949,-4.0735,-4.0481,0.0,0.0,0.0,0.0,0.0,0.0,0.0,-2.5123,-2.4813,-2.3043,-2.2863,-2.2726,-2.2699,-2.1991,-2.1403,0.0,0.0,0.0,0.0,0.0,0.0,0.0,0.0,0.0,0.0,0.0,0.0,0.0,0.0,0.0,0.0,0.0,0.0,0.0,0.0,0.0,0.0,0.0,0.0,0.0,0.0,0.0,0.0,0.0,0.0,0.0,0.0,0.0,0.0,0.0,0.0,-3.1067,-3.0279,-3.5139,-4.1296,-4.0867,0.0,0.0,-4.3851,-4.3104,-4.156,-4.525,-4.4623,-4.2445,-3.9786,0.0,0.0,-3.0875,-2.9032,-2.8083,-2.8818,0.0,0.0,0.0,0.0,-3.7529,0.0,0.0,0.0,0.0,0.0,0.0,0.0,0.0,0.0,0.0,0.0,0.0,-4.6587,-4.7094,-4.7282,-4.6988,-4.6734,-4.644,-4.6146,-4.5892,-4.5745,-4.5745,-4.5745,-4.5745,-4.5705,-4.5705,-4.5424,-4.4877,-4.4543,0.0,0.0,-4.2806,-4.2472,-4.2151,-4.1897,-4.1603,-4.1269,-4.1016,-4.0735,-4.0481,0.0,0.0,0.0,0.0,0.0,0.0,0.0,-2.4531,-2.517,-2.4622,-2.3736,-2.3273,-2.3634,-2.2873,-2.2004,0.0,0.0,0.0,0.0,0.0,0.0,0.0,0.0,0.0,0.0,0.0,0.0,0.0,0.0,0.0,0.0,0.0,0.0,0.0,0.0,0.0,0.0,0.0,0.0,0.0,0.0,0.0,0.0,0.0,0.0,0.0,0.0,0.0,0.0,0.0,0.0,0.0,-2.9606,-3.3058,0.0,0.0,-3.7432,-3.79,-4.0964,-4.1521,-4.1645,-4.2766,-4.322,-4.2365,-3.9533,0.0,-3.2679,-3.0314,-2.8698,-2.7869,-2.8404,-2.8497,-2.9352,0.0,0.0,0.0,-3.8771,0.0,0.0,0.0,0.0,0.0,0.0,0.0,0.0,0.0,0.0,0.0,-4.6881,-4.7282,-4.7362,-4.7068,-4.6774,-4.648,-4.6186,-4.5892,-4.5745,-4.5745,-4.5745,-4.5745,-4.5745,-4.5558,-4.5344,-4.5131,-4.465,0.0,0.0,-4.3127,-4.2739,-4.2445,-4.2151,-4.1857,-4.1603,-4.1497,-4.1243,-4.0976,0.0,0.0,0.0,0.0,0.0,-2.2895,-2.2807,-2.3774,-2.4673,-2.4964,-2.3942,-2.342,-2.4008,-2.3193,-2.2271,-2.1443,0.0,0.0,0.0,0.0,0.0,0.0,0.0,0.0,0.0,0.0,0.0,0.0,0.0,0.0,0.0,0.0,0.0,0.0,0.0,0.0,0.0,0.0,0.0,0.0,0.0,0.0,0.0,0.0,0.0,0.0,0.0,0.0,0.0,0.0,0.0,0.0,0.0,0.0,0.0,0.0,-3.5684,-3.7165,-3.9902,-4.1204,-4.2,-4.2417,-4.2705,-4.2218,0.0,0.0,-3.2332,-3.0074,-2.8591,-2.7762,-2.7976,-2.8016,-2.8537,-3.014,-3.0688,-3.2305,-3.6259,-3.7716,0.0,0.0,0.0,0.0,0.0,0.0,0.0,0.0,0.0,0.0,0.0,-4.7241,-4.7322,-4.7215,-4.6921,-4.6627,-4.6333,-4.6039,-4.5825,-4.5745,-4.5745,-4.5745,-4.5745,-4.5451,-4.5277,-4.5171,-4.465,0.0,0.0,-4.338,-4.2993,-4.2632,-4.2445,-4.2111,-4.179,-4.179,-4.1603,-4.131,0.0,0.0,0.0,0.0,0.0,0.0,0.0,-2.3018,-2.316,-2.2579,-2.2686,-2.31,-2.3714,-2.2712,-2.1991,-2.1977,0.0,0.0,0.0,0.0,0.0,0.0,0.0,0.0,0.0,0.0,0.0,0.0,0.0,0.0,0.0,0.0,0.0,0.0,0.0,0.0,0.0,0.0,0.0,0.0,0.0,0.0,-2.5959,0.0,0.0,0.0,0.0,0.0,0.0,0.0,0.0,0.0,0.0,0.0,0.0,0.0,-3.5536,-3.6554,-4.2091,-4.249,-4.2084,-4.5546,-4.4623,-4.1964,0.0,0.0,-3.2398,-3.0341,-2.8724,-2.7696,-2.7696,-2.7709,-2.8096,-2.9299,-3.0461,-3.2465,-3.6006,0.0,0.0,0.0,0.0,0.0,0.0,0.0,0.0,0.0,0.0,0.0,0.0,-4.7068,-4.7215,-4.7495,-4.7215,-4.6921,-4.6627,-4.6333,-4.6039,-4.5745,-4.5745,-4.5745,-4.5745,-4.5451,-4.5171,0.0,0.0,0.0,0.0,-4.3527,-4.3167,-4.2659,-4.2659,-4.2298,-4.179,-4.179,-4.1603,-4.1336,0.0,0.0,0.0,0.0,0.0,0.0,0.0,-2.2112,-2.2856,-2.2268,-2.2205,-2.2565,-2.338,-2.2579,-2.1991,-2.1991,0.0,0.0,0.0,0.0,0.0,0.0,0.0,0.0,0.0,0.0,0.0,0.0,0.0,0.0,0.0,0.0,0.0,0.0,0.0,0.0,0.0,0.0,0.0,0.0,0.0,-2.6507,-2.6279,0.0,0.0,0.0,0.0,0.0,0.0,0.0,0.0,0.0,0.0,0.0,0.0,-3.0715,-3.1536,-3.2218,-3.5107,-3.6402,-3.7421,-3.7864,-3.8839,-3.9025,-3.6553,0.0,-3.1503,-2.9446,-2.831,-2.7696,-2.7696,-2.7696,-2.8283,-3.0087,-3.1022,-3.2345,0.0,0.0,0.0,0.0,0.0,0.0,0.0,0.0,0.0,0.0,0.0,0.0,0.0,-4.7282,-4.7108,-4.7215,-4.6734,-4.6413,-4.6333,-4.6039,-4.5852,-4.5745,-4.5745,-4.5745,-4.5745,-4.5237,-4.4957,0.0,0.0,0.0,0.0,-4.3607,-4.3314,-4.2953,-4.2739,-4.2445,-4.2071,-4.2071,-4.2031,-4.1884,0.0,0.0,0.0,0.0,0.0,0.0,0.0,-2.1296,-2.1878,-2.1679,-2.1563,-2.1871,-2.2873,-2.2191,-2.175,-2.1964,0.0,0.0,0.0,0.0,0.0,0.0,0.0,0.0,0.0,0.0,0.0,0.0,0.0,0.0,0.0,0.0,0.0,0.0,0.0,0.0,0.0,0.0,0.0,0.0,-2.6653,-2.6653,-2.6413,0.0,0.0,0.0,0.0,0.0,0.0,0.0,0.0,0.0,0.0,0.0,0.0,0.0,-2.9077,-2.9891,0.0,-3.4873,-3.6444,-3.6237,-3.6817,0.0,0.0,0.0,0.0,0.0,-2.8043,-2.7535,-2.7535,-2.7629,-2.8163,-2.9566,-3.0568,-3.1797,0.0,0.0,0.0,0.0,0.0,0.0,0.0,0.0,0.0,0.0,0.0,0.0,0.0,-4.7282,-4.6881,-4.6881,-4.6547,-4.6293,-4.6186,-4.5999,-4.5852,-4.5745,-4.5745,-4.5745,-4.5745,-4.5237,-4.4984,0.0,0.0,0.0,0.0,-4.3888,-4.3567,-4.3086,-4.2886,-4.2579,-4.2218,-4.2218,-4.2218,-4.2178,0.0,0.0,0.0,0.0,0.0,0.0,0.0,0.0,-2.0454,-2.1002,-2.0842,-2.1096,-2.2178,-2.159,-2.1323,-2.1871,0.0,0.0,0.0,0.0,0.0,0.0,0.0,0.0,0.0,0.0,0.0,0.0,-2.4369,-2.4983,-2.5585,0.0,0.0,0.0,0.0,0.0,0.0,0.0,0.0,0.0,-2.656,-2.6627,0.0,0.0,0.0,0.0,0.0,0.0,0.0,0.0,0.0,0.0,0.0,0.0,0.0,0.0,0.0,0.0,0.0,-3.638,-3.7929,-3.8731,-3.7489,0.0,0.0,0.0,0.0,0.0,0.0,-2.7281,-2.7321,-2.7535,-2.7829,-2.823,-2.9513,-3.1049,0.0,0.0,0.0,0.0,0.0,0.0,0.0,0.0,0.0,0.0,0.0,0.0,0.0,-4.7094,-4.6627,-4.6627,-4.6587,-4.644,-4.6159,-4.6146,-4.6012,-4.5745,-4.5745,-4.5745,-4.5745,-4.5424,-4.5131,0.0,0.0,0.0,0.0,-4.4356,-4.3968,-4.3167,-4.3127,-4.2766,-4.2258,-4.2218,-4.2218,-4.2218,0.0,0.0,0.0,0.0,0.0,0.0,0.0,0.0,0.0,0.0,-2.0722,-2.0775,-2.1056,-2.1096,-2.1162,0.0,0.0,0.0,0.0,0.0,0.0,0.0,0.0,0.0,0.0,0.0,0.0,-2.3768,-2.4583,-2.5398,-2.6186,-2.6547,0.0,0.0,0.0,0.0,0.0,0.0,0.0,0.0,-2.6346,-2.6453,0.0,0.0,0.0,0.0,-2.6386,-2.6386,0.0,0.0,0.0,0.0,0.0,0.0,0.0,0.0,-2.7134,-2.7629,-2.9419,0.0,-3.2492,-3.2251,-3.2158,-3.1824,0.0,0.0,0.0,0.0,0.0,-2.7402,-2.7856,-2.7802,-2.8163,-2.9606,-3.0688,-3.1824,0.0,0.0,0.0,0.0,0.0,0.0,0.0,0.0,0.0,0.0,0.0,0.0,0.0,-4.7201,-4.6627,-4.6627,-4.6186,-4.5932,-4.5852,-4.5852,-4.5825,-4.5745,-4.5745,-4.5745,-4.5745,-4.5211,-4.4957,0.0,0.0,0.0,-4.4369,-4.4663,-4.4369,-4.3754,-4.3527,-4.306,-4.2512,-4.2298,-4.2218,-4.2178,0.0,0.0,0.0,0.0,0.0,0.0,0.0,0.0,0.0,0.0,0.0,0.0,0.0,0.0,0.0,0.0,0.0,0.0,0.0,0.0,0.0,0.0,0.0,0.0,0.0,0.0,0.0,0.0,0.0,-2.5865,0.0,0.0,0.0,0.0,0.0,0.0,0.0,0.0,0.0,-2.5785,-2.6079,0.0,0.0,0.0,0.0,0.0,-2.6346,-2.6386,0.0,-2.6386,-2.648,-2.656,0.0,0.0,0.0,0.0,-2.6533,-2.656,-2.7175,-2.8631,-3.0007,-3.01,-3.0154,-3.002,0.0,0.0,0.0,0.0,0.0,0.0,-2.7428,0.0,0.0,-2.9713,-3.0688,-3.2291,0.0,0.0,0.0,0.0,0.0,0.0,0.0,0.0,0.0,0.0,0.0,0.0,0.0,-4.7322,-4.6774,-4.6627,-4.6186,-4.5892,-4.5745,-4.5745,-4.5745,-4.5745,-4.5745,-4.5745,-4.5745,-4.5277,-4.4997,0.0,0.0,0.0,-4.4476,-4.477,-4.4543,-4.3995,-4.3821,-4.3314,-4.2632,-4.2472,-4.2258,-4.2004,0.0,0.0,0.0,0.0,0.0,0.0,0.0,0.0,0.0,0.0,0.0,0.0,0.0,0.0,0.0,0.0,0.0,0.0,0.0,0.0,0.0,0.0,0.0,0.0,0.0,0.0,0.0,0.0,0.0,0.0,0.0,0.0,0.0,0.0,0.0,0.0,0.0,0.0,0.0,-2.5464,-2.5718,0.0,0.0,0.0,0.0,0.0,0.0,0.0,0.0,-2.6386,-2.6547,-2.6707,-2.6466,0.0,0.0,0.0,0.0,0.0,-2.6413,-2.7682,-2.8871,-2.9304,-2.8968,-2.8653,0.0,0.0,0.0,0.0,0.0,0.0,0.0,0.0,0.0,0.0,0.0,0.0,0.0,0.0,0.0,0.0,0.0,0.0,0.0,0.0,0.0,0.0,0.0,0.0,0.0,-4.7348,-4.6881,-4.6627,-4.6293,-4.5999,-4.5745,-4.5745,-4.5745,-4.5745,-4.5705,-4.5705,-4.5745,-4.5344,-4.5064,-4.481,0.0,0.0,-4.4396,-4.473,-4.4556,-4.4075,-4.4008,-4.3487,-4.2739,-4.2659,-4.2325,-4.1857,0.0,0.0,0.0,0.0,0.0,0.0,0.0,0.0,0.0,0.0,0.0,0.0,0.0,0.0,0.0,0.0,0.0,0.0,0.0,0.0,0.0,0.0,0.0,0.0,0.0,0.0,0.0,0.0,0.0,0.0,-2.8096,-2.9205,-2.8791,0.0,0.0,0.0,0.0,0.0,0.0,-2.5144,-2.5197,0.0,0.0,0.0,0.0,0.0,0.0,0.0,0.0,-2.6386,-2.6413,-2.6453,-2.64,0.0,0.0,0.0,0.0,0.0,-2.6921,-2.7696,-2.7786,-2.5317,-2.4951,-2.5108,0.0,0.0,0.0,0.0,0.0,0.0,0.0,0.0,0.0,0.0,0.0,0.0,0.0,0.0,0.0,0.0,0.0,0.0,0.0,0.0,0.0,0.0,0.0,0.0,0.0,-4.7282,-4.6654,-4.6627,-4.6106,-4.5785,-4.5745,-4.5745,-4.5745,-4.5745,-4.5491,-4.5491,-4.5705,-4.4943,-4.4543,-4.4516,0.0,-4.4329,-4.4115,-4.4663,-4.469,-4.4329,-4.4115,-4.3607,-4.2993,-4.2766,-4.2445,-4.2111,0.0,0.0,0.0,0.0,0.0,0.0,0.0,0.0,0.0,0.0,0.0,0.0,0.0,0.0,0.0,0.0,0.0,0.0,0.0,0.0,0.0,0.0,0.0,0.0,0.0,0.0,0.0,0.0,0.0,-2.7709,-2.8858,-2.8764,-2.8283,-2.7428,0.0,0.0,0.0,0.0,0.0,-2.5304,0.0,0.0,0.0,0.0,0.0,0.0,0.0,0.0,0.0,0.0,-2.6386,-2.636,-2.6199,0.0,0.0,0.0,0.0,0.0,-2.5972,-2.6507,-2.6436,-2.4202,-2.4338,0.0,0.0,0.0,0.0,0.0,0.0,0.0,0.0,0.0,0.0,0.0,0.0,0.0,0.0,0.0,0.0,0.0,0.0,0.0,0.0,0.0,0.0,0.0,0.0,0.0,0.0,0.0,-4.6694,-4.64,-4.6119,-4.5892,-4.5745,-4.5745,-4.5678,-4.5491,-4.5384,-4.5318,-4.5277,-4.469,-4.4356,-4.4182,0.0,-4.3968,-4.4008,-4.4115,-4.4182,-4.4182,-4.3861,-4.338,-4.2806,-4.2365,-4.2004,-4.175,0.0,0.0,0.0,0.0,0.0,0.0,0.0,0.0,0.0,0.0,0.0,0.0,0.0,0.0,0.0,0.0,0.0,0.0,0.0,0.0,0.0,0.0,0.0,0.0,0.0,0.0,-2.9633,-3.1037,-2.969,-2.9335,-3.0167,-2.8911,-2.8136,0.0,0.0,0.0,0.0,0.0,0.0,-2.5398,0.0,0.0,0.0,0.0,0.0,0.0,0.0,0.0,0.0,0.0,0.0,0.0,0.0,0.0,0.0,-2.5705,-2.5411,-2.5211,-2.5344,-2.5772,-2.578,0.0,0.0,0.0,0.0,0.0,0.0,0.0,0.0,0.0,0.0,0.0,0.0,0.0,0.0,0.0,0.0,0.0,0.0,0.0,0.0,0.0,0.0,0.0,0.0,0.0,0.0,0.0,0.0,0.0,-4.6734,-4.6186,-4.6119,-4.5972,-4.5745,-4.5745,-4.5598,-4.5318,-4.5237,-4.5064,-4.477,-4.4396,-4.4075,-4.3781,-4.3527,-4.3527,-4.3674,-4.3487,-4.3567,-4.3754,-4.3527,-4.306,-4.2485,-4.1964,-4.1603,-4.1376,0.0,0.0,0.0,0.0,0.0,0.0,0.0,0.0,0.0,0.0,0.0,0.0,0.0,0.0,0.0,0.0,0.0,0.0,0.0,0.0,0.0,0.0,0.0,0.0,0.0,-3.3935,-3.3151,-3.3558,-3.2907,-3.2484,-3.2291,-3.0849,-2.9432,-2.803,0.0,0.0,0.0,0.0,0.0,-2.513,-2.5384,0.0,0.0,0.0,0.0,0.0,0.0,0.0,0.0,0.0,0.0,0.0,0.0,0.0,-2.6306,-2.6012,-2.5718,-2.5598,-2.6146,-2.652,0.0,0.0,0.0,0.0,0.0,0.0,0.0,0.0,0.0,0.0,0.0,0.0,0.0,0.0,0.0,0.0,0.0,0.0,0.0,0.0,0.0,0.0,0.0,0.0,0.0,0.0,0.0,0.0,0.0,0.0,-4.652,-4.6186,-4.5932,-4.5785,-4.5745,-4.5745,-4.5598,-4.5318,-4.5024,-4.477,-4.4436,-4.3861,-4.342,-4.3167,-4.3127,-4.2993,-4.2766,-4.302,-4.3127,-4.3167,-4.3127,-4.2766,-4.2218,-4.1897,-4.1603,-4.1416,0.0,0.0,0.0,0.0,0.0,0.0,0.0,0.0,0.0,0.0,0.0,0.0,0.0,0.0,0.0,0.0,0.0,0.0,0.0,0.0,0.0,0.0,0.0,-3.1276,-3.4022,-3.3454,-3.3792,-3.5287,-3.3656,-3.2886,-3.2505,-3.0488,0.0,0.0,0.0,0.0,0.0,0.0,0.0,-2.5371,-2.5665,-2.5959,0.0,0.0,0.0,0.0,0.0,0.0,0.0,0.0,-2.6386,-2.636,-2.6172,-2.6119,-2.6066,-2.5772,-2.5478,-2.5291,-2.5518,-2.6186,0.0,0.0,0.0,0.0,0.0,0.0,0.0,0.0,0.0,0.0,0.0,0.0,0.0,0.0,0.0,0.0,0.0,0.0,0.0,0.0,0.0,0.0,0.0,0.0,0.0,0.0,0.0,0.0,0.0,-4.6988,-4.64,-4.5932,-4.5812,-4.5745,-4.5745,-4.5745,-4.5598,-4.5318,-4.5024,-4.4516,-4.3861,-4.3634,-4.3273,-4.2846,-4.2846,-4.2766,-4.2659,-4.2579,-4.2659,-4.2806,-4.2445,-4.2031,-4.167,-4.1563,-4.131,-4.1163,0.0,0.0,0.0,0.0,0.0,0.0,0.0,0.0,0.0,0.0,0.0,0.0,0.0,0.0,0.0,0.0,0.0,0.0,0.0,0.0,0.0,0.0,0.0,-2.9461,-3.2347,-3.2315,-3.3572,-3.6107,-3.4212,-3.2973,-3.2358,0.0,0.0,0.0,0.0,0.0,0.0,0.0,0.0,0.0,0.0,-2.6213,0.0,0.0,0.0,0.0,0.0,0.0,0.0,0.0,-2.6386,-2.636,-2.6159,-2.6092,-2.6039,-2.5732,-2.5518,-2.5291,-2.501,-2.5732,-2.6547,-2.6573,0.0,0.0,0.0,0.0,0.0,0.0,0.0,0.0,0.0,0.0,0.0,0.0,0.0,0.0,0.0,0.0,0.0,0.0,0.0,0.0,0.0,0.0,0.0,0.0,0.0,0.0,0.0,-4.6881,-4.636,-4.5785,-4.5745,-4.5745,-4.5745,-4.5638,-4.5451,-4.5171,-4.4877,-4.4329,-4.3527,-4.342,-4.306,-4.2512,-4.2512,-4.2512,-4.2512,-4.2298,-4.2298,-4.2338,-4.175,-4.1376,-4.1203,-4.1203,-4.1082,-4.0976,0.0,0.0,0.0,0.0,0.0,0.0,0.0,0.0,0.0,0.0,0.0,0.0,0.0,0.0,0.0,0.0,0.0,0.0,0.0,0.0,0.0,0.0,0.0,-2.8893,-3.1237,-3.1306,-3.2708,-3.5793,-3.446,-3.3253,-3.2051,-3.0595,0.0,0.0,0.0,0.0,0.0,0.0,0.0,0.0,0.0,-2.6386,0.0,0.0,0.0,0.0,0.0,0.0,0.0,0.0,-2.6386,-2.6386,-2.6386,-2.6386,-2.6333,-2.6039,-2.5959,-2.5772,-2.4877,-2.5291,-2.5825,0.0,0.0,0.0,0.0,0.0,0.0,0.0,0.0,0.0,0.0,0.0,0.0,0.0,0.0,0.0,0.0,0.0,0.0,0.0,0.0,0.0,0.0,0.0,0.0,0.0,0.0,0.0,0.0,-4.6774,-4.636,-4.5785,-4.5745,-4.5745,-4.5745,-4.5451,-4.5171,-4.4877,-4.4583,-4.4115,-4.3527,-4.3233,-4.2766,-4.2218,-4.2218,-4.2218,-4.2218,-4.2218,-4.2044,-4.171,-4.1122,-4.0909,-4.0909,-4.0909,-4.0909,-4.0949,0.0,0.0,0.0,0.0,0.0,0.0,0.0,0.0,0.0,0.0,0.0,0.0,0.0,0.0,0.0,0.0,0.0,0.0,0.0,0.0,0.0,0.0,0.0,0.0,0.0,0.0,-3.0869,-3.3271,-3.2803,-3.1917,0.0,0.0,0.0,-2.7025,0.0,0.0,0.0,0.0,0.0,0.0,-2.5932,-2.6199,0.0,0.0,0.0,0.0,0.0,0.0,0.0,0.0,0.0,0.0,-2.6146,-2.6507,-2.6827,-2.5919,-2.5932,-2.6066,-2.5184,0.0,0.0,0.0,0.0,0.0,0.0,0.0,0.0,0.0,0.0,0.0,0.0,0.0,0.0,0.0,0.0,0.0,0.0,0.0,0.0,0.0,0.0,0.0,0.0,0.0,0.0,0.0,0.0,0.0,0.0,-4.6774,-4.636,-4.5785,-4.5558,-4.5451,-4.5451,-4.4943,-4.465,-4.4543,-4.4262,-4.3928,-4.3527,-4.3233,-4.2873,-4.2512,-4.2298,-4.2218,-4.2218,-4.2004,-4.175,-4.1456,-4.1056,-4.0802,-4.0615,-4.0615,-4.0615,-4.0655,0.0,0.0,0.0,0.0,0.0,0.0,0.0,0.0,0.0,0.0,0.0,0.0,0.0,0.0,0.0,0.0,0.0,0.0,0.0,0.0,0.0,0.0,0.0,0.0,0.0,-2.6965,-2.8757,0.0,0.0,0.0,0.0,0.0,0.0,-2.7715,0.0,-2.531,0.0,0.0,-2.4083,-2.5718,-2.6012,-2.6239,-2.6386,0.0,0.0,0.0,0.0,0.0,0.0,0.0,0.0,0.0,-2.6052,-2.6319,-2.6613,-2.5892,-2.5852,-2.5972,-2.5678,0.0,0.0,0.0,0.0,0.0,0.0,0.0,0.0,0.0,0.0,0.0,0.0,0.0,0.0,0.0,0.0,0.0,0.0,0.0,0.0,0.0,0.0,0.0,0.0,0.0,0.0,0.0,0.0,0.0,0.0,-4.6654,-4.636,-4.5785,-4.5451,-4.5237,-4.5131,-4.4543,-4.4182,-4.4075,-4.3781,-4.3527,-4.3354,-4.3167,-4.2873,-4.2472,-4.2298,-4.2218,-4.2178,-4.1777,-4.1497,-4.131,-4.0909,-4.0615,-4.0481,-4.0481,-4.0481,-4.0508,0.0,0.0,0.0,0.0,0.0,0.0,0.0,0.0,0.0,0.0,0.0,0.0,0.0,0.0,0.0,0.0,0.0,0.0,0.0,0.0,-2.1229,-2.1496,-2.167,-2.2659,-2.4596,-2.5919,-2.6453,-2.6186,0.0,0.0,0.0,0.0,-2.9713,-2.9499,0.0,-2.7097,0.0,-2.4894,-2.4653,-2.5932,-2.6199,-2.6333,-2.6346,-2.6346,0.0,0.0,0.0,0.0,0.0,0.0,0.0,0.0,-2.6052,-2.5999,-2.6012,-2.5905,-2.5758,-2.5745,0.0,0.0,0.0,0.0,0.0,0.0,0.0,0.0,0.0,0.0,0.0,0.0,0.0,0.0,0.0,0.0,0.0,0.0,0.0,0.0,0.0,0.0,0.0,0.0,0.0,0.0,0.0,0.0,0.0,0.0,0.0,-4.644,-4.6333,-4.5705,-4.5424,-4.5131,-4.481,-4.4222,-4.3754,-4.3447,-4.3167,-4.306,-4.302,-4.306,-4.2766,-4.2218,-4.2218,-4.2218,-4.2178,-4.1603,-4.1376,-4.1336,-4.0762,-4.0548,-4.0508,-4.0508,-4.0508,-4.0481,0.0,0.0,0.0,0.0,0.0,0.0,0.0,0.0,0.0,0.0,0.0,0.0,0.0,0.0,0.0,0.0,0.0,0.0,0.0,0.0,-2.1136,-2.1203,-2.2552,-2.3714,-2.4623,-2.4716,-2.473,-2.4676,-2.6039,0.0,0.0,0.0,0.0,-2.9486,0.0,-2.6897,-2.7437,-2.3745,-2.3519,-2.5611,-2.5678,-2.5838,-2.6052,-2.6052,-2.5865,0.0,0.0,0.0,0.0,0.0,0.0,0.0,-2.6052,-2.6266,-2.6453,-2.5545,-2.5879,0.0,0.0,0.0,0.0,0.0,0.0,0.0,0.0,0.0,0.0,0.0,0.0,0.0,0.0,0.0,0.0,0.0,0.0,0.0,0.0,0.0,0.0,0.0,0.0,0.0,0.0,0.0,0.0,0.0,0.0,0.0,-4.6226,-4.6253,-4.6012,-4.5424,-4.5131,-4.473,-4.4182,-4.3607,-4.3127,-4.2846,-4.2766,-4.2619,-4.2405,-4.2659,-4.2552,-4.2218,-4.2218,-4.2218,-4.2178,-4.1817,-4.167,-4.1644,-4.131,-4.1016,-4.0802,-4.0802,-4.0655,-4.0481,0.0,0.0,0.0,0.0,0.0,0.0,0.0,0.0,0.0,0.0,0.0,0.0,0.0,0.0,0.0,0.0,0.0,0.0,0.0,0.0,0.0,-2.1523,-2.2966,-2.3714,-2.3581,-2.3714,-2.3567,-2.314,0.0,0.0,0.0,0.0,0.0,-2.9486,0.0,-2.774,-2.7615,-2.4977,-2.4675,-2.5919,-2.5785,-2.5905,-2.6146,-2.6012,-2.5692,-2.5304,-2.5304,0.0,0.0,0.0,0.0,0.0,0.0,0.0,-2.5892,-2.5424,-2.5718,-2.6413,0.0,0.0,0.0,0.0,0.0,0.0,0.0,0.0,0.0,0.0,0.0,0.0,0.0,0.0,0.0,0.0,0.0,0.0,0.0,0.0,0.0,0.0,0.0,0.0,0.0,0.0,0.0,0.0,0.0,-4.644,-4.5999,-4.6119,-4.5972,-4.5531,-4.4957,-4.4436,-4.4008,-4.3273,-4.2739,-4.2445,-4.2298,-4.2151,-4.2031,-4.2325,-4.2365,-4.2218,-4.2218,-4.2151,-4.2004,-4.1857,-4.171,-4.1523,-4.1243,-4.1056,-4.0909,-4.0762,-4.0615,-4.0481,0.0,0.0,0.0,0.0,0.0,0.0,0.0,0.0,0.0,0.0,0.0,0.0,0.0,0.0,0.0,0.0,0.0,0.0,0.0,0.0,0.0,0.0,-2.3113,-2.3367,-2.2672,-2.3046,-2.301,-2.2654,0.0,0.0,0.0,0.0,0.0,-2.9472,0.0,-2.8671,-2.7629,-2.6547,-2.6119,-2.6146,-2.5905,-2.5945,-2.6132,-2.5892,-2.5464,-2.4997,-2.4997,-2.5184,-2.5438,-2.5438,0.0,0.0,0.0,0.0,-2.513,-2.5371,-2.5478,-2.5919,0.0,0.0,0.0,0.0,0.0,0.0,0.0,0.0,0.0,0.0,0.0,0.0,0.0,0.0,0.0,0.0,0.0,0.0,0.0,0.0,0.0,0.0,0.0,0.0,0.0,0.0,0.0,0.0,0.0,-4.6039,-4.5745,-4.5972,-4.5972,-4.5598,-4.4837,-4.4249,-4.3861,-4.306,-4.2485,-4.2151,-4.1857,-4.171,-4.171,-4.1964,-4.2111,-4.2151,-4.2071,-4.1924,-4.171,-4.171,-4.1563,-4.131,-4.1082,-4.0949,-4.0869,-4.0655,-4.0508,-4.0481,0.0,0.0,0.0,0.0,0.0,0.0,0.0,0.0,0.0,0.0,0.0,0.0,0.0,0.0,0.0,0.0,0.0,0.0,0.0,0.0,0.0,-2.2338,-2.302,-2.3447,-2.3594,-2.3153,-2.3665,0.0,0.0,0.0,0.0,0.0,0.0,0.0,0.0,0.0,-2.7575,-2.5678,-2.5024,-2.5251,-2.5211,-2.5224,-2.5251,-2.5211,-2.4983,-2.469,-2.469,-2.489,-2.5144,-2.5144,-2.5304,0.0,0.0,0.0,-2.509,-2.513,-2.5317,0.0,0.0,0.0,0.0,0.0,0.0,0.0,0.0,0.0,0.0,0.0,0.0,0.0,0.0,0.0,0.0,0.0,0.0,0.0,0.0,0.0,0.0,0.0,0.0,0.0,0.0,0.0,0.0,0.0,-4.6012,-4.6039,-4.5745,-4.5785,-4.5558,-4.5024,-4.4623,-4.4035,-4.3233,-4.2846,-4.2378,-4.1857,-4.1523,-4.1416,-4.1416,-4.1443,-4.1603,-4.1817,-4.1563,-4.1443,-4.1416,-4.1416,-4.1376,-4.1336,-4.131,-4.1122,-4.0909,-4.0869,-4.0695,-4.0481,0.0,0.0,0.0,0.0,0.0,0.0,0.0,0.0,0.0,0.0,0.0,0.0,0.0,0.0,0.0,-2.1109,-2.1109,-2.1109,-2.1109,-2.1229,0.0,0.0,-2.2191,-2.2472,-2.2766,-2.2512,-2.2767,0.0,0.0,0.0,0.0,-2.7243,-2.815,0.0,0.0,0.0,0.0,0.0,0.0,0.0,-2.3896,-2.434,-2.5518,-2.5024,-2.4756,0.0,0.0,0.0,0.0,0.0,-2.4783,-2.5024,-2.5024,0.0,0.0,0.0,0.0,0.0,0.0,0.0,0.0,0.0,0.0,0.0,0.0,0.0,0.0,0.0,0.0,0.0,0.0,0.0,0.0,0.0,0.0,0.0,0.0,0.0,0.0,0.0,0.0,0.0,0.0,0.0,0.0,0.0,-4.5852,-4.5892,-4.5745,-4.5598,-4.5318,-4.4877,-4.4262,-4.3674,-4.31,-4.2659,-4.2191,-4.179,-4.1644,-4.1497,-4.1336,-4.1163,-4.1269,-4.1523,-4.1416,-4.1229,-4.1122,-4.1269,-4.1229,-4.1096,-4.1096,-4.1016,-4.0869,-4.0735,-4.0588,-4.0481,0.0,0.0,0.0,0.0,0.0,0.0,0.0,0.0,0.0,0.0,0.0,0.0,0.0,0.0,0.0,0.0,-2.1109,-2.1109,-2.1109,-2.1109,0.0,0.0,0.0,-2.1577,-2.1871,-2.1884,0.0,0.0,0.0,0.0,-2.736,-2.7485,-2.8751,0.0,-2.9098,0.0,0.0,0.0,0.0,0.0,0.0,-2.3884,-2.5558,0.0,0.0,-2.4583,-2.4142,0.0,0.0,0.0,0.0,0.0,0.0,-2.4516,0.0,0.0,0.0,0.0,0.0,0.0,0.0,0.0,0.0,0.0,0.0,0.0,0.0,0.0,0.0,0.0,0.0,0.0,0.0,0.0,0.0,0.0,0.0,0.0,0.0,0.0,0.0,0.0,0.0,0.0,0.0,0.0,-4.5571,-4.5491,-4.5411,-4.5197,-4.4917,-4.4556,-4.3821,-4.3233,-4.2873,-4.2285,-4.1884,-4.167,-4.1603,-4.1456,-4.1229,-4.0949,-4.0909,-4.1122,-4.1122,-4.0989,-4.0802,-4.1016,-4.0989,-4.0802,-4.0802,-4.0802,-4.0762,-4.0548,-4.0481,-4.0481,0.0,0.0,0.0,0.0,0.0,0.0,0.0,0.0,0.0,0.0,0.0,0.0,0.0,-2.1109,-2.1109,-2.1109,-2.1109,-2.1109,-2.1109,-2.1109,-2.1122,-2.1136,-2.1136,0.0,-2.1563,-2.1577,0.0,0.0,0.0,0.0,-3.0217,-2.9074,-3.0221,-3.3146,-3.1116,-2.9753,-2.8845,0.0,0.0,0.0,0.0,0.0,0.0,0.0,0.0,0.0,0.0,0.0,0.0,0.0,0.0,0.0,0.0,0.0,0.0,0.0,0.0,0.0,0.0,0.0,0.0,0.0,0.0,0.0,0.0,0.0,0.0,0.0,0.0,0.0,0.0,0.0,0.0,0.0,0.0,0.0,0.0,0.0,0.0,0.0,0.0,0.0,0.0,0.0,0.0,0.0,-4.509,-4.481,-4.4516,-4.4476,-4.4222,-4.3607,-4.3273,-4.2846,-4.2258,-4.167,-4.1376,-4.1376,-4.1096,-4.0949,-4.0909,-4.0615,-4.0508,-4.0508,-4.0508,-4.0508,-4.0508,-4.0508,-4.0508,-4.0508,-4.0508,-4.0508,-4.0508,-4.0481,-4.0481,-4.0481,0.0,0.0,0.0,0.0,0.0,0.0,0.0,0.0,0.0,0.0,0.0,0.0,0.0,-2.1109,-2.1109,-2.1109,-2.1109,-2.1109,-2.1109,-2.1109,-2.1109,-2.1109,-2.1109,-2.1336,-2.1817,-2.183,0.0,0.0,0.0,-2.4657,-2.7817,-2.8176,-2.9432,-3.1423,-3.0688,-3.0287,-2.9814,-2.602,0.0,0.0,0.0,0.0,0.0,0.0,0.0,0.0,0.0,0.0,0.0,0.0,0.0,0.0,0.0,0.0,0.0,0.0,0.0,0.0,0.0,0.0,0.0,0.0,0.0,0.0,0.0,0.0,0.0,0.0,0.0,0.0,0.0,0.0,0.0,0.0,0.0,0.0,0.0,0.0,0.0,0.0,0.0,0.0,0.0,0.0,0.0,0.0,0.0,-4.4182,-4.3861,-4.3674,-4.3314,-4.2686,-4.2405,-4.2071,-4.167,-4.1456,-4.1456,-4.163,-4.1122,-4.1016,-4.1163,-4.0695,-4.0481,-4.0481,-4.0481,-4.0481,-4.0481,-4.0481,-4.0481,-4.0481,-4.0481,-4.0481,-4.0441,-4.0254,-4.0321,-4.0441,0.0,0.0,0.0,0.0,0.0,0.0,0.0,0.0,0.0,0.0,0.0,0.0,0.0,0.0,-2.1109,-2.1109,-2.1109,-2.1109,-2.1109,-2.1109,-2.1109,-2.1109,-2.1109,-2.1376,-2.1977,-2.1991,0.0,0.0,0.0,0.0,0.0,0.0,-2.8657,-3.0341,-2.9953,0.0,0.0,0.0,0.0,-2.7025,0.0,0.0,-2.5945,0.0,0.0,0.0,0.0,0.0,0.0,0.0,0.0,0.0,0.0,0.0,0.0,0.0,0.0,0.0,0.0,0.0,0.0,0.0,0.0,0.0,0.0,0.0,0.0,0.0,0.0,0.0,0.0,0.0,0.0,0.0,0.0,0.0,0.0,0.0,0.0,0.0,0.0,0.0,0.0,0.0,0.0,0.0,0.0,0.0,-4.2953,-4.2766,-4.2432,-4.1924,-4.1644,-4.139,-4.1203,-4.1203,-4.131,-4.1497,-4.1096,-4.1016,-4.1189,-4.0695,-4.0481,-4.0481,-4.0481,-4.0481,-4.0481,-4.0481,-4.0481,-4.0481,-4.0481,-4.0401,-4.0294,-4.0107,-4.0107,-4.0107,0.0,0.0,0.0,0.0,0.0,0.0,0.0,0.0,0.0,0.0,0.0,0.0,0.0,0.0,0.0,-2.1136,-2.1136,-2.1122,-2.1109,-2.1109,-2.1109,-2.1109,-2.1122,-2.139,-2.1977,-2.1991,0.0,0.0,0.0,0.0,0.0,0.0,-2.8016,0.0,-2.9098,-2.9873,-3.1944,0.0,-3.0621,-2.9726,0.0,-2.6827,-2.6974,0.0,0.0,0.0,-2.7175,-2.6533,0.0,0.0,0.0,0.0,0.0,0.0,0.0,0.0,0.0,0.0,0.0,0.0,0.0,0.0,0.0,0.0,0.0,0.0,0.0,0.0,0.0,0.0,0.0,0.0,0.0,0.0,0.0,0.0,0.0,0.0,0.0,0.0,0.0,0.0,0.0,0.0,-4.306,-4.306,-4.2766,-4.2365,-4.179,-4.175,-4.1603,-4.1336,-4.1056,-4.0909,-4.0909,-4.0909,-4.0909,-4.0909,-4.0909,-4.0909,-4.0909,-4.0615,-4.0481,-4.0481,-4.0481,-4.0481,-4.0481,-4.0481,-4.0481,-4.0481,-4.0481,-4.0294,-4.0027,-4.0,-3.9853,-3.9599,0.0,0.0,0.0,0.0,0.0,0.0,0.0,0.0,0.0,0.0,0.0,0.0,0.0,0.0,0.0,-2.1764,-2.175,-2.1563,-2.1136,-2.1109,-2.1109,-2.1109,-2.1309,-2.1603,-2.1977,-2.2191,-2.2485,0.0,0.0,0.0,0.0,0.0,0.0,0.0,-2.8497,-2.9032,-2.9165,-2.7936,0.0,0.0,-2.7121,-2.7094,0.0,0.0,0.0,0.0,0.0,-2.7188,0.0,0.0,-2.5905,-2.5504,0.0,0.0,0.0,0.0,0.0,0.0,-2.4823,0.0,0.0,0.0,0.0,0.0,-3.1423,-3.2732,-3.4389,0.0,0.0,0.0,0.0,0.0,0.0,0.0,0.0,0.0,0.0,0.0,0.0,0.0,0.0,-4.2512,-4.2579,-4.2325,-4.2151,0.0,-4.1884,-4.1523,-4.1163,-4.0949,-4.0802,-4.0722,-4.0628,-4.0588,-4.0588,-4.0588,-4.0695,-4.0909,-4.0695,-4.0695,-4.0909,-4.0615,-4.0481,-4.0481,-4.0254,-4.0294,-4.0481,-4.0481,-4.0481,-4.0441,-4.0254,-4.0107,-4.0,-3.9559,-3.9493,-3.9533,0.0,0.0,0.0,0.0,0.0,0.0,0.0,0.0,0.0,0.0,0.0,0.0,0.0,0.0,0.0,-2.2392,-2.2231,-2.1924,-2.1336,-2.1296,-2.1296,-2.1296,-2.1577,-2.1871,-2.2164,-2.2338,-2.2565,0.0,0.0,0.0,0.0,0.0,0.0,0.0,0.0,0.0,0.0,0.0,0.0,0.0,-2.7829,0.0,0.0,-2.863,-2.8478,0.0,0.0,0.0,-2.9045,-2.8217,-2.7402,0.0,0.0,0.0,0.0,0.0,0.0,0.0,0.0,0.0,0.0,0.0,0.0,0.0,-3.0074,-3.0969,-3.2251,0.0,0.0,0.0,0.0,0.0,0.0,0.0,0.0,0.0,0.0,0.0,-4.2472,-4.2472,-4.2325,-4.2178,-4.2044,-4.1897,-4.1684,-4.1416,-4.1269,-4.1016,-4.0735,-4.0588,-4.0481,-4.0481,-4.0481,-4.0481,-4.0481,-4.0481,-4.0548,-4.0735,-4.0548,-4.0548,-4.0722,-4.0441,-4.0294,-4.0294,-3.996,-3.996,-4.0107,-4.0107,-4.0187,-4.0294,-4.0107,-3.988,-3.9626,-3.9265,-3.9199,-3.9199,0.0,0.0,0.0,0.0,0.0,0.0,0.0,0.0,0.0,0.0,0.0,0.0,0.0,0.0,0.0,0.0,-2.2766,-2.2311,-2.1697,-2.1617,-2.1603,-2.1603,-2.1884,-2.2151,-2.2405,-2.2458,-2.2592,-2.2859,0.0,0.0,0.0,0.0,0.0,0.0,0.0,0.0,0.0,0.0,0.0,-2.8123,-2.8991,-2.8207,0.0,0.0,-3.0001,0.0,-3.0877,-3.1597,-3.1236,-3.0074,-2.8671,0.0,0.0,0.0,0.0,0.0,-2.5371,0.0,0.0,0.0,0.0,0.0,0.0,0.0,-3.0114,-3.0261,-3.0541,-3.3106,-3.4496,0.0,0.0,0.0,0.0,-4.004,-4.0695,-4.1376,-4.2071,-4.2178,-4.2178,-4.2178,-4.2178,-4.2044,-4.171,-4.1684,-4.1456,-4.0909,-4.0869,-4.0762,-4.0481,-4.0481,-4.0481,-4.0481,-4.0481,-4.0481,-4.0481,-4.0481,-4.0481,-4.0481,-4.0441,-4.0441,-4.0401,-4.0107,-4.0,-3.996,-3.9666,-3.9559,-3.9599,-3.9559,-3.9706,-4.0,-3.996,-3.9626,-3.9159,-3.9118,-3.8945,-3.8718,-2.1109,0.0,0.0,0.0,0.0,0.0,0.0,0.0,0.0,0.0,0.0,0.0,0.0,0.0,0.0,0.0,-2.3808,-2.3153,-2.2298,-2.2031,-2.1897,-2.1897,-2.2178,-2.2365,-2.2418,-2.2645,-2.2806,-2.2859,0.0,0.0,0.0,0.0,0.0,0.0,0.0,0.0,0.0,0.0,0.0,-2.7495,-2.815,0.0,0.0,-3.1208,-3.1627,-3.2116,-3.2058,-3.2291,-3.2452,0.0,-2.9753,-2.8243,0.0,0.0,0.0,0.0,0.0,0.0,0.0,0.0,0.0,0.0,0.0,0.0,-2.7802,-2.847,-2.9766,0.0,-3.2465,-3.3694,-3.6647,-3.7382,-3.7555,-3.7635,-3.8945,-4.0401,-4.167,-4.1857,-4.1857,-4.1857,-4.1857,-4.167,-4.1122,-4.1096,-4.0949,-4.0588,-4.0548,-4.0548,-4.0481,-4.0481,-4.0481,-4.0481,-4.0481,-4.0481,-4.0481,-4.0481,-4.0481,-4.0481,-4.0214,-4.0107,-4.0107,-3.9813,-3.968,-3.9666,-3.9372,-3.9372,-3.9559,-3.9346,-3.9412,-3.9666,-3.9412,-3.9265,-3.9118,-3.8905,-3.8758,-3.8718,-2.1136,0.0,0.0,0.0,0.0,0.0,0.0,0.0,0.0,0.0,0.0,0.0,0.0,0.0,0.0,0.0,0.0,0.0,0.0,0.0,-2.2352,-2.2205,-2.2485,-2.2645,-2.2645,-2.2779,-2.2859,-2.2859,0.0,0.0,0.0,0.0,0.0,0.0,0.0,0.0,0.0,0.0,-2.6293,-2.6987,-2.8751,0.0,-2.8003,-3.1374,-3.1264,-3.0058,-3.2333,-3.3307,-3.3187,-3.1557,-3.0715,0.0,0.0,-2.7789,-2.7976,0.0,-2.7041,-2.7215,0.0,0.0,0.0,-2.7642,0.0,0.0,0.0,-2.7829,-2.8524,-3.0595,-3.0782,-3.1476,-3.4416,-3.4843,-3.503,-3.5925,-3.7048,-3.8357,-3.9827,-4.0909,-4.1563,-4.1563,-4.1563,-4.1376,-4.0949,-4.0909,-4.0802,-4.0508,-4.0481,-4.0481,-4.0481,-4.0481,-4.0481,-4.0481,-4.0481,-4.0481,-4.0481,-4.0481,-4.0401,-4.0254,-4.0107,-3.996,-3.9813,-3.9519,-3.9372,-3.9346,-3.8905,-3.8878,-3.9132,-3.8838,-3.8798,-3.8945,-3.9092,-3.9078,-3.8931,-3.8758,-3.8718,-3.8718,-2.1162,0.0,0.0,0.0,0.0,0.0,0.0,0.0,0.0,0.0,0.0,0.0,0.0,0.0,0.0,0.0,0.0,0.0,0.0,0.0,0.0,-2.2352,-2.2672,-2.2806,-2.2699,-2.2806,-2.2859,-2.2859,0.0,0.0,0.0,0.0,0.0,0.0,0.0,0.0,0.0,0.0,0.0,-2.7041,0.0,-2.8283,-2.511,-3.1463,-3.1166,-2.8049,-3.2646,-3.4175,-3.3627,-3.1877,0.0,-3.1597,-2.8671,-2.8911,0.0,0.0,0.0,0.0,0.0,0.0,0.0,0.0,0.0,-2.7856,0.0,0.0,0.0,-2.9646,-2.9499,0.0,0.0,0.0,0.0,0.0,0.0,0.0,0.0,-3.9012,0.0,-4.0802,-4.0788,-4.0722,-4.0655,-4.0548,-4.0441,-4.0334,-4.0147,-4.0147,-4.0361,-4.0401,-4.0401,-4.0481,-4.0481,-4.0481,-4.0481,-4.0481,-4.0334,-4.0027,-3.996,-3.9786,-3.9493,-3.9159,-3.9012,-3.9052,-3.8504,-3.8437,-3.8691,-3.8397,-3.8263,-3.833,-3.8865,-3.8905,-3.8651,-3.8691,-3.8758,-3.8798,-2.1162,0.0,0.0,0.0,-2.3621,-2.485,-2.5772,-2.66,0.0,0.0,0.0,0.0,0.0,0.0,0.0,0.0,0.0,0.0,-2.5585,0.0,0.0,-2.2058,-2.2565,-2.2619,-2.2098,-2.2592,-2.2859,-2.2859,0.0,0.0,0.0,0.0,0.0,0.0,-2.3754,0.0,0.0,0.0,-2.6373,0.0,-2.986,-2.9911,0.0,-3.2124,-3.2854,-3.2781,-3.4209,-3.4362,-3.3801,0.0,-3.2666,-3.1984,0.0,-3.0595,0.0,0.0,0.0,0.0,0.0,0.0,0.0,0.0,-3.006,0.0,0.0,0.0,-2.9112,-2.8858,0.0,-2.9379,0.0,0.0,0.0,0.0,0.0,0.0,-3.3668,-3.5364,-3.7275,-3.8838,-3.8771,-3.8905,-3.968,-3.9265,-3.9159,-3.9666,-3.8945,-3.8985,-4.0027,-4.0067,-4.0214,-4.0481,-4.0481,-4.0481,-4.0481,-4.0481,-4.0334,-4.0027,-3.9773,-3.9493,-3.9199,-3.8624,-3.8504,-3.8758,-3.8397,-3.8437,-3.8691,-3.8397,-3.8263,-3.829,-3.8651,-3.8584,-3.833,-3.8611,-3.8905,-3.9118,-2.1203,0.0,0.0,0.0,-2.3487,-2.4596,-2.5999,-2.7535,0.0,0.0,0.0,0.0,0.0,0.0,0.0,0.0,0.0,0.0,0.0,0.0,0.0,0.0,0.0,0.0,-2.2766,-2.2832,-2.2859,-2.2859,-2.2859,0.0,0.0,0.0,0.0,0.0,-2.3875,0.0,-2.5037,0.0,0.0,0.0,0.0,0.0,0.0,-3.0821,-3.1507,-3.2149,-3.4229,-3.475,-3.4215,0.0,-3.2866,0.0,0.0,0.0,0.0,0.0,0.0,0.0,0.0,0.0,0.0,0.0,0.0,0.0,-2.8577,0.0,-2.8323,0.0,0.0,0.0,0.0,0.0,0.0,0.0,-3.1102,-3.2064,0.0,0.0,-3.4683,-3.7155,0.0,0.0,-3.7956,-3.8143,-3.829,-3.8544,-3.8223,-3.829,-3.8985,-3.9493,-3.992,-4.0214,-4.0401,-4.0481,-4.0481,-4.0294,-4.0067,-3.9773,-3.9493,-3.9199,-3.8905,-3.8651,-3.8611,-3.8691,-3.821,-3.8183,-3.8397,-3.7929,-3.7742,-3.7782,-3.8076,-3.8223,-3.829,-3.8611,-3.8798,-3.8945,0.0,0.0,0.0,0.0,0.0,0.0,-2.6346,0.0,0.0,0.0,0.0,0.0,-3.1784,-3.141,0.0,0.0,0.0,-2.8711,0.0,0.0,-2.4636,0.0,0.0,0.0,0.0,0.0,-2.2993,-2.2993,-2.2899,0.0,0.0,0.0,0.0,0.0,0.0,-2.481,-2.5304,0.0,0.0,-2.7629,-2.9285,-2.9611,-2.941,-3.0403,-3.0802,-3.1177,-3.4082,-3.4518,-3.3382,-3.3027,-3.324,0.0,-3.2091,0.0,0.0,0.0,0.0,0.0,-3.141,0.0,0.0,0.0,0.0,0.0,0.0,0.0,0.0,0.0,0.0,0.0,0.0,0.0,0.0,0.0,0.0,-3.0702,0.0,-3.1249,-3.2358,-3.499,-3.5244,0.0,0.0,-3.7008,-3.7275,-3.7448,-3.7088,-3.7235,-3.8076,-3.8758,-3.9386,-4.0,-4.0334,-4.0481,-4.0481,-4.0187,-3.9893,-3.9599,-3.9306,-3.9012,-3.8718,-3.8651,-3.8584,-3.8584,-3.8036,-3.7929,-3.8103,-3.7595,-3.7382,-3.7422,-3.7595,-3.7889,-3.8183,-3.8477,-3.8758,-3.8985,-2.1911,-2.1964,0.0,0.0,0.0,0.0,0.0,0.0,0.0,0.0,0.0,0.0,0.0,0.0,0.0,0.0,0.0,-3.0875,-3.0261,0.0,-2.5277,0.0,0.0,0.0,0.0,0.0,0.0,-2.3313,0.0,0.0,0.0,0.0,0.0,0.0,0.0,-2.5945,-2.6787,-2.7402,-2.8657,-3.0287,-3.0915,-3.0764,-3.0272,0.0,-3.187,-3.0927,-3.4004,0.0,0.0,-3.3746,-3.4122,0.0,0.0,0.0,0.0,0.0,0.0,0.0,0.0,0.0,0.0,-3.1289,0.0,0.0,0.0,0.0,-3.0448,0.0,0.0,0.0,0.0,0.0,0.0,0.0,0.0,0.0,0.0,-2.9566,-3.0234,-3.2024,-3.3988,0.0,0.0,-3.5859,-3.5939,-3.65,-3.5231,-3.5431,-3.7702,-3.7849,-3.8544,-4.0,-4.0334,-4.0481,-4.0481,-4.0187,-3.9893,-3.9599,-3.9306,-3.9012,-3.8718,-3.8397,-3.8263,-3.8263,-3.7956,-3.7809,-3.7809,-3.7489,-3.7382,-3.7382,-3.7382,-3.7569,-3.7849,-3.8143,-3.8838,-3.9559,0.0,0.0,0.0,0.0,0.0,0.0,0.0,-2.8056,0.0,0.0,0.0,0.0,0.0,0.0,-3.5845,0.0,0.0,-3.3267,-3.1891,-2.9419,0.0,0.0,0.0,-2.4783,0.0,0.0,0.0,0.0,0.0,0.0,0.0,0.0,0.0,0.0,0.0,-2.6106,0.0,0.0,0.0,0.0,0.0,-3.2156,-3.3083,0.0,0.0,-3.0941,-3.1899,-3.2897,0.0,-3.4794,-3.4723,-3.4322,-3.4429,-3.4055,-3.3561,-3.3467,-3.3507,0.0,0.0,0.0,-3.4068,-3.2372,0.0,0.0,0.0,0.0,0.0,0.0,0.0,0.0,0.0,0.0,0.0,0.0,0.0,0.0,0.0,-2.8845,-2.9112,-3.0488,-3.2305,0.0,0.0,-3.3828,-3.3961,-3.4162,-3.3534,-3.3841,-3.5418,-3.6607,-3.7742,-3.8838,-3.9706,-4.0187,-4.0187,-3.9893,-3.9599,-3.9306,-3.9012,-3.8825,-3.8718,-3.8611,-3.8437,-3.825,-3.7929,-3.7702,-3.7489,-3.7195,-3.7088,-3.7088,-3.7088,-3.7382,-3.7849,-3.8143,-3.8691,-3.9372,-2.1622,0.0,0.0,0.0,0.0,0.0,0.0,0.0,0.0,0.0,-3.3601,0.0,-3.7595,0.0,-3.7889,0.0,-3.7088,-3.5404,-3.332,-3.1557,0.0,-2.8684,-2.7535,0.0,0.0,0.0,0.0,0.0,0.0,-2.3375,0.0,0.0,0.0,0.0,0.0,0.0,0.0,0.0,-2.9873,0.0,0.0,-3.316,0.0,0.0,-3.0517,-3.1189,0.0,-3.2947,-3.3755,-3.4729,-3.4937,-3.4629,-3.4736,-3.4429,-3.4002,-3.3788,-3.3881,-3.4015,-3.3921,-3.4309,0.0,-3.344,-3.2812,0.0,-3.0728,0.0,0.0,0.0,0.0,0.0,0.0,0.0,0.0,0.0,0.0,0.0,0.0,-2.8323,-2.8551,-2.9633,-3.1036,-3.2011,-3.2211,-3.2412,-3.2425,-3.2211,-3.1837,-3.2265,-3.3761,-3.5217,-3.6647,-3.8076,-3.9159,-3.9773,-3.9893,-3.9599,-3.9346,-3.9159,-3.8865,-3.8718,-3.8718,-3.8611,-3.8397,-3.8076,-3.7782,-3.7489,-3.7195,-3.7008,-3.6941,-3.6941,-3.7048,-3.7342,-3.7702,-3.7996,-3.8544,-3.9225,-2.0705,-2.2137,-2.3434,-2.342,-2.4596,0.0,0.0,0.0,-3.1249,0.0,-3.4723,-3.6834,-3.8624,-3.9078,-3.9479,-4.0027,-3.9012,0.0,-3.4683,-3.3921,0.0,0.0,-2.9659,-2.8951,-2.7468,0.0,0.0,0.0,0.0,0.0,0.0,0.0,0.0,0.0,-2.6747,0.0,-2.7455,-3.01,-3.1436,-3.1851,-3.2959,-3.3627,-3.3731,-3.0744,-3.0562,-3.1893,-3.4199,-3.3058,-3.115,-3.4228,-3.483,-3.4416,-3.4696,-3.4576,-3.4229,-3.3668,-3.3908,-3.4282,-3.4015,-3.4376,-3.475,-3.4456,-3.4148,0.0,0.0,0.0,-3.4028,0.0,0.0,0.0,0.0,0.0,0.0,0.0,0.0,0.0,0.0,0.0,-2.847,-2.9339,-3.0167,-3.0902,-3.153,-3.1557,-3.1303,-3.0702,-3.0154,-3.0728,-3.2719,-3.3748,-3.5324,-3.7635,-3.8611,-3.9265,-3.9559,-3.9306,-3.9159,-3.9118,-3.8865,-3.8718,-3.8718,-3.8397,-3.8103,-3.7809,-3.7489,-3.7195,-3.6941,-3.6941,-3.6941,-3.6967,-3.7235,-3.7382,-3.7448,-3.7742,-3.8397,-3.9199,-2.0816,-2.3189,-2.4877,-2.4663,-2.5304,-2.6293,0.0,0.0,0.0,0.0,-3.6313,-3.821,-4.0428,-4.0548,-4.0508,-4.0655,-3.9813,0.0,0.0,0.0,0.0,-3.3146,-3.2238,-3.1169,-2.9913,-2.6696,0.0,-2.7058,0.0,0.0,-2.6177,0.0,0.0,0.0,0.0,0.0,-2.7749,-3.0194,-3.1904,-3.2986,-3.3293,-3.3988,-3.479,0.0,-3.3667,-3.454,-3.2299,-3.2586,-3.4004,-3.4953,-3.5097,-3.499,-3.5057,-3.4883,-3.4616,-3.4469,-3.4536,-3.4683,-3.4817,-3.5284,-3.5672,-3.5364,-3.491,-3.4349,0.0,0.0,0.0,0.0,0.0,0.0,0.0,0.0,0.0,0.0,0.0,0.0,0.0,0.0,0.0,-2.8778,-2.8831,-2.9232,-3.0261,-2.9967,-2.9472,-2.8871,-2.8898,-2.9459,-3.0635,-3.2572,-3.4429,-3.6139,-3.7676,-3.8731,-3.9265,-3.9199,-3.9052,-3.8838,-3.8758,-3.8718,-3.8718,-3.8397,-3.8103,-3.7809,-3.7489,-3.7195,-3.6941,-3.6941,-3.6941,-3.6941,-3.7008,-3.7301,-3.7782,-3.829,-3.8758,-3.9199,-2.0016,-2.363,-2.6373,-2.6079,0.0,0.0,-2.9005,0.0,0.0,-3.5084,-3.7155,0.0,-4.0254,-4.0949,-4.1243,-4.1122,-4.0401,0.0,0.0,0.0,0.0,-3.4963,-3.4376,-3.3414,-3.1984,-2.8508,0.0,-2.6114,0.0,0.0,-2.4568,0.0,0.0,0.0,0.0,-2.7495,0.0,-3.0555,-3.2305,-3.3414,-3.3414,-3.3814,0.0,-3.3868,-3.4282,-3.4847,-3.2767,-3.3536,-3.5191,-3.5191,-3.5191,-3.5191,-3.5191,-3.5084,-3.495,-3.495,-3.495,-3.5044,-3.5471,-3.5819,-3.6126,-3.634,-3.6046,-3.5591,-3.5137,-3.5418,-3.5551,0.0,-3.5311,-3.5485,0.0,0.0,0.0,0.0,0.0,0.0,0.0,0.0,0.0,0.0,-2.8457,-2.8551,-2.9085,-2.8484,-2.7923,-2.7589,-2.7843,-2.835,-2.9098,-3.149,-3.34,-3.4616,-3.6767,-3.8103,-3.8571,-3.8972,-3.9012,-3.8718,-3.8584,-3.8504,-3.8504,-3.8076,-3.7782,-3.7595,-3.7301,-3.7088,-3.6941,-3.6941,-3.6941,-3.6941,-3.6941,-3.7382,-3.8036,-3.825,-3.8611,-3.8972,0.0,-2.3365,-2.6723,-2.654,0.0,0.0,0.0,-3.1508,0.0,-3.5391,0.0,-3.9479,-3.9559,-4.0909,-4.167,-4.1376,0.0,-3.996,-3.8584,-3.8758,-3.8036,-3.6059,-3.6219,-3.5551,-3.3828,-3.0144,0.0,0.0,0.0,0.0,-2.1968,0.0,0.0,0.0,0.0,0.0,0.0,-3.0942,-3.2465,-3.3253,-3.336,-3.3454,-3.3521,-3.3494,-3.3721,-3.4082,-3.4295,-3.471,-3.5151,-3.5177,-3.5191,-3.5191,-3.5191,-3.5191,-3.5191,-3.5191,-3.5217,-3.5378,-3.5925,-3.6099,-3.6326,-3.7168,-3.7195,-3.6941,-3.6727,-3.6647,-3.6473,-3.6006,-3.5859,-3.5672,-3.5217,0.0,0.0,0.0,0.0,0.0,0.0,0.0,0.0,0.0,0.0,0.0,-2.8123,-2.7388,-2.6894,-2.6774,-2.7041,-2.7428,-2.7936,-3.0421,-3.2251,-3.3213,-3.5752,-3.7342,-3.7809,-3.8571,-3.8905,-3.8718,-3.837,-3.8183,-3.8183,-3.7635,-3.7382,-3.7382,-3.7048,-3.6941,-3.6941,-3.6941,-3.6967,-3.7008,-3.7048,-3.7529,-3.8183,-3.7956,-3.821,-3.8691,0.0,0.0,0.0,0.0,0.0,-2.4897,-2.6208,-3.1818,-3.6299,-3.7889,-3.9773,-4.1163,-4.163,-4.175,-4.167,-4.1376,-4.1016,0.0,0.0,0.0,0.0,-3.7863,-3.7863,-3.7168,-3.5645,-3.1675,-2.9848,0.0,0.0,-2.3224,-2.621,-2.3964,-2.4083,0.0,0.0,0.0,-2.9339,-3.0768,0.0,-3.2398,-3.312,-3.3708,-3.4135,-3.3895,-3.4282,-3.4937,-3.475,-3.475,-3.487,-3.5124,-3.5191,-3.5191,-3.5191,-3.5191,-3.5191,-3.5191,-3.5364,-3.5631,-3.5979,-3.6246,-3.658,-3.7235,-3.7342,-3.7342,-3.7555,-3.7408,-3.7275,-3.7408,-3.7048,-3.6326,-3.507,0.0,0.0,0.0,0.0,0.0,0.0,0.0,0.0,0.0,0.0,-2.839,-2.7829,-2.7642,-2.7241,-2.652,-2.6734,-2.6947,-2.7054,-2.9112,-3.0929,-3.2291,-3.4442,-3.6299,-3.7809,-3.7956,-3.829,-3.8718,-3.8143,-3.7889,-3.7889,-3.7529,-3.7382,-3.7382,-3.7048,-3.6941,-3.6941,-3.6941,-3.7088,-3.7342,-3.7555,-3.7742,-3.7929,-3.8116,-3.825,-3.8397,0.0,0.0,0.0,0.0,0.0,0.0,0.0,-3.1887,0.0,-3.5892,-3.8662,-4.0548,-4.0842,-4.1563,-4.1817,-4.1376,-4.1203,-4.0869,-4.0294,-4.0107,-3.9706,-3.8985,-3.8651,0.0,-3.6767,-3.3797,-3.1667,-3.0328,0.0,-2.4071,-2.54,-2.3464,-2.3741,-2.5972,0.0,-2.7535,0.0,0.0,0.0,-3.2198,-3.324,-3.3828,-3.4095,-3.4108,-3.4376,-3.475,-3.4763,-3.4763,-3.4803,-3.5097,-3.5191,-3.5191,-3.5191,-3.5191,-3.5191,-3.5191,-3.5297,-3.5498,-3.5952,-3.6179,-3.6433,-3.7008,-3.7275,-3.7422,-3.7555,-3.7716,-3.7823,-3.7809,-3.7702,-3.7088,-3.5311,-3.3066,0.0,0.0,0.0,0.0,0.0,0.0,0.0,0.0,0.0,0.0,0.0,-2.7789,-2.7268,-2.6239,-2.672,-2.6854,-2.64,-2.8337,-2.9993,-3.1156,-3.336,-3.5284,-3.6901,-3.7529,-3.7956,-3.825,-3.7635,-3.7368,-3.7342,-3.7048,-3.6941,-3.6941,-3.6941,-3.7008,-3.7195,-3.7342,-3.7555,-3.7823,-3.7676,-3.7782,-3.8036,-3.8036,-3.8116,-3.833,0.0,-2.0159,0.0,0.0,-2.3834,0.0,-2.5664,-3.0177,-3.3629,-3.3859,-3.7656,-4.008,-4.0147,-4.1376,-4.1991,-4.1376,-4.1336,-4.1096,-4.0508,-4.0254,-4.0,-3.9706,-3.9239,-3.8584,-3.7676,-3.5778,-3.3094,0.0,-2.6558,-2.4842,-2.4311,-2.2886,-2.3433,-2.5598,0.0,0.0,0.0,0.0,-3.0849,-3.2118,-3.3387,-3.3921,-3.4015,-3.4309,-3.4456,-3.4536,-3.4776,-3.4857,-3.4897,-3.5124,-3.5191,-3.5191,-3.5191,-3.5191,-3.5191,-3.5191,-3.5284,-3.5485,-3.5952,-3.6166,-3.6393,-3.6981,-3.7301,-3.7489,-3.7635,-3.7969,-3.8183,-3.7956,-3.7996,-3.7529,-3.5712,-3.4002,0.0,0.0,0.0,0.0,0.0,0.0,0.0,0.0,0.0,0.0,-2.7896,-2.7789,-2.7228,-2.5879,-2.6587,-2.6747,-2.5999,-2.7682,-2.9072,-2.9953,-3.2278,-3.4242,-3.5778,-3.6834,-3.7448,-3.7635,-3.7048,-3.6754,-3.6754,-3.6513,-3.6433,-3.6513,-3.6754,-3.7048,-3.7422,-3.7702,-3.7956,-3.8116,-3.7635,-3.7742,-3.8143,-3.7889,-3.7996,-3.829,0.0,0.0,0.0,0.0,0.0,0.0,0.0,-2.4098,-2.9324,-3.5611,-3.9488,-4.167,-4.1924,-4.2111,-4.1991,-4.1376,-4.1336,-4.1096,-4.0508,-4.0441,-4.0294,-4.0,-3.992,-3.9493,-3.8611,-3.7088,-3.4833,0.0,-2.8136,-2.614,-2.574,-2.3218,-2.2854,-2.4449,0.0,0.0,0.0,-2.9673,-3.1102,-3.1837,-3.3293,-3.4042,-3.4309,-3.4603,-3.4883,-3.5124,-3.5151,-3.5151,-3.5164,-3.5191,-3.5191,-3.5191,-3.5191,-3.5191,-3.5191,-3.5191,-3.5578,-3.6006,-3.6059,-3.6473,-3.7008,-3.7595,-3.7742,-3.7929,-3.8464,-3.8437,-3.8263,-3.8223,-3.7823,-3.7168,-3.6179,-3.5605,-3.4683,0.0,0.0,0.0,0.0,0.0,-3.1156,-3.0007,0.0,0.0,-2.6827,-2.7495,-2.7281,-2.5304,-2.5972,-2.6319,-2.5972,-2.6894,-2.7843,-2.8738,-3.1049,-3.3106,-3.487,-3.5511,-3.6233,-3.7008,-3.6433,-3.6153,-3.6153,-3.6126,-3.6259,-3.65,-3.654,-3.6874,-3.7422,-3.7702,-3.7823,-3.7849,-3.7782,-3.7809,-3.7849,-3.7809,-3.7996,-3.829,0.0,0.0,0.0,0.0,0.0,0.0,0.0,-2.3901,-2.7425,-3.0125,-3.5571,-3.9756,-4.1938,-4.2218,-4.1991,-4.1376,-4.1336,-4.1096,-4.0508,-4.0481,-4.0441,-4.0294,-4.0147,-3.9706,-3.9012,-3.7702,-3.5819,0.0,0.0,0.0,-2.7228,-2.479,-2.4013,-2.477,0.0,-2.6934,-2.8243,-2.9659,-3.1009,-3.2305,-3.3627,-3.4322,-3.4616,-3.491,-3.5097,-3.5191,-3.5191,-3.5191,-3.5217,-3.5404,-3.5338,-3.5191,-3.5191,-3.5311,-3.5458,-3.5458,-3.5752,-3.6112,-3.6286,-3.65,-3.6794,-3.7195,-3.7555,-3.7889,-3.8103,-3.8357,-3.8544,-3.8544,-3.8357,-3.8036,-3.7489,-3.6433,-3.5418,-3.4763,0.0,0.0,0.0,0.0,0.0,-3.0581,0.0,-2.8604,-2.7068,-2.7028,-2.6827,-2.6172,-2.6453,-2.6453,-2.5985,0.0,-2.7295,-2.9072,-3.0207,-3.1984,-3.4469,-3.5084,-3.5725,-3.6393,-3.6006,-3.5805,-3.5819,-3.5992,-3.6326,-3.6754,-3.6941,-3.7275,-3.7676,-3.7969,-3.8076,-3.8076,-3.7889,-3.7929,-3.8076,-3.7889,-3.8103,-3.8544,-1.8972,0.0,-1.885,0.0,-1.9841,-2.0031,-2.0933,-2.3247,-2.5461,-2.6378,-3.0779,-3.573,-4.0124,-4.0645,-4.0956,-4.151,-4.1376,-4.1122,-4.0628,-4.0508,-4.0481,-4.0481,-4.0294,0.0,-3.9412,-3.833,-3.666,-3.4402,-3.2412,0.0,-2.8364,-2.6253,-2.5344,-2.5491,-2.6132,-2.7402,-2.9098,-3.0034,-3.1343,-3.2893,-3.3908,-3.4496,-3.479,-3.5084,-3.5191,-3.5191,-3.5191,-3.5191,-3.5244,-3.5538,-3.5498,-3.5338,-3.5431,-3.5591,-3.5765,-3.5765,-3.5965,-3.6259,-3.654,-3.6687,-3.6834,-3.7128,-3.7515,-3.7809,-3.7809,-3.821,-3.8611,-3.8691,-3.8651,-3.8544,-3.8397,-3.7301,-3.6353,-3.6219,0.0,0.0,0.0,-3.3187,0.0,-3.0942,-2.9459,-2.8096,-2.6987,-2.6587,-2.64,-2.644,0.0,0.0,0.0,0.0,0.0,-2.9032,-2.9793,-3.1423,-3.4042,-3.4643,-3.5231,-3.5819,-3.5685,-3.5631,-3.5645,-3.6032,-3.6433,-3.6834,-3.7128,-3.7448,-3.7809,-3.7969,-3.8036,-3.8116,-3.7889,-3.7929,-3.8116,-3.7996,-3.829,-3.8718,-1.9535,-1.9644,-1.9875,-2.0634,-2.0878,-2.1034,-2.1197,-2.1333,-2.2738,-2.6124,-2.6649,-2.9246,-3.6243,-3.7024,-3.8218,-4.154,-4.1523,-4.1229,-4.0909,-4.0628,-4.0481,0.0,0.0,-4.0334,-4.0027,-3.9159,-3.7702,-3.5605,0.0,0.0,-2.8991,0.0,-2.664,-2.644,-2.7909,-2.8751,-2.9152,-3.0902,-3.2332,-3.3454,-3.4068,-3.4496,-3.479,-3.5084,-3.5191,-3.5191,-3.5191,-3.5191,-3.5244,-3.5538,-3.5631,-3.5672,-3.5965,-3.6059,-3.6072,-3.6072,-3.6273,-3.658,-3.6861,-3.7155,-3.7448,-3.7742,-3.7809,-3.7809,-3.7809,-3.8036,-3.837,-3.8651,-3.8477,-3.837,-3.8651,-3.8437,-3.7863,-3.6687,0.0,0.0,0.0,-3.336,0.0,-3.0969,-3.0007,-2.8551,-2.6199,-2.6226,-2.6146,0.0,0.0,0.0,0.0,0.0,0.0,-2.8163,-2.9873,-3.1637,-3.344,-3.4042,-3.4629,-3.5204,-3.5498,-3.5631,-3.5645,-3.6233,-3.65,-3.654,-3.6834,-3.7261,-3.7782,-3.7529,-3.7569,-3.7809,-3.7809,-3.7809,-3.7849,-3.8143,-3.8437,-3.8718,-2.0207,-2.0261,-2.0363,-2.0716,-2.0811,-2.0933,-2.1177,-2.1245,-2.1576,-2.2988,-2.3009,-2.4834,-2.9488,-3.4174,-3.7346,0.0,-4.0108,-4.1122,0.0,-4.0508,-4.0481,-4.0481,-4.0481,-4.0254,-3.9746,-3.9265,-3.8103,-3.6233,0.0,0.0,0.0,-2.8858,-2.8484,-2.8243,-2.9325,-3.0301,-3.1196,-3.2158,-3.3013,-3.3748,-3.3948,-3.4322,-3.4776,-3.487,-3.5017,-3.5191,-3.5191,-3.5324,-3.5538,-3.5832,-3.6059,-3.6273,-3.658,-3.654,-3.6366,-3.6366,-3.6727,-3.7088,-3.6981,-3.7301,-3.7635,-3.7555,-3.7676,-3.7849,-3.8076,-3.8357,-3.8611,-3.8691,-3.8651,-3.8611,-3.8691,-3.829,-3.7782,-3.7195,-3.6513,0.0,-3.4362,0.0,-3.161,-3.0341,-2.8885,-2.7522,-2.636,-2.652,-2.652,-2.6146,0.0,0.0,0.0,0.0,0.0,-2.9032,-3.0381,-3.1944,-3.3734,-3.4322,-3.491,-3.5498,-3.5591,-3.5832,-3.6233,-3.6433,-3.662,-3.6794,-3.6901,-3.7155,-3.7529,-3.7422,-3.7555,-3.7809,-3.7809,-3.7929,-3.8116,-3.8223,-3.8477,-3.8718,-2.0526,-2.0539,-2.0594,-2.0736,-2.0824,-2.0933,-2.1177,-2.1265,-2.1333,-2.1421,-2.1441,-2.223,-2.4307,-2.9768,0.0,-3.6325,-3.8148,-3.9901,-4.0829,-4.0588,-4.0481,-4.0481,-4.0481,-4.0294,-3.9933,-3.9519,0.0,-3.7342,-3.5498,-3.324,-3.0635,-3.0287,-3.01,-3.0047,-3.0608,-3.1383,-3.2305,-3.2772,-3.3387,-3.4055,-3.4055,-3.4402,-3.4923,-3.4923,-3.5044,-3.5191,-3.5191,-3.5378,-3.5672,-3.5979,-3.6259,-3.658,-3.6981,-3.6981,-3.6834,-3.6834,-3.7021,-3.7235,-3.7261,-3.7448,-3.7635,-3.7569,-3.7676,-3.7889,-3.8183,-3.833,-3.8397,-3.8504,-3.8464,-3.8397,-3.8397,-3.8063,-3.7702,-3.7422,-3.666,-3.5618,-3.4336,-3.2625,-3.1062,-2.9887,-2.8671,-2.7655,-2.6947,-2.7348,-2.7442,-2.6921,0.0,0.0,0.0,0.0,-2.8537,-2.9619,-3.0889,-3.2358,-3.4028,-3.4523,-3.5057,-3.5631,-3.5845,-3.6206,-3.6687,-3.6687,-3.6754,-3.6941,-3.6941,-3.7114,-3.7382,-3.7275,-3.7382,-3.7676,-3.7782,-3.7929,-3.8116,-3.8357,-3.8544,-3.8718,-2.0539,-2.0539,-2.0594,0.0,-2.0878,0.0,-2.1157,-2.1319,-2.1408,-2.1421,-2.1421,-2.1421,-2.1441,-2.4299,-2.8986,-3.573,0.0,0.0,0.0,-4.0544,-4.0481,-4.0481,-4.0481,-4.0481,-4.0441,-3.9893,-3.9306,-3.8651,-3.5832,-3.3855,-3.2706,-3.1797,-3.1543,-3.1824,-3.1784,-3.2078,-3.2625,-3.2893,-3.3507,-3.4295,-3.4295,-3.4643,-3.5164,-3.5164,-3.5177,-3.5191,-3.5191,-3.5378,-3.5672,-3.5979,-3.6259,-3.662,-3.7168,-3.7342,-3.7342,-3.7382,-3.7195,-3.7114,-3.7635,-3.7595,-3.7489,-3.7742,-3.7849,-3.7956,-3.8183,-3.8076,-3.7956,-3.8223,-3.8076,-3.7889,-3.7889,-3.7849,-3.7702,-3.7422,-3.662,-3.5498,-3.4028,-3.2345,-3.0822,-2.9619,-2.9272,0.0,-2.7909,-2.8577,-2.8724,0.0,0.0,0.0,0.0,-2.8591,-2.9165,-2.998,-3.145,-3.2906,-3.4336,-3.467,-3.511,-3.5672,-3.6259,-3.6647,-3.6901,-3.6941,-3.6967,-3.6941,-3.6967,-3.7128,-3.7342,-3.7048,-3.7128,-3.7422,-3.7702,-3.7809,-3.7929,-3.8504,-3.8718,-3.8718,0.0,0.0,-2.056,-2.0594,-2.0716,-2.0845,-2.0878,-2.1001,-2.1143,-2.1245,-2.1265,-2.1319,-2.1421,-2.2223,-2.4307,-2.8716,-3.3486,-3.6346,-3.6942,-3.9048,-4.0481,-4.0481,-4.0481,-4.0361,-4.0147,-4.0,-3.9306,-3.8036,-3.6433,-3.5284,-3.4549,-3.3414,-3.3066,-3.3347,-3.2879,-3.2866,-3.3213,-3.328,-3.3574,-3.3988,-3.3988,-3.4349,-3.487,-3.487,-3.5004,-3.5191,-3.5191,-3.5378,-3.5672,-3.5979,-3.6259,-3.658,-3.6941,-3.7048,-3.7088,-3.7315,-3.7489,-3.7529,-3.7235,-3.7595,-3.801,-3.7849,-3.8183,-3.8464,-3.829,-3.8397,-3.8544,-3.8611,-3.8544,-3.8504,-3.8504,-3.8143,-3.7702,-3.7422,-3.6273,-3.4883,-3.34,-3.2251,-3.1049,-2.9646,-2.982,-2.9793,-2.9125,-2.9259,-2.9285,-2.9072,0.0,-2.9072,-2.9165,-3.0087,-3.0702,-3.0915,-3.2572,-3.3841,-3.4643,-3.5164,-3.5605,-3.5979,-3.654,-3.6754,-3.662,-3.7088,-3.7155,-3.6941,-3.7168,-3.7195,-3.7048,-3.6967,-3.7128,-3.7422,-3.7702,-3.7956,-3.8183,-3.8584,-3.8718,-3.8758,-2.0736,-2.075,-2.075,-2.075,-2.0878,-2.0967,-2.0967,-2.1109,-2.1211,-2.1211,-2.1265,-2.1319,-2.1333,-2.1408,-2.2188,-2.3929,-2.8562,-3.2089,-3.3328,-3.511,-3.5976,-3.5976,-3.7469,-3.8151,-3.8012,-3.9214,-3.9159,-3.7809,-3.7048,-3.6233,-3.5378,-3.4589,-3.4108,-3.3868,-3.3547,-3.348,-3.3627,-3.3627,-3.3881,-3.4282,-3.4282,-3.4563,-3.4963,-3.4963,-3.5137,-3.5391,-3.5391,-3.5672,-3.6059,-3.6219,-3.6473,-3.6754,-3.7048,-3.7128,-3.7155,-3.7342,-3.7382,-3.7382,-3.7195,-3.7382,-3.7676,-3.7782,-3.8183,-3.8504,-3.8477,-3.8504,-3.8504,-3.8504,-3.8397,-3.8317,-3.8317,-3.7929,-3.7422,-3.6874,-3.5551,-3.4028,-3.2398,-3.1423,-3.0528,-2.9593,-3.0127,-3.0488,-3.0301,-3.0648,-3.0662,-3.0127,-3.0301,-3.0341,-3.01,-3.1316,-3.1904,-3.1637,-3.3093,-3.4175,-3.475,-3.5471,-3.5979,-3.6273,-3.6727,-3.6861,-3.6727,-3.7048,-3.7088,-3.6941,-3.7114,-3.7088,-3.6941,-3.6941,-3.7128,-3.7422,-3.7702,-3.7996,-3.829,-3.8611,-3.8718,-3.8758,-2.0967,-2.1001,-2.1001,-2.1001,-2.1123,-2.1211,-2.1177,-2.1319,-2.1353,-2.1197,-2.1319,-2.1353,-2.1231,-2.1353,-2.1387,-2.1265,-2.4189,-2.7373,-3.0114,-3.0494,-3.0522,-3.0522,-3.3236,-3.4959,-3.5474,-3.8177,-3.9052,-3.7889,-3.7555,-3.6794,-3.5685,-3.4914,-3.4124,-3.3376,-3.3337,-3.3324,-3.3324,-3.3745,-3.4269,-3.4763,-3.4763,-3.4937,-3.5191,-3.5191,-3.5351,-3.5565,-3.5565,-3.5912,-3.638,-3.638,-3.658,-3.6861,-3.7088,-3.7208,-3.7235,-3.7195,-3.7048,-3.6981,-3.7235,-3.7155,-3.7155,-3.7742,-3.8076,-3.833,-3.8651,-3.8504,-3.833,-3.833,-3.8143,-3.7956,-3.7956,-3.7635,-3.7088,-3.6273,-3.479,-3.316,-3.1463,-3.0581,-3.0007,-2.9713,-3.0568,-3.1303,-3.1597,-3.2225,-3.2211,-3.1263,-3.1757,-3.1797,-3.1102,-3.2318,-3.2839,-3.2385,-3.344,-3.4322,-3.495,-3.5752,-3.6259,-3.65,-3.6794,-3.6901,-3.6861,-3.7008,-3.7008,-3.6941,-3.7048,-3.7008,-3.6941,-3.6981,-3.7155,-3.7422,-3.7742,-3.8036,-3.829,-3.8611,-3.8718,-3.8758,-2.0967,-2.1001,-2.1001,-2.1001,-2.1123,-2.1177,-2.1055,-2.1157,-2.1197,-2.1055,-2.1157,-2.1245,-2.1211,-2.1353,-2.1421,-2.1408,-2.4376,-2.645,-2.6652,-2.9173,-3.0522,-3.0522,-3.1019,-3.2495,-3.5474,-3.8177,-3.9132,-3.8183,-3.7635,-3.6914,-3.5992,-3.3035,-3.1306,-3.097,-3.0742,-3.0646,-3.0853,-3.3188,-3.4456,-3.4763,-3.4763,-3.4937,-3.5191,-3.5191,-3.5231,-3.5271,-3.5271,-3.5485,-3.5765,-3.5765,-3.5965,-3.6219,-3.6259,-3.6433,-3.658,-3.6353,-3.658,-3.6941,-3.7008,-3.7155,-3.7448,-3.8036,-3.8223,-3.833,-3.8651,-3.8691,-3.8651,-3.8651,-3.8611,-3.8584,-3.8584,-3.7929,-3.7168,-3.654,-3.4576,-3.2679,-3.141,-3.1102,-3.0915,-3.0621,-3.2024,-3.3133,-3.344,-3.3133,-3.2933,-3.3,-3.2438,-3.2144,-3.2265,-3.2959,-3.3427,-3.3601,-3.4269,-3.503,-3.5859,-3.6246,-3.6473,-3.65,-3.6794,-3.6794,-3.6607,-3.7342,-3.7408,-3.6967,-3.7448,-3.7408,-3.6967,-3.7195,-3.7342,-3.7422,-3.7969,-3.8223,-3.829,-3.8611,-3.8718,-3.8758,-2.1089,-2.1177,-2.1231,-2.1231,-2.1299,-2.1319,-2.1245,-2.1231,-2.1197,-2.1123,-2.1109,-2.1109,-2.1109,-2.1231,-2.1319,-2.1319,-2.4352,-2.6252,-2.5981,-2.7316,-2.7155,-2.529,-2.6797,-3.0143,-3.4832,-3.6295,-3.7473,-3.8263,-3.7823,-3.6341,-3.4046,-3.2313,-3.0379,-2.8264,-2.974,-3.0282,-3.0482,-3.3342,-3.4723,-3.5004,-3.5004,-3.5084,-3.5191,-3.5191,-3.5297,-3.5444,-3.5618,-3.5859,-3.6099,-3.6099,-3.6193,-3.6273,-3.6126,-3.6166,-3.6273,-3.6299,-3.65,-3.6727,-3.6901,-3.7048,-3.7275,-3.7889,-3.8036,-3.8143,-3.8611,-3.8718,-3.8718,-3.8718,-3.8718,-3.8718,-3.8718,-3.7996,-3.7128,-3.6393,-3.4148,-3.2265,-3.157,-3.0915,-3.0768,-3.1423,-3.2492,-3.3427,-3.4055,-3.3868,-3.3694,-3.3668,-3.3293,-3.312,-3.3253,-3.3668,-3.4108,-3.4576,-3.5004,-3.5578,-3.6299,-3.6433,-3.658,-3.6754,-3.7048,-3.7021,-3.6754,-3.7489,-3.7595,-3.7195,-3.7448,-3.7529,-3.7408,-3.7382,-3.7569,-3.7889,-3.8143,-3.837,-3.8504,-3.8691,-3.8718,-3.8798,-2.1177,-2.1299,-2.1408,-2.1441,-2.1441,-2.1441,-2.1441,-2.1333,-2.1245,-2.1211,-2.1143,-2.1089,-2.1055,-2.1177,-2.1265,-2.1265,-2.5127,-2.7087,-2.6116,-2.6722,-2.5516,-2.1801,-2.4047,-2.8102,-3.3323,-3.4253,-3.5818,-3.837,-3.8076,-3.5962,-3.2385,-3.1516,-2.9136,-2.5606,-2.8447,-2.9641,-2.9845,-3.3467,-3.499,-3.5191,-3.5191,-3.5191,-3.5191,-3.5191,-3.5338,-3.5565,-3.5859,-3.6112,-3.6313,-3.638,-3.6393,-3.6366,-3.6139,-3.6126,-3.6206,-3.6353,-3.65,-3.6687,-3.6981,-3.7048,-3.7195,-3.7782,-3.7929,-3.8063,-3.8611,-3.8718,-3.8758,-3.8798,-3.8758,-3.8758,-3.8798,-3.8036,-3.7088,-3.6219,-3.4015,-3.2278,-3.1931,-3.1102,-3.0996,-3.2251,-3.2986,-3.3694,-3.4456,-3.4523,-3.4402,-3.4108,-3.4095,-3.4068,-3.3988,-3.4269,-3.4723,-3.5378,-3.5685,-3.6046,-3.65,-3.658,-3.6727,-3.6941,-3.7235,-3.7235,-3.6967,-3.7635,-3.7716,-3.7382,-3.7529,-3.7676,-3.7809,-3.7635,-3.7863,-3.8263,-3.833,-3.8504,-3.8718,-3.8718,-3.8718,-3.8798,-2.1157,-2.1231,-2.1279,-2.1421,-2.1441,-2.1441,-2.1441,-2.1421,-2.1367,-2.1231,-2.1333,-2.1353,-2.1211,-2.1333,-2.1421,-2.1421,-2.7409,-2.9818,-2.6356,-2.9125,-2.9199,-2.5298,-2.5282,-2.7171,-3.0404,-3.3115,-3.5916,-3.8691,-3.837,-3.6142,-3.2373,-2.9652,-2.6475,-2.2958,-2.5826,-2.7051,-2.7487,-3.2898,-3.5177,-3.5191,-3.5191,-3.5191,-3.5191,-3.5191,-3.5204,-3.5271,-3.5551,-3.5672,-3.5738,-3.6006,-3.6099,-3.6099,-3.6086,-3.6259,-3.6433,-3.6179,-3.6473,-3.6981,-3.7275,-3.7342,-3.7489,-3.8076,-3.8223,-3.833,-3.8651,-3.8718,-3.8798,-3.9078,-3.8905,-3.8798,-3.9078,-3.8183,-3.7088,-3.6219,-3.4523,-3.312,-3.2559,-3.2412,-3.2585,-3.324,-3.4095,-3.4763,-3.5097,-3.5124,-3.5017,-3.4723,-3.4696,-3.4576,-3.4309,-3.4563,-3.5124,-3.5979,-3.6286,-3.6473,-3.65,-3.6754,-3.6901,-3.6941,-3.7235,-3.7235,-3.6967,-3.7823,-3.7929,-3.7422,-3.7969,-3.8036,-3.7849,-3.8076,-3.8223,-3.829,-3.8584,-3.8691,-3.8718,-3.8718,-3.8718,-3.8731,-2.1034,-2.1157,-2.1265,-2.1408,-2.1441,-2.1441,-2.1441,-2.1353,-2.1319,-2.1353,-2.1157,-2.1068,-2.1197,-2.119,-2.1211,-2.1299,-2.7504,-3.0723,-2.9153,-3.23,-3.0575,-2.2807,-2.2286,-2.396,-2.6982,-3.0098,-3.3154,-3.5612,-3.7631,-3.5593,-2.9865,-2.8813,-2.5471,-2.0549,-2.5198,-2.6965,-2.7275,-3.2957,-3.5364,-3.5191,-3.5191,-3.5191,-3.5217,-3.5391,-3.5458,-3.5525,-3.6006,-3.6179,-3.6193,-3.6299,-3.634,-3.6313,-3.6126,-3.6273,-3.654,-3.6807,-3.7168,-3.7555,-3.7849,-3.7782,-3.7742,-3.8143,-3.8263,-3.833,-3.8651,-3.8718,-3.8798,-3.9078,-3.8945,-3.8798,-3.9118,-3.8317,-3.7422,-3.6727,-3.5284,-3.4175,-3.3948,-3.3601,-3.3668,-3.4429,-3.4977,-3.5351,-3.5458,-3.5631,-3.5538,-3.507,-3.5204,-3.5177,-3.4883,-3.5311,-3.5805,-3.6326,-3.662,-3.6754,-3.6754,-3.7048,-3.7128,-3.6941,-3.7422,-3.7489,-3.7235,-3.8143,-3.833,-3.7929,-3.8157,-3.829,-3.8357,-3.829,-3.837,-3.8544,-3.8691,-3.8718,-3.8718,-3.8718,-3.8718,-3.8758,-2.0892,-2.1001,-2.1123,-2.1279,-2.1299,-2.1299,-2.1299,-2.1245,-2.1245,-2.1353,-2.1143,-2.1055,-2.1265,-2.1197,-2.1157,-2.1211,-2.6362,-3.0093,-3.0835,-3.2872,-3.0674,-2.2547,-2.1047,-2.1982,-2.5106,-2.8484,-3.1364,-3.3957,-3.7217,-3.5879,-2.9901,-2.882,-2.5478,-2.0517,-2.4251,-2.6223,-2.7377,-3.2133,-3.4502,-3.5191,-3.5191,-3.5191,-3.5231,-3.5511,-3.5631,-3.5712,-3.6299,-3.6433,-3.6393,-3.658,-3.658,-3.65,-3.6473,-3.6687,-3.6981,-3.7408,-3.7716,-3.7996,-3.8223,-3.8183,-3.8143,-3.8357,-3.8397,-3.8477,-3.8798,-3.8798,-3.8865,-3.9332,-3.9118,-3.8945,-3.9225,-3.8651,-3.7889,-3.7195,-3.6166,-3.5418,-3.5324,-3.4883,-3.483,-3.5525,-3.5698,-3.5765,-3.5765,-3.5952,-3.5899,-3.5498,-3.5565,-3.5538,-3.5351,-3.5885,-3.6299,-3.65,-3.6981,-3.7155,-3.7088,-3.7195,-3.7128,-3.6941,-3.7529,-3.7676,-3.7422,-3.8317,-3.8544,-3.8263,-3.837,-3.8504,-3.8718,-3.8504,-3.8544,-3.8718,-3.8718,-3.8718,-3.8718,-3.8718,-3.8718,-3.8758,-2.0736,-2.077,-2.0824,-2.0967,-2.1001,-2.1001,-2.1001,-2.1123,-2.1211,-2.1211,-2.1333,-2.1441,-2.1441,-2.1441,-2.1367,-2.1231,-2.4298,-2.7737,-3.0595,-3.0623,-2.9029,-2.5801,-2.2286,-2.204,-2.5282,-2.856,-3.1534,-3.4458,-3.7588,-3.705,-3.3172,-3.0143,-2.6682,-2.3301,-2.2937,-2.4316,-2.7146,-2.9754,-3.2586,-3.5191,-3.5204,-3.5204,-3.5231,-3.5525,-3.5631,-3.5712,-3.6299,-3.6326,-3.6166,-3.6754,-3.6754,-3.662,-3.7195,-3.7595,-3.7809,-3.7809,-3.8036,-3.8263,-3.8263,-3.8477,-3.8718,-3.8718,-3.8718,-3.8798,-3.9078,-3.8945,-3.8972,-3.9853,-3.9559,-3.9225,-3.9533,-3.9118,-3.8437,-3.7529,-3.7128,-3.6834,-3.654,-3.6273,-3.6193,-3.6473,-3.6259,-3.6086,-3.6072,-3.6086,-3.6072,-3.6072,-3.5805,-3.5631,-3.5631,-3.6193,-3.65,-3.6513,-3.7342,-3.7676,-3.7382,-3.7088,-3.6941,-3.6941,-3.7529,-3.7676,-3.7422,-3.8317,-3.8544,-3.829,-3.8584,-3.8718,-3.8718,-3.8718,-3.8718,-3.8718,-3.8718,-3.8718,-3.8718,-3.8718,-3.8718,-3.8718,-2.0736,-2.077,-2.0824,-2.0967,-2.1001,-2.1001,-2.1001,-2.1034,-2.1109,-2.1197,-2.1157,-2.1211,-2.1421,-2.1265,-2.1157,-2.1211,-2.4088,-2.8148,-3.3605,-3.1805,-3.0015,-2.9029,-2.3542,-2.1047,-2.204,-2.7466,-3.0803,-3.1555,-3.6927,-3.7524,-3.397,-3.2712,-2.8903,-2.3923,-2.5598,-2.546,-2.4298,-2.9229,-3.1618,-3.2385,-3.4541,-3.5498,-3.5551,-3.6059,-3.6366,-3.6607,-3.6981,-3.7061,-3.7021,-3.7195,-3.7048,-3.6901,-3.7489,-3.7889,-3.8183,-3.8397,-3.8504,-3.8544,-3.833,-3.8477,-3.8718,-3.8718,-3.8718,-3.8758,-3.8838,-3.8945,-3.9092,-3.9372,-3.9265,-3.9185,-3.9265,-3.8972,-3.8504,-3.7809,-3.7782,-3.7676,-3.7195,-3.7235,-3.7235,-3.7128,-3.7048,-3.6834,-3.6433,-3.658,-3.6513,-3.6099,-3.5992,-3.5939,-3.5939,-3.6299,-3.6687,-3.7088,-3.7382,-3.7569,-3.7676,-3.7595,-3.7448,-3.7275,-3.7635,-3.7782,-3.7702,-3.8397,-3.8691,-3.8584,-3.8691,-3.8718,-3.8718,-3.8718,-3.8718,-3.8718,-3.8718,-3.8718,-3.8718,-3.8718,-3.8718,-3.8718,-2.0668,-2.0682,-2.0716,-2.0804,-2.0824,-2.0824,-2.0824,-2.0878,-2.0967,-2.1109,-2.1055,-2.1109,-2.1408,-2.1177,-2.1034,-2.1123,-2.3901,-2.7918,-3.3258,-3.0264,-2.9029,-3.0512,-2.4047,-2.0539,-2.0539,-2.5784,-2.8884,-2.9782,-3.5021,-3.7114,-3.5907,-3.4147,-3.0562,-2.5597,-2.5891,-2.484,-2.2975,-2.7546,-3.0196,-3.1237,-3.4458,-3.5765,-3.6019,-3.6366,-3.6754,-3.7128,-3.7315,-3.7448,-3.7555,-3.7555,-3.7529,-3.7529,-3.7889,-3.8183,-3.8477,-3.8651,-3.8718,-3.8691,-3.8504,-3.8584,-3.8718,-3.8718,-3.8718,-3.8758,-3.8865,-3.9052,-3.9199,-3.9306,-3.9346,-3.9306,-3.9185,-3.9012,-3.8718,-3.825,-3.833,-3.833,-3.7969,-3.7956,-3.7929,-3.7742,-3.7635,-3.7382,-3.6901,-3.7008,-3.6874,-3.6286,-3.6353,-3.6393,-3.6393,-3.658,-3.6901,-3.7382,-3.7382,-3.7462,-3.7635,-3.7635,-3.7489,-3.7195,-3.7635,-3.7742,-3.7676,-3.8397,-3.8651,-3.8544,-3.8691,-3.8718,-3.8718,-3.8584,-3.8611,-3.8718,-3.8584,-3.8611,-3.8718,-3.8718,-3.8718,-3.8718,-2.0539,-2.0539,-2.0539,-2.0539,-2.0539,-2.0539,-2.0539,-2.0668,-2.0804,-2.0967,-2.1001,-2.1109,-2.1367,-2.1157,-2.1001,-2.098,-2.3745,-2.6788,-2.9776,-2.7289,-2.677,-3.0035,-2.4039,-2.0539,-2.0539,-2.3779,-2.6815,-2.9125,-3.2739,-3.5745,-3.7844,-3.4959,-3.1886,-2.8676,-2.5041,-2.318,-2.2751,-2.5462,-2.8225,-3.1257,-3.4171,-3.5829,-3.6513,-3.658,-3.6941,-3.7422,-3.7448,-3.7635,-3.7849,-3.7809,-3.7996,-3.8263,-3.8263,-3.8477,-3.8718,-3.8718,-3.8718,-3.8718,-3.8691,-3.8691,-3.8718,-3.8691,-3.8691,-3.8798,-3.9052,-3.9118,-3.9225,-3.9452,-3.9533,-3.9452,-3.9159,-3.9118,-3.9052,-3.8758,-3.8718,-3.8718,-3.8718,-3.8477,-3.829,-3.8263,-3.8036,-3.7742,-3.7448,-3.7422,-3.7195,-3.662,-3.6834,-3.6967,-3.6941,-3.6941,-3.7088,-3.7382,-3.7382,-3.7382,-3.7382,-3.7382,-3.7235,-3.6981,-3.7555,-3.7676,-3.7422,-3.8317,-3.8544,-3.8223,-3.8544,-3.8651,-3.8611,-3.833,-3.8397,-3.8651,-3.837,-3.8437,-3.8718,-3.8718,-3.8718,-3.8718,-2.0539,-2.0539,-2.0539,-2.0539,-2.0539,-2.0539,-2.0539,-2.0573,-2.0648,-2.0804,-2.0933,-2.1021,-2.1089,-2.1034,-2.0946,-2.0824,-2.3659,-2.5784,-2.6528,-2.5784,-2.5784,-2.6528,-2.2785,-2.0539,-2.0539,-2.3661,-2.552,-2.6186,-3.1687,-3.4785,-3.5314,-3.6296,-3.5218,-3.2149,-2.844,-2.5328,-2.2975,-2.3545,-2.5402,-2.8236,-3.167,-3.4549,-3.658,-3.7275,-3.7595,-3.7742,-3.7996,-3.8116,-3.8116,-3.7889,-3.7996,-3.8263,-3.8263,-3.8477,-3.8718,-3.8718,-3.8718,-3.8691,-3.8437,-3.8544,-3.8651,-3.8437,-3.8544,-3.8731,-3.8798,-3.8972,-3.9118,-3.8945,-3.9092,-3.9159,-3.8865,-3.8825,-3.8798,-3.8731,-3.8718,-3.8718,-3.8718,-3.8651,-3.8544,-3.829,-3.8183,-3.8036,-3.7742,-3.7702,-3.7569,-3.7235,-3.7235,-3.7195,-3.6941,-3.6941,-3.7088,-3.7382,-3.7382,-3.7382,-3.7382,-3.7382,-3.7342,-3.7301,-3.7635,-3.7676,-3.7422,-3.8317,-3.8437,-3.7929,-3.8223,-3.8223,-3.7996,-3.7929,-3.8076,-3.837,-3.829,-3.8437,-3.8718,-3.8718,-3.8718,-3.8718,-2.0539,-2.0539,-2.0539,-2.0539,-2.0539,-2.0539,-2.0539,-2.0539,-2.0594,-2.0756,-2.077,-2.0845,-2.098,-2.0878,-2.075,-2.0668,-2.2084,-2.3779,-2.5282,-2.4039,-2.3787,-2.5533,-2.2286,-2.0539,-2.0539,-2.205,-2.3649,-2.5119,-2.9774,-3.2917,-3.4123,-3.6755,-3.6206,-3.3148,-3.0902,-2.7356,-2.3112,-2.4236,-2.5796,-2.7813,-3.1092,-3.4271,-3.7195,-3.7635,-3.7889,-3.8036,-3.8183,-3.8437,-3.8691,-3.8691,-3.8691,-3.8691,-3.8691,-3.8691,-3.8718,-3.8718,-3.8718,-3.8691,-3.8504,-3.8611,-3.8691,-3.8504,-3.8611,-3.8718,-3.8718,-3.8945,-3.9078,-3.8798,-3.8945,-3.9118,-3.8972,-3.8825,-3.8758,-3.8905,-3.8825,-3.8718,-3.8718,-3.8718,-3.8651,-3.8504,-3.8477,-3.8357,-3.8076,-3.7889,-3.7742,-3.7595,-3.7595,-3.7529,-3.7382,-3.7235,-3.7235,-3.7382,-3.7235,-3.7155,-3.7155,-3.7155,-3.7235,-3.7382,-3.7676,-3.7676,-3.7422,-3.8143,-3.825,-3.7809,-3.7969,-3.7956,-3.7809,-3.7676,-3.7863,-3.8223,-3.7969,-3.821,-3.8691,-3.8544,-3.8584,-3.8691,-2.0539,-2.0539,-2.0539,-2.0539,-2.0539,-2.0539,-2.0539,-2.0539,-2.0594,-2.0716,-2.0648,-2.0661,-2.0892,-2.0702,-2.0539,-2.0539,-2.0539,-2.1794,-2.4543,-2.2547,-2.2286,-2.4527,-2.2509,-2.0999,-2.0505,-2.0241,-2.1333,-2.404,-2.784,-3.0764,-3.3264,-3.65,-3.6459,-3.4076,-3.2668,-2.9383,-2.4822,-2.6476,-2.7733,-2.9007,-3.1578,-3.4606,-3.7742,-3.7916,-3.8076,-3.8223,-3.837,-3.8758,-3.9265,-3.9519,-3.9412,-3.9159,-3.9159,-3.8945,-3.8718,-3.8718,-3.8718,-3.8718,-3.8718,-3.8718,-3.8718,-3.8718,-3.8718,-3.8718,-3.8718,-3.8905,-3.9012,-3.8758,-3.8905,-3.9078,-3.9078,-3.8865,-3.8798,-3.9052,-3.8865,-3.8718,-3.8718,-3.8718,-3.8718,-3.8718,-3.8718,-3.8611,-3.837,-3.8103,-3.7956,-3.7889,-3.7849,-3.7782,-3.7742,-3.7448,-3.7301,-3.7301,-3.7048,-3.6967,-3.7008,-3.6967,-3.7088,-3.7382,-3.7635,-3.7595,-3.7422,-3.7996,-3.8036,-3.7662,-3.7702,-3.7702,-3.7635,-3.7422,-3.7635,-3.8076,-3.7569,-3.7849,-3.8544,-3.829,-3.8357,-3.8544,-2.0539,-2.0539,-2.0539,-2.0539,-2.0539,-2.0539,-2.0539,-2.0539,-2.0539,-2.0573,-2.0668,-2.0702,-2.0614,-2.056,-2.0539,-2.0539,-2.0539,-2.0786,-2.1033,-2.3535,-2.3803,-2.1294,-2.3395,-2.3317,-2.0349,-2.0187,-2.0409,-2.1034,-2.6421,-2.9568,-3.019,-3.5635,-3.7821,-3.7115,-3.3953,-3.1959,-3.0899,-2.8603,-2.9405,-3.1994,-3.2878,-3.4841,-3.7529,-3.829,-3.829,-3.7969,-3.8758,-3.9265,-3.9559,-3.9599,-3.9412,-3.9159,-3.9159,-3.8945,-3.8718,-3.8718,-3.8718,-3.8718,-3.8718,-3.8718,-3.8718,-3.8718,-3.8718,-3.8718,-3.8718,-3.8758,-3.8758,-3.8731,-3.8758,-3.8798,-3.8798,-3.8758,-3.8731,-3.8758,-3.8758,-3.8718,-3.8718,-3.8718,-3.8718,-3.8718,-3.8718,-3.8718,-3.8651,-3.8611,-3.8477,-3.8223,-3.7956,-3.7702,-3.7448,-3.7155,-3.7008,-3.7008,-3.6967,-3.7048,-3.7315,-3.7048,-3.7088,-3.7382,-3.7422,-3.7422,-3.7422,-3.7996,-3.7823,-3.7088,-3.7342,-3.7301,-3.7048,-3.7008,-3.7195,-3.7489,-3.7422,-3.7595,-3.7929,-3.7889,-3.7889,-3.7929,-2.0539,-2.0539,-2.0539,-2.0539,-2.0539,-2.0539,-2.0539,-2.0539,-2.0539,-2.0539,-2.0594,-2.0614,-2.0539,-2.0539,-2.0539,-2.0539,-2.0539,-2.0539,-2.0539,-2.3542,-2.4795,-2.3298,-2.6344,-2.6531,-2.3182,-2.2835,-2.1807,-2.0329,-2.4553,-2.7434,-2.9319,-3.3724,-3.6538,-3.8023,-3.6034,-3.4122,-3.242,-3.0902,-3.1308,-3.307,-3.2925,-3.4804,-3.7676,-3.8063,-3.8036,-3.7956,-3.9012,-3.9599,-3.9853,-4.004,-3.9893,-3.9626,-3.9626,-3.9332,-3.8972,-3.8972,-3.8865,-3.8718,-3.8718,-3.8718,-3.8718,-3.8718,-3.8718,-3.8718,-3.8718,-3.8718,-3.8718,-3.8718,-3.8718,-3.8758,-3.8945,-3.8838,-3.8758,-3.8945,-3.8838,-3.8718,-3.8718,-3.8718,-3.8718,-3.8718,-3.8718,-3.8718,-3.8718,-3.8718,-3.8584,-3.829,-3.8143,-3.7863,-3.7422,-3.7275,-3.7114,-3.6941,-3.6941,-3.7008,-3.7128,-3.7008,-3.7088,-3.7382,-3.7382,-3.7301,-3.7155,-3.7408,-3.7235,-3.6687,-3.6834,-3.6727,-3.6473,-3.6794,-3.6901,-3.6901,-3.7088,-3.7195,-3.7342,-3.7342,-3.7422,-3.7555]}]]